<?xml version="1.0" encoding="UTF-8" standalone="no" ?>
<gpx xmlns="http://www.topografix.com/GPX/1/1" xmlns:xsi="http://www.w3.org/2001/XMLSchema-instance" xsi:schemaLocation="http://www.topografix.com/GPX/1/1 http://www.topografix.com/GPX/1/1/gpx.xsd" version="1.1" creator="VisuGPX - https://www.visugpx.com">
  <metadata>
    <name>Pic des 3 Seigneurs / Etang d'Arbu</name>
    <desc><![CDATA[Au départ du col de l'Hers, montée droite vers la crête pour la suivre jusqu'au pic et descente par l'étang d'Arbu.]]></desc>
  </metadata>
  <trk>
    <name><![CDATA[Tracé actuel: 30 OCT 2016 09:32]]></name>
    <trkseg>
      <trkpt lat="42.80641" lon="1.41146">
        <ele>1514.21</ele>
        <time>2016-10-30T08:32:35Z</time>
      </trkpt>
      <trkpt lat="42.80641" lon="1.41147">
        <ele>1514.21</ele>
        <time>2016-10-30T08:32:37Z</time>
      </trkpt>
      <trkpt lat="42.8065" lon="1.4115">
        <ele>1513.25</ele>
        <time>2016-10-30T08:32:47Z</time>
      </trkpt>
      <trkpt lat="42.80652" lon="1.4115">
        <ele>1513.25</ele>
        <time>2016-10-30T08:32:50Z</time>
      </trkpt>
      <trkpt lat="42.80657" lon="1.41154">
        <ele>1513.25</ele>
        <time>2016-10-30T08:33:03Z</time>
      </trkpt>
      <trkpt lat="42.80657" lon="1.41154">
        <ele>1513.25</ele>
        <time>2016-10-30T08:33:12Z</time>
      </trkpt>
      <trkpt lat="42.80657" lon="1.41151">
        <ele>1513.25</ele>
        <time>2016-10-30T08:33:19Z</time>
      </trkpt>
      <trkpt lat="42.80659" lon="1.41151">
        <ele>1513.25</ele>
        <time>2016-10-30T08:33:21Z</time>
      </trkpt>
      <trkpt lat="42.80661" lon="1.41155">
        <ele>1513.25</ele>
        <time>2016-10-30T08:33:33Z</time>
      </trkpt>
      <trkpt lat="42.80664" lon="1.41156">
        <ele>1513.25</ele>
        <time>2016-10-30T08:33:37Z</time>
      </trkpt>
      <trkpt lat="42.80668" lon="1.41159">
        <ele>1513.25</ele>
        <time>2016-10-30T08:33:42Z</time>
      </trkpt>
      <trkpt lat="42.80677" lon="1.41164">
        <ele>1513.25</ele>
        <time>2016-10-30T08:33:53Z</time>
      </trkpt>
      <trkpt lat="42.80683" lon="1.41167">
        <ele>1513.25</ele>
        <time>2016-10-30T08:33:59Z</time>
      </trkpt>
      <trkpt lat="42.80686" lon="1.41167">
        <ele>1513.25</ele>
        <time>2016-10-30T08:34:02Z</time>
      </trkpt>
      <trkpt lat="42.80693" lon="1.41173">
        <ele>1516.14</ele>
        <time>2016-10-30T08:34:13Z</time>
      </trkpt>
      <trkpt lat="42.80698" lon="1.41175">
        <ele>1517.1</ele>
        <time>2016-10-30T08:34:20Z</time>
      </trkpt>
      <trkpt lat="42.80699" lon="1.41177">
        <ele>1517.58</ele>
        <time>2016-10-30T08:34:24Z</time>
      </trkpt>
      <trkpt lat="42.80707" lon="1.4118">
        <ele>1521.42</ele>
        <time>2016-10-30T08:34:36Z</time>
      </trkpt>
      <trkpt lat="42.80714" lon="1.41179">
        <ele>1523.83</ele>
        <time>2016-10-30T08:34:46Z</time>
      </trkpt>
      <trkpt lat="42.80719" lon="1.41179">
        <ele>1523.83</ele>
        <time>2016-10-30T08:34:59Z</time>
      </trkpt>
      <trkpt lat="42.80727" lon="1.41181">
        <ele>1525.27</ele>
        <time>2016-10-30T08:35:11Z</time>
      </trkpt>
      <trkpt lat="42.80733" lon="1.41184">
        <ele>1527.67</ele>
        <time>2016-10-30T08:35:24Z</time>
      </trkpt>
      <trkpt lat="42.80736" lon="1.41185">
        <ele>1531.52</ele>
        <time>2016-10-30T08:35:30Z</time>
      </trkpt>
      <trkpt lat="42.80739" lon="1.41185">
        <ele>1534.4</ele>
        <time>2016-10-30T08:35:35Z</time>
      </trkpt>
      <trkpt lat="42.80741" lon="1.41185">
        <ele>1534.4</ele>
        <time>2016-10-30T08:35:39Z</time>
      </trkpt>
      <trkpt lat="42.80747" lon="1.41184">
        <ele>1534.4</ele>
        <time>2016-10-30T08:35:52Z</time>
      </trkpt>
      <trkpt lat="42.8075" lon="1.41189">
        <ele>1536.32</ele>
        <time>2016-10-30T08:36:01Z</time>
      </trkpt>
      <trkpt lat="42.80755" lon="1.4119">
        <ele>1538.73</ele>
        <time>2016-10-30T08:36:12Z</time>
      </trkpt>
      <trkpt lat="42.80757" lon="1.41191">
        <ele>1541.61</ele>
        <time>2016-10-30T08:36:17Z</time>
      </trkpt>
      <trkpt lat="42.80763" lon="1.41189">
        <ele>1544.5</ele>
        <time>2016-10-30T08:36:29Z</time>
      </trkpt>
      <trkpt lat="42.80766" lon="1.41192">
        <ele>1544.98</ele>
        <time>2016-10-30T08:36:40Z</time>
      </trkpt>
      <trkpt lat="42.80771" lon="1.41194">
        <ele>1548.34</ele>
        <time>2016-10-30T08:36:49Z</time>
      </trkpt>
      <trkpt lat="42.80772" lon="1.41195">
        <ele>1551.22</ele>
        <time>2016-10-30T08:36:54Z</time>
      </trkpt>
      <trkpt lat="42.80778" lon="1.41197">
        <ele>1551.71</ele>
        <time>2016-10-30T08:37:05Z</time>
      </trkpt>
      <trkpt lat="42.8078" lon="1.41201">
        <ele>1553.15</ele>
        <time>2016-10-30T08:37:15Z</time>
      </trkpt>
      <trkpt lat="42.80783" lon="1.412">
        <ele>1554.59</ele>
        <time>2016-10-30T08:37:34Z</time>
      </trkpt>
      <trkpt lat="42.80783" lon="1.41202">
        <ele>1555.07</ele>
        <time>2016-10-30T08:37:56Z</time>
      </trkpt>
      <trkpt lat="42.80787" lon="1.41205">
        <ele>1555.55</ele>
        <time>2016-10-30T08:38:06Z</time>
      </trkpt>
      <trkpt lat="42.80791" lon="1.41207">
        <ele>1557.47</ele>
        <time>2016-10-30T08:38:18Z</time>
      </trkpt>
      <trkpt lat="42.80799" lon="1.41205">
        <ele>1558.92</ele>
        <time>2016-10-30T08:38:29Z</time>
      </trkpt>
      <trkpt lat="42.80804" lon="1.41201">
        <ele>1562.28</ele>
        <time>2016-10-30T08:38:38Z</time>
      </trkpt>
      <trkpt lat="42.80808" lon="1.412">
        <ele>1565.64</ele>
        <time>2016-10-30T08:38:44Z</time>
      </trkpt>
      <trkpt lat="42.80815" lon="1.41203">
        <ele>1566.12</ele>
        <time>2016-10-30T08:38:58Z</time>
      </trkpt>
      <trkpt lat="42.80822" lon="1.41206">
        <ele>1567.57</ele>
        <time>2016-10-30T08:39:10Z</time>
      </trkpt>
      <trkpt lat="42.80828" lon="1.41207">
        <ele>1569.49</ele>
        <time>2016-10-30T08:39:21Z</time>
      </trkpt>
      <trkpt lat="42.80831" lon="1.41208">
        <ele>1572.85</ele>
        <time>2016-10-30T08:39:31Z</time>
      </trkpt>
      <trkpt lat="42.80834" lon="1.41209">
        <ele>1575.74</ele>
        <time>2016-10-30T08:39:36Z</time>
      </trkpt>
      <trkpt lat="42.80842" lon="1.41209">
        <ele>1577.18</ele>
        <time>2016-10-30T08:39:47Z</time>
      </trkpt>
      <trkpt lat="42.80846" lon="1.41212">
        <ele>1577.18</ele>
        <time>2016-10-30T08:40:00Z</time>
      </trkpt>
      <trkpt lat="42.80852" lon="1.41214">
        <ele>1578.14</ele>
        <time>2016-10-30T08:40:22Z</time>
      </trkpt>
      <trkpt lat="42.8086" lon="1.41215">
        <ele>1579.58</ele>
        <time>2016-10-30T08:40:34Z</time>
      </trkpt>
      <trkpt lat="42.80867" lon="1.41217">
        <ele>1581.51</ele>
        <time>2016-10-30T08:40:45Z</time>
      </trkpt>
      <trkpt lat="42.80868" lon="1.41219">
        <ele>1582.47</ele>
        <time>2016-10-30T08:40:57Z</time>
      </trkpt>
      <trkpt lat="42.80869" lon="1.41219">
        <ele>1582.95</ele>
        <time>2016-10-30T08:41:22Z</time>
      </trkpt>
      <trkpt lat="42.80876" lon="1.41221">
        <ele>1584.87</ele>
        <time>2016-10-30T08:41:35Z</time>
      </trkpt>
      <trkpt lat="42.80878" lon="1.41223">
        <ele>1588.24</ele>
        <time>2016-10-30T08:41:40Z</time>
      </trkpt>
      <trkpt lat="42.80882" lon="1.41224">
        <ele>1591.6</ele>
        <time>2016-10-30T08:41:47Z</time>
      </trkpt>
      <trkpt lat="42.80887" lon="1.41229">
        <ele>1591.6</ele>
        <time>2016-10-30T08:41:58Z</time>
      </trkpt>
      <trkpt lat="42.80895" lon="1.41235">
        <ele>1593.04</ele>
        <time>2016-10-30T08:42:09Z</time>
      </trkpt>
      <trkpt lat="42.80898" lon="1.41239">
        <ele>1594.96</ele>
        <time>2016-10-30T08:42:20Z</time>
      </trkpt>
      <trkpt lat="42.80902" lon="1.41242">
        <ele>1595.45</ele>
        <time>2016-10-30T08:42:37Z</time>
      </trkpt>
      <trkpt lat="42.80905" lon="1.41245">
        <ele>1596.41</ele>
        <time>2016-10-30T08:42:47Z</time>
      </trkpt>
      <trkpt lat="42.80908" lon="1.41247">
        <ele>1597.37</ele>
        <time>2016-10-30T08:43:03Z</time>
      </trkpt>
      <trkpt lat="42.80912" lon="1.41252">
        <ele>1599.29</ele>
        <time>2016-10-30T08:43:13Z</time>
      </trkpt>
      <trkpt lat="42.80917" lon="1.41257">
        <ele>1600.25</ele>
        <time>2016-10-30T08:43:21Z</time>
      </trkpt>
      <trkpt lat="42.8092" lon="1.41259">
        <ele>1600.73</ele>
        <time>2016-10-30T08:43:24Z</time>
      </trkpt>
      <trkpt lat="42.80922" lon="1.41262">
        <ele>1601.69</ele>
        <time>2016-10-30T08:43:28Z</time>
      </trkpt>
      <trkpt lat="42.80925" lon="1.41269">
        <ele>1603.62</ele>
        <time>2016-10-30T08:43:39Z</time>
      </trkpt>
      <trkpt lat="42.80927" lon="1.41272">
        <ele>1605.54</ele>
        <time>2016-10-30T08:43:51Z</time>
      </trkpt>
      <trkpt lat="42.80933" lon="1.41278">
        <ele>1606.5</ele>
        <time>2016-10-30T08:44:02Z</time>
      </trkpt>
      <trkpt lat="42.80933" lon="1.4128">
        <ele>1606.98</ele>
        <time>2016-10-30T08:44:05Z</time>
      </trkpt>
      <trkpt lat="42.8094" lon="1.41286">
        <ele>1610.83</ele>
        <time>2016-10-30T08:44:16Z</time>
      </trkpt>
      <trkpt lat="42.80941" lon="1.41286">
        <ele>1612.75</ele>
        <time>2016-10-30T08:44:19Z</time>
      </trkpt>
      <trkpt lat="42.80941" lon="1.41287">
        <ele>1614.67</ele>
        <time>2016-10-30T08:44:23Z</time>
      </trkpt>
      <trkpt lat="42.80947" lon="1.41292">
        <ele>1614.19</ele>
        <time>2016-10-30T08:44:33Z</time>
      </trkpt>
      <trkpt lat="42.80951" lon="1.41293">
        <ele>1614.19</ele>
        <time>2016-10-30T08:44:39Z</time>
      </trkpt>
      <trkpt lat="42.80953" lon="1.41293">
        <ele>1614.19</ele>
        <time>2016-10-30T08:44:41Z</time>
      </trkpt>
      <trkpt lat="42.80961" lon="1.41299">
        <ele>1618.04</ele>
        <time>2016-10-30T08:44:53Z</time>
      </trkpt>
      <trkpt lat="42.80965" lon="1.41307">
        <ele>1620.92</ele>
        <time>2016-10-30T08:45:02Z</time>
      </trkpt>
      <trkpt lat="42.80969" lon="1.41313">
        <ele>1620.92</ele>
        <time>2016-10-30T08:45:12Z</time>
      </trkpt>
      <trkpt lat="42.80972" lon="1.41321">
        <ele>1620.92</ele>
        <time>2016-10-30T08:45:21Z</time>
      </trkpt>
      <trkpt lat="42.80974" lon="1.41324">
        <ele>1621.88</ele>
        <time>2016-10-30T08:45:24Z</time>
      </trkpt>
      <trkpt lat="42.80977" lon="1.41329">
        <ele>1623.32</ele>
        <time>2016-10-30T08:45:34Z</time>
      </trkpt>
      <trkpt lat="42.80979" lon="1.41331">
        <ele>1623.8</ele>
        <time>2016-10-30T08:45:49Z</time>
      </trkpt>
      <trkpt lat="42.80982" lon="1.41337">
        <ele>1624.77</ele>
        <time>2016-10-30T08:45:58Z</time>
      </trkpt>
      <trkpt lat="42.80983" lon="1.41337">
        <ele>1625.73</ele>
        <time>2016-10-30T08:46:14Z</time>
      </trkpt>
      <trkpt lat="42.80983" lon="1.41339">
        <ele>1625.73</ele>
        <time>2016-10-30T08:46:20Z</time>
      </trkpt>
      <trkpt lat="42.80987" lon="1.41347">
        <ele>1627.17</ele>
        <time>2016-10-30T08:46:29Z</time>
      </trkpt>
      <trkpt lat="42.80991" lon="1.41351">
        <ele>1627.65</ele>
        <time>2016-10-30T08:46:36Z</time>
      </trkpt>
      <trkpt lat="42.80994" lon="1.41356">
        <ele>1629.09</ele>
        <time>2016-10-30T08:46:47Z</time>
      </trkpt>
      <trkpt lat="42.80997" lon="1.41361">
        <ele>1631.01</ele>
        <time>2016-10-30T08:46:58Z</time>
      </trkpt>
      <trkpt lat="42.80998" lon="1.41362">
        <ele>1631.01</ele>
        <time>2016-10-30T08:47:00Z</time>
      </trkpt>
      <trkpt lat="42.81002" lon="1.41367">
        <ele>1632.46</ele>
        <time>2016-10-30T08:47:08Z</time>
      </trkpt>
      <trkpt lat="42.81008" lon="1.41372">
        <ele>1635.82</ele>
        <time>2016-10-30T08:47:19Z</time>
      </trkpt>
      <trkpt lat="42.81008" lon="1.41373">
        <ele>1636.78</ele>
        <time>2016-10-30T08:47:20Z</time>
      </trkpt>
      <trkpt lat="42.8101" lon="1.41376">
        <ele>1639.19</ele>
        <time>2016-10-30T08:47:24Z</time>
      </trkpt>
      <trkpt lat="42.81011" lon="1.4138">
        <ele>1640.15</ele>
        <time>2016-10-30T08:47:28Z</time>
      </trkpt>
      <trkpt lat="42.81015" lon="1.41386">
        <ele>1640.15</ele>
        <time>2016-10-30T08:47:39Z</time>
      </trkpt>
      <trkpt lat="42.81018" lon="1.41393">
        <ele>1641.59</ele>
        <time>2016-10-30T08:47:49Z</time>
      </trkpt>
      <trkpt lat="42.81021" lon="1.414">
        <ele>1643.03</ele>
        <time>2016-10-30T08:47:58Z</time>
      </trkpt>
      <trkpt lat="42.81023" lon="1.414">
        <ele>1644.47</ele>
        <time>2016-10-30T08:48:12Z</time>
      </trkpt>
      <trkpt lat="42.81024" lon="1.41401">
        <ele>1644.95</ele>
        <time>2016-10-30T08:48:35Z</time>
      </trkpt>
      <trkpt lat="42.81026" lon="1.41402">
        <ele>1644.95</ele>
        <time>2016-10-30T08:49:02Z</time>
      </trkpt>
      <trkpt lat="42.81027" lon="1.41402">
        <ele>1644.95</ele>
        <time>2016-10-30T08:49:05Z</time>
      </trkpt>
      <trkpt lat="42.81034" lon="1.41398">
        <ele>1645.91</ele>
        <time>2016-10-30T08:49:15Z</time>
      </trkpt>
      <trkpt lat="42.81039" lon="1.41397">
        <ele>1647.36</ele>
        <time>2016-10-30T08:49:25Z</time>
      </trkpt>
      <trkpt lat="42.81043" lon="1.41394">
        <ele>1648.32</ele>
        <time>2016-10-30T08:49:30Z</time>
      </trkpt>
      <trkpt lat="42.81051" lon="1.41391">
        <ele>1650.72</ele>
        <time>2016-10-30T08:49:43Z</time>
      </trkpt>
      <trkpt lat="42.81056" lon="1.41391">
        <ele>1654.09</ele>
        <time>2016-10-30T08:49:51Z</time>
      </trkpt>
      <trkpt lat="42.8106" lon="1.41391">
        <ele>1656.97</ele>
        <time>2016-10-30T08:49:57Z</time>
      </trkpt>
      <trkpt lat="42.81066" lon="1.41391">
        <ele>1657.45</ele>
        <time>2016-10-30T08:50:08Z</time>
      </trkpt>
      <trkpt lat="42.81068" lon="1.4139">
        <ele>1658.41</ele>
        <time>2016-10-30T08:50:19Z</time>
      </trkpt>
      <trkpt lat="42.81069" lon="1.41389">
        <ele>1658.89</ele>
        <time>2016-10-30T08:50:36Z</time>
      </trkpt>
      <trkpt lat="42.81072" lon="1.41389">
        <ele>1659.85</ele>
        <time>2016-10-30T08:50:39Z</time>
      </trkpt>
      <trkpt lat="42.8108" lon="1.41386">
        <ele>1662.26</ele>
        <time>2016-10-30T08:50:53Z</time>
      </trkpt>
      <trkpt lat="42.81085" lon="1.41385">
        <ele>1664.18</ele>
        <time>2016-10-30T08:51:04Z</time>
      </trkpt>
      <trkpt lat="42.81088" lon="1.41381">
        <ele>1665.62</ele>
        <time>2016-10-30T08:51:13Z</time>
      </trkpt>
      <trkpt lat="42.81091" lon="1.41379">
        <ele>1666.1</ele>
        <time>2016-10-30T08:51:17Z</time>
      </trkpt>
      <trkpt lat="42.81095" lon="1.41384">
        <ele>1668.99</ele>
        <time>2016-10-30T08:51:31Z</time>
      </trkpt>
      <trkpt lat="42.81099" lon="1.41381">
        <ele>1670.43</ele>
        <time>2016-10-30T08:51:42Z</time>
      </trkpt>
      <trkpt lat="42.81107" lon="1.41379">
        <ele>1672.35</ele>
        <time>2016-10-30T08:51:53Z</time>
      </trkpt>
      <trkpt lat="42.81108" lon="1.41378">
        <ele>1675.72</ele>
        <time>2016-10-30T08:51:58Z</time>
      </trkpt>
      <trkpt lat="42.81115" lon="1.41379">
        <ele>1676.2</ele>
        <time>2016-10-30T08:52:10Z</time>
      </trkpt>
      <trkpt lat="42.81123" lon="1.41378">
        <ele>1677.64</ele>
        <time>2016-10-30T08:52:22Z</time>
      </trkpt>
      <trkpt lat="42.81127" lon="1.41376">
        <ele>1678.6</ele>
        <time>2016-10-30T08:52:28Z</time>
      </trkpt>
      <trkpt lat="42.8113" lon="1.41375">
        <ele>1679.56</ele>
        <time>2016-10-30T08:52:34Z</time>
      </trkpt>
      <trkpt lat="42.81139" lon="1.41377">
        <ele>1681.96</ele>
        <time>2016-10-30T08:52:48Z</time>
      </trkpt>
      <trkpt lat="42.81147" lon="1.41376">
        <ele>1684.37</ele>
        <time>2016-10-30T08:53:00Z</time>
      </trkpt>
      <trkpt lat="42.81155" lon="1.41375">
        <ele>1685.33</ele>
        <time>2016-10-30T08:53:11Z</time>
      </trkpt>
      <trkpt lat="42.8116" lon="1.41376">
        <ele>1688.69</ele>
        <time>2016-10-30T08:53:22Z</time>
      </trkpt>
      <trkpt lat="42.81163" lon="1.41375">
        <ele>1692.06</ele>
        <time>2016-10-30T08:53:27Z</time>
      </trkpt>
      <trkpt lat="42.81167" lon="1.41375">
        <ele>1693.5</ele>
        <time>2016-10-30T08:53:38Z</time>
      </trkpt>
      <trkpt lat="42.8117" lon="1.41374">
        <ele>1693.98</ele>
        <time>2016-10-30T08:53:49Z</time>
      </trkpt>
      <trkpt lat="42.81176" lon="1.41373">
        <ele>1696.38</ele>
        <time>2016-10-30T08:54:00Z</time>
      </trkpt>
      <trkpt lat="42.8118" lon="1.41372">
        <ele>1697.83</ele>
        <time>2016-10-30T08:54:10Z</time>
      </trkpt>
      <trkpt lat="42.81185" lon="1.41368">
        <ele>1700.23</ele>
        <time>2016-10-30T08:54:22Z</time>
      </trkpt>
      <trkpt lat="42.81189" lon="1.41364">
        <ele>1704.07</ele>
        <time>2016-10-30T08:54:33Z</time>
      </trkpt>
      <trkpt lat="42.8119" lon="1.41363">
        <ele>1706.96</ele>
        <time>2016-10-30T08:54:38Z</time>
      </trkpt>
      <trkpt lat="42.81196" lon="1.41361">
        <ele>1708.4</ele>
        <time>2016-10-30T08:54:49Z</time>
      </trkpt>
      <trkpt lat="42.81205" lon="1.41359">
        <ele>1709.36</ele>
        <time>2016-10-30T08:55:03Z</time>
      </trkpt>
      <trkpt lat="42.81208" lon="1.41358">
        <ele>1710.32</ele>
        <time>2016-10-30T08:55:10Z</time>
      </trkpt>
      <trkpt lat="42.81206" lon="1.41366">
        <ele>1711.76</ele>
        <time>2016-10-30T08:55:24Z</time>
      </trkpt>
      <trkpt lat="42.81203" lon="1.41368">
        <ele>1712.25</ele>
        <time>2016-10-30T08:55:37Z</time>
      </trkpt>
      <trkpt lat="42.81202" lon="1.41368">
        <ele>1712.25</ele>
        <time>2016-10-30T08:55:55Z</time>
      </trkpt>
      <trkpt lat="42.81202" lon="1.41369">
        <ele>1712.25</ele>
        <time>2016-10-30T08:56:16Z</time>
      </trkpt>
      <trkpt lat="42.81203" lon="1.41369">
        <ele>1712.25</ele>
        <time>2016-10-30T08:56:24Z</time>
      </trkpt>
      <trkpt lat="42.81206" lon="1.41368">
        <ele>1712.25</ele>
        <time>2016-10-30T08:56:30Z</time>
      </trkpt>
      <trkpt lat="42.81212" lon="1.4136">
        <ele>1713.21</ele>
        <time>2016-10-30T08:56:40Z</time>
      </trkpt>
      <trkpt lat="42.81213" lon="1.41362">
        <ele>1714.17</ele>
        <time>2016-10-30T08:57:02Z</time>
      </trkpt>
      <trkpt lat="42.81214" lon="1.41363">
        <ele>1714.17</ele>
        <time>2016-10-30T08:57:19Z</time>
      </trkpt>
      <trkpt lat="42.81219" lon="1.41361">
        <ele>1714.65</ele>
        <time>2016-10-30T08:57:29Z</time>
      </trkpt>
      <trkpt lat="42.81228" lon="1.41363">
        <ele>1716.57</ele>
        <time>2016-10-30T08:57:42Z</time>
      </trkpt>
      <trkpt lat="42.8123" lon="1.41364">
        <ele>1717.53</ele>
        <time>2016-10-30T08:57:53Z</time>
      </trkpt>
      <trkpt lat="42.81232" lon="1.41367">
        <ele>1718.97</ele>
        <time>2016-10-30T08:57:59Z</time>
      </trkpt>
      <trkpt lat="42.8124" lon="1.41368">
        <ele>1719.94</ele>
        <time>2016-10-30T08:58:10Z</time>
      </trkpt>
      <trkpt lat="42.81246" lon="1.41368">
        <ele>1722.34</ele>
        <time>2016-10-30T08:58:21Z</time>
      </trkpt>
      <trkpt lat="42.81251" lon="1.41368">
        <ele>1726.18</ele>
        <time>2016-10-30T08:58:33Z</time>
      </trkpt>
      <trkpt lat="42.81253" lon="1.41367">
        <ele>1729.07</ele>
        <time>2016-10-30T08:58:38Z</time>
      </trkpt>
      <trkpt lat="42.81256" lon="1.41367">
        <ele>1730.03</ele>
        <time>2016-10-30T08:58:49Z</time>
      </trkpt>
      <trkpt lat="42.81257" lon="1.41368">
        <ele>1730.51</ele>
        <time>2016-10-30T08:59:00Z</time>
      </trkpt>
      <trkpt lat="42.81259" lon="1.41369">
        <ele>1730.99</ele>
        <time>2016-10-30T08:59:11Z</time>
      </trkpt>
      <trkpt lat="42.81261" lon="1.41372">
        <ele>1731.47</ele>
        <time>2016-10-30T08:59:33Z</time>
      </trkpt>
      <trkpt lat="42.81265" lon="1.41373">
        <ele>1732.43</ele>
        <time>2016-10-30T08:59:49Z</time>
      </trkpt>
      <trkpt lat="42.8127" lon="1.41374">
        <ele>1733.88</ele>
        <time>2016-10-30T08:59:57Z</time>
      </trkpt>
      <trkpt lat="42.81272" lon="1.41374">
        <ele>1734.36</ele>
        <time>2016-10-30T09:00:01Z</time>
      </trkpt>
      <trkpt lat="42.81276" lon="1.41373">
        <ele>1735.8</ele>
        <time>2016-10-30T09:00:14Z</time>
      </trkpt>
      <trkpt lat="42.81281" lon="1.41373">
        <ele>1738.2</ele>
        <time>2016-10-30T09:00:24Z</time>
      </trkpt>
      <trkpt lat="42.81286" lon="1.41375">
        <ele>1740.12</ele>
        <time>2016-10-30T09:00:36Z</time>
      </trkpt>
      <trkpt lat="42.81287" lon="1.41375">
        <ele>1741.57</ele>
        <time>2016-10-30T09:00:47Z</time>
      </trkpt>
      <trkpt lat="42.8129" lon="1.41373">
        <ele>1742.53</ele>
        <time>2016-10-30T09:01:05Z</time>
      </trkpt>
      <trkpt lat="42.81297" lon="1.41374">
        <ele>1744.45</ele>
        <time>2016-10-30T09:01:17Z</time>
      </trkpt>
      <trkpt lat="42.813" lon="1.41375">
        <ele>1748.29</ele>
        <time>2016-10-30T09:01:24Z</time>
      </trkpt>
      <trkpt lat="42.81303" lon="1.41375">
        <ele>1751.66</ele>
        <time>2016-10-30T09:01:29Z</time>
      </trkpt>
      <trkpt lat="42.81307" lon="1.41376">
        <ele>1751.66</ele>
        <time>2016-10-30T09:01:38Z</time>
      </trkpt>
      <trkpt lat="42.8131" lon="1.41378">
        <ele>1753.1</ele>
        <time>2016-10-30T09:01:51Z</time>
      </trkpt>
      <trkpt lat="42.81315" lon="1.41382">
        <ele>1754.06</ele>
        <time>2016-10-30T09:02:01Z</time>
      </trkpt>
      <trkpt lat="42.81321" lon="1.41386">
        <ele>1755.99</ele>
        <time>2016-10-30T09:02:12Z</time>
      </trkpt>
      <trkpt lat="42.81322" lon="1.41388">
        <ele>1757.43</ele>
        <time>2016-10-30T09:02:26Z</time>
      </trkpt>
      <trkpt lat="42.81326" lon="1.41387">
        <ele>1759.35</ele>
        <time>2016-10-30T09:02:38Z</time>
      </trkpt>
      <trkpt lat="42.8133" lon="1.41388">
        <ele>1759.83</ele>
        <time>2016-10-30T09:02:45Z</time>
      </trkpt>
      <trkpt lat="42.81335" lon="1.41389">
        <ele>1762.23</ele>
        <time>2016-10-30T09:02:56Z</time>
      </trkpt>
      <trkpt lat="42.81336" lon="1.41391">
        <ele>1763.2</ele>
        <time>2016-10-30T09:03:07Z</time>
      </trkpt>
      <trkpt lat="42.81341" lon="1.41389">
        <ele>1765.12</ele>
        <time>2016-10-30T09:03:20Z</time>
      </trkpt>
      <trkpt lat="42.81345" lon="1.41391">
        <ele>1767.52</ele>
        <time>2016-10-30T09:03:33Z</time>
      </trkpt>
      <trkpt lat="42.8135" lon="1.41392">
        <ele>1769.44</ele>
        <time>2016-10-30T09:03:43Z</time>
      </trkpt>
      <trkpt lat="42.81352" lon="1.41393">
        <ele>1772.33</ele>
        <time>2016-10-30T09:03:48Z</time>
      </trkpt>
      <trkpt lat="42.81353" lon="1.41394">
        <ele>1773.77</ele>
        <time>2016-10-30T09:03:50Z</time>
      </trkpt>
      <trkpt lat="42.81358" lon="1.41399">
        <ele>1775.21</ele>
        <time>2016-10-30T09:04:01Z</time>
      </trkpt>
      <trkpt lat="42.81364" lon="1.41402">
        <ele>1776.17</ele>
        <time>2016-10-30T09:04:10Z</time>
      </trkpt>
      <trkpt lat="42.81371" lon="1.41403">
        <ele>1777.61</ele>
        <time>2016-10-30T09:04:22Z</time>
      </trkpt>
      <trkpt lat="42.81376" lon="1.41407">
        <ele>1780.02</ele>
        <time>2016-10-30T09:04:35Z</time>
      </trkpt>
      <trkpt lat="42.81379" lon="1.4141">
        <ele>1782.9</ele>
        <time>2016-10-30T09:04:45Z</time>
      </trkpt>
      <trkpt lat="42.81381" lon="1.41412">
        <ele>1785.31</ele>
        <time>2016-10-30T09:05:01Z</time>
      </trkpt>
      <trkpt lat="42.81383" lon="1.41414">
        <ele>1785.31</ele>
        <time>2016-10-30T09:05:33Z</time>
      </trkpt>
      <trkpt lat="42.81386" lon="1.41414">
        <ele>1785.31</ele>
        <time>2016-10-30T09:05:52Z</time>
      </trkpt>
      <trkpt lat="42.81388" lon="1.41416">
        <ele>1785.79</ele>
        <time>2016-10-30T09:06:02Z</time>
      </trkpt>
      <trkpt lat="42.81395" lon="1.41417">
        <ele>1788.19</ele>
        <time>2016-10-30T09:06:14Z</time>
      </trkpt>
      <trkpt lat="42.81397" lon="1.41421">
        <ele>1789.63</ele>
        <time>2016-10-30T09:06:24Z</time>
      </trkpt>
      <trkpt lat="42.814" lon="1.4142">
        <ele>1790.11</ele>
        <time>2016-10-30T09:06:27Z</time>
      </trkpt>
      <trkpt lat="42.81403" lon="1.41421">
        <ele>1793.48</ele>
        <time>2016-10-30T09:06:33Z</time>
      </trkpt>
      <trkpt lat="42.81404" lon="1.41422">
        <ele>1796.84</ele>
        <time>2016-10-30T09:06:39Z</time>
      </trkpt>
      <trkpt lat="42.81407" lon="1.41425">
        <ele>1796.36</ele>
        <time>2016-10-30T09:06:51Z</time>
      </trkpt>
      <trkpt lat="42.81411" lon="1.41426">
        <ele>1796.84</ele>
        <time>2016-10-30T09:07:08Z</time>
      </trkpt>
      <trkpt lat="42.81415" lon="1.41429">
        <ele>1797.8</ele>
        <time>2016-10-30T09:07:17Z</time>
      </trkpt>
      <trkpt lat="42.81421" lon="1.41431">
        <ele>1799.24</ele>
        <time>2016-10-30T09:07:27Z</time>
      </trkpt>
      <trkpt lat="42.81427" lon="1.4143">
        <ele>1800.69</ele>
        <time>2016-10-30T09:07:36Z</time>
      </trkpt>
      <trkpt lat="42.81431" lon="1.41432">
        <ele>1802.61</ele>
        <time>2016-10-30T09:07:44Z</time>
      </trkpt>
      <trkpt lat="42.81434" lon="1.4143">
        <ele>1804.53</ele>
        <time>2016-10-30T09:07:54Z</time>
      </trkpt>
      <trkpt lat="42.81439" lon="1.41431">
        <ele>1806.94</ele>
        <time>2016-10-30T09:08:09Z</time>
      </trkpt>
      <trkpt lat="42.81444" lon="1.41436">
        <ele>1808.38</ele>
        <time>2016-10-30T09:08:21Z</time>
      </trkpt>
      <trkpt lat="42.81447" lon="1.41442">
        <ele>1810.78</ele>
        <time>2016-10-30T09:08:32Z</time>
      </trkpt>
      <trkpt lat="42.81447" lon="1.41448">
        <ele>1812.22</ele>
        <time>2016-10-30T09:08:39Z</time>
      </trkpt>
      <trkpt lat="42.81448" lon="1.41451">
        <ele>1813.18</ele>
        <time>2016-10-30T09:08:45Z</time>
      </trkpt>
      <trkpt lat="42.8145" lon="1.41453">
        <ele>1814.63</ele>
        <time>2016-10-30T09:08:50Z</time>
      </trkpt>
      <trkpt lat="42.81453" lon="1.41458">
        <ele>1815.59</ele>
        <time>2016-10-30T09:08:56Z</time>
      </trkpt>
      <trkpt lat="42.81457" lon="1.41468">
        <ele>1817.99</ele>
        <time>2016-10-30T09:09:08Z</time>
      </trkpt>
      <trkpt lat="42.81459" lon="1.41469">
        <ele>1820.39</ele>
        <time>2016-10-30T09:09:12Z</time>
      </trkpt>
      <trkpt lat="42.8146" lon="1.41471">
        <ele>1822.8</ele>
        <time>2016-10-30T09:09:17Z</time>
      </trkpt>
      <trkpt lat="42.81464" lon="1.41476">
        <ele>1823.28</ele>
        <time>2016-10-30T09:09:29Z</time>
      </trkpt>
      <trkpt lat="42.81464" lon="1.41476">
        <ele>1823.28</ele>
        <time>2016-10-30T09:09:44Z</time>
      </trkpt>
      <trkpt lat="42.81464" lon="1.41477">
        <ele>1823.76</ele>
        <time>2016-10-30T09:10:11Z</time>
      </trkpt>
      <trkpt lat="42.81468" lon="1.41483">
        <ele>1824.24</ele>
        <time>2016-10-30T09:10:22Z</time>
      </trkpt>
      <trkpt lat="42.8147" lon="1.41489">
        <ele>1826.16</ele>
        <time>2016-10-30T09:10:31Z</time>
      </trkpt>
      <trkpt lat="42.81474" lon="1.41496">
        <ele>1829.53</ele>
        <time>2016-10-30T09:10:41Z</time>
      </trkpt>
      <trkpt lat="42.81479" lon="1.41502">
        <ele>1832.41</ele>
        <time>2016-10-30T09:10:51Z</time>
      </trkpt>
      <trkpt lat="42.81484" lon="1.41507">
        <ele>1832.89</ele>
        <time>2016-10-30T09:11:02Z</time>
      </trkpt>
      <trkpt lat="42.81484" lon="1.41509">
        <ele>1833.37</ele>
        <time>2016-10-30T09:11:04Z</time>
      </trkpt>
      <trkpt lat="42.81487" lon="1.41514">
        <ele>1835.29</ele>
        <time>2016-10-30T09:11:15Z</time>
      </trkpt>
      <trkpt lat="42.81488" lon="1.41514">
        <ele>1835.29</ele>
        <time>2016-10-30T09:11:16Z</time>
      </trkpt>
      <trkpt lat="42.81491" lon="1.41518">
        <ele>1836.26</ele>
        <time>2016-10-30T09:11:22Z</time>
      </trkpt>
      <trkpt lat="42.81494" lon="1.41528">
        <ele>1838.18</ele>
        <time>2016-10-30T09:11:35Z</time>
      </trkpt>
      <trkpt lat="42.81496" lon="1.41533">
        <ele>1840.58</ele>
        <time>2016-10-30T09:11:47Z</time>
      </trkpt>
      <trkpt lat="42.81498" lon="1.41535">
        <ele>1841.54</ele>
        <time>2016-10-30T09:11:53Z</time>
      </trkpt>
      <trkpt lat="42.81502" lon="1.41539">
        <ele>1842.98</ele>
        <time>2016-10-30T09:12:01Z</time>
      </trkpt>
      <trkpt lat="42.81504" lon="1.41544">
        <ele>1845.87</ele>
        <time>2016-10-30T09:12:10Z</time>
      </trkpt>
      <trkpt lat="42.81504" lon="1.41544">
        <ele>1849.23</ele>
        <time>2016-10-30T09:12:17Z</time>
      </trkpt>
      <trkpt lat="42.81504" lon="1.41545">
        <ele>1848.27</ele>
        <time>2016-10-30T09:12:40Z</time>
      </trkpt>
      <trkpt lat="42.81507" lon="1.41543">
        <ele>1848.27</ele>
        <time>2016-10-30T09:12:52Z</time>
      </trkpt>
      <trkpt lat="42.81511" lon="1.41543">
        <ele>1849.71</ele>
        <time>2016-10-30T09:13:04Z</time>
      </trkpt>
      <trkpt lat="42.81513" lon="1.41547">
        <ele>1851.16</ele>
        <time>2016-10-30T09:13:15Z</time>
      </trkpt>
      <trkpt lat="42.81517" lon="1.41553">
        <ele>1853.56</ele>
        <time>2016-10-30T09:13:27Z</time>
      </trkpt>
      <trkpt lat="42.8152" lon="1.4156">
        <ele>1855.48</ele>
        <time>2016-10-30T09:13:38Z</time>
      </trkpt>
      <trkpt lat="42.81522" lon="1.41562">
        <ele>1856.44</ele>
        <time>2016-10-30T09:13:41Z</time>
      </trkpt>
      <trkpt lat="42.81525" lon="1.41565">
        <ele>1858.85</ele>
        <time>2016-10-30T09:13:52Z</time>
      </trkpt>
      <trkpt lat="42.81525" lon="1.41561">
        <ele>1860.77</ele>
        <time>2016-10-30T09:14:03Z</time>
      </trkpt>
      <trkpt lat="42.81526" lon="1.41561">
        <ele>1862.21</ele>
        <time>2016-10-30T09:14:19Z</time>
      </trkpt>
      <trkpt lat="42.81526" lon="1.41561">
        <ele>1862.69</ele>
        <time>2016-10-30T09:14:44Z</time>
      </trkpt>
      <trkpt lat="42.81526" lon="1.41561">
        <ele>1863.17</ele>
        <time>2016-10-30T09:15:09Z</time>
      </trkpt>
      <trkpt lat="42.81527" lon="1.41562">
        <ele>1863.17</ele>
        <time>2016-10-30T09:15:34Z</time>
      </trkpt>
      <trkpt lat="42.81529" lon="1.4156">
        <ele>1863.17</ele>
        <time>2016-10-30T09:15:56Z</time>
      </trkpt>
      <trkpt lat="42.81531" lon="1.41565">
        <ele>1864.13</ele>
        <time>2016-10-30T09:16:03Z</time>
      </trkpt>
      <trkpt lat="42.81534" lon="1.41573">
        <ele>1865.58</ele>
        <time>2016-10-30T09:16:14Z</time>
      </trkpt>
      <trkpt lat="42.81538" lon="1.41573">
        <ele>1867.98</ele>
        <time>2016-10-30T09:16:24Z</time>
      </trkpt>
      <trkpt lat="42.81544" lon="1.4157">
        <ele>1869.42</ele>
        <time>2016-10-30T09:16:35Z</time>
      </trkpt>
      <trkpt lat="42.81548" lon="1.41572">
        <ele>1871.34</ele>
        <time>2016-10-30T09:16:43Z</time>
      </trkpt>
      <trkpt lat="42.81551" lon="1.4157">
        <ele>1875.67</ele>
        <time>2016-10-30T09:16:49Z</time>
      </trkpt>
      <trkpt lat="42.81556" lon="1.41572">
        <ele>1877.11</ele>
        <time>2016-10-30T09:17:00Z</time>
      </trkpt>
      <trkpt lat="42.81559" lon="1.41572">
        <ele>1877.59</ele>
        <time>2016-10-30T09:17:11Z</time>
      </trkpt>
      <trkpt lat="42.81564" lon="1.41571">
        <ele>1880</ele>
        <time>2016-10-30T09:17:22Z</time>
      </trkpt>
      <trkpt lat="42.81568" lon="1.41566">
        <ele>1882.4</ele>
        <time>2016-10-30T09:17:35Z</time>
      </trkpt>
      <trkpt lat="42.81568" lon="1.41566">
        <ele>1882.4</ele>
        <time>2016-10-30T09:17:36Z</time>
      </trkpt>
      <trkpt lat="42.81573" lon="1.41567">
        <ele>1884.8</ele>
        <time>2016-10-30T09:17:47Z</time>
      </trkpt>
      <trkpt lat="42.81576" lon="1.41566">
        <ele>1885.76</ele>
        <time>2016-10-30T09:17:57Z</time>
      </trkpt>
      <trkpt lat="42.81579" lon="1.41568">
        <ele>1888.65</ele>
        <time>2016-10-30T09:18:16Z</time>
      </trkpt>
      <trkpt lat="42.8158" lon="1.41573">
        <ele>1890.57</ele>
        <time>2016-10-30T09:18:26Z</time>
      </trkpt>
      <trkpt lat="42.81581" lon="1.41579">
        <ele>1892.97</ele>
        <time>2016-10-30T09:18:39Z</time>
      </trkpt>
      <trkpt lat="42.81581" lon="1.41588">
        <ele>1894.42</ele>
        <time>2016-10-30T09:18:50Z</time>
      </trkpt>
      <trkpt lat="42.81584" lon="1.41594">
        <ele>1895.86</ele>
        <time>2016-10-30T09:19:00Z</time>
      </trkpt>
      <trkpt lat="42.81585" lon="1.41596">
        <ele>1897.78</ele>
        <time>2016-10-30T09:19:09Z</time>
      </trkpt>
      <trkpt lat="42.81585" lon="1.41597">
        <ele>1898.74</ele>
        <time>2016-10-30T09:19:21Z</time>
      </trkpt>
      <trkpt lat="42.8159" lon="1.41601">
        <ele>1899.22</ele>
        <time>2016-10-30T09:19:31Z</time>
      </trkpt>
      <trkpt lat="42.81591" lon="1.41603">
        <ele>1901.14</ele>
        <time>2016-10-30T09:19:40Z</time>
      </trkpt>
      <trkpt lat="42.81593" lon="1.4161">
        <ele>1903.55</ele>
        <time>2016-10-30T09:19:52Z</time>
      </trkpt>
      <trkpt lat="42.81596" lon="1.41614">
        <ele>1905.47</ele>
        <time>2016-10-30T09:20:02Z</time>
      </trkpt>
      <trkpt lat="42.81596" lon="1.41618">
        <ele>1908.35</ele>
        <time>2016-10-30T09:20:07Z</time>
      </trkpt>
      <trkpt lat="42.81597" lon="1.41629">
        <ele>1910.28</ele>
        <time>2016-10-30T09:20:19Z</time>
      </trkpt>
      <trkpt lat="42.81599" lon="1.41632">
        <ele>1910.28</ele>
        <time>2016-10-30T09:20:29Z</time>
      </trkpt>
      <trkpt lat="42.816" lon="1.41632">
        <ele>1910.76</ele>
        <time>2016-10-30T09:20:59Z</time>
      </trkpt>
      <trkpt lat="42.81603" lon="1.41631">
        <ele>1912.68</ele>
        <time>2016-10-30T09:21:11Z</time>
      </trkpt>
      <trkpt lat="42.81609" lon="1.41618">
        <ele>1914.6</ele>
        <time>2016-10-30T09:21:24Z</time>
      </trkpt>
      <trkpt lat="42.81613" lon="1.41615">
        <ele>1916.53</ele>
        <time>2016-10-30T09:21:35Z</time>
      </trkpt>
      <trkpt lat="42.81615" lon="1.41612">
        <ele>1917.49</ele>
        <time>2016-10-30T09:21:39Z</time>
      </trkpt>
      <trkpt lat="42.81617" lon="1.41609">
        <ele>1917.97</ele>
        <time>2016-10-30T09:21:42Z</time>
      </trkpt>
      <trkpt lat="42.81621" lon="1.41605">
        <ele>1920.37</ele>
        <time>2016-10-30T09:21:54Z</time>
      </trkpt>
      <trkpt lat="42.81624" lon="1.41602">
        <ele>1924.22</ele>
        <time>2016-10-30T09:21:58Z</time>
      </trkpt>
      <trkpt lat="42.81629" lon="1.41597">
        <ele>1926.62</ele>
        <time>2016-10-30T09:22:08Z</time>
      </trkpt>
      <trkpt lat="42.81632" lon="1.41597">
        <ele>1926.62</ele>
        <time>2016-10-30T09:22:13Z</time>
      </trkpt>
      <trkpt lat="42.81634" lon="1.41596">
        <ele>1927.1</ele>
        <time>2016-10-30T09:22:17Z</time>
      </trkpt>
      <trkpt lat="42.8164" lon="1.41595">
        <ele>1929.02</ele>
        <time>2016-10-30T09:22:27Z</time>
      </trkpt>
      <trkpt lat="42.81646" lon="1.41594">
        <ele>1930.46</ele>
        <time>2016-10-30T09:22:38Z</time>
      </trkpt>
      <trkpt lat="42.81648" lon="1.41593">
        <ele>1931.43</ele>
        <time>2016-10-30T09:22:41Z</time>
      </trkpt>
      <trkpt lat="42.81655" lon="1.41594">
        <ele>1932.39</ele>
        <time>2016-10-30T09:22:52Z</time>
      </trkpt>
      <trkpt lat="42.81658" lon="1.41599">
        <ele>1934.79</ele>
        <time>2016-10-30T09:23:02Z</time>
      </trkpt>
      <trkpt lat="42.81659" lon="1.416">
        <ele>1935.75</ele>
        <time>2016-10-30T09:23:15Z</time>
      </trkpt>
      <trkpt lat="42.81659" lon="1.416">
        <ele>1936.23</ele>
        <time>2016-10-30T09:23:42Z</time>
      </trkpt>
      <trkpt lat="42.81659" lon="1.416">
        <ele>1936.23</ele>
        <time>2016-10-30T09:23:59Z</time>
      </trkpt>
      <trkpt lat="42.81659" lon="1.41601">
        <ele>1937.19</ele>
        <time>2016-10-30T09:24:17Z</time>
      </trkpt>
      <trkpt lat="42.8166" lon="1.41601">
        <ele>1937.19</ele>
        <time>2016-10-30T09:24:43Z</time>
      </trkpt>
      <trkpt lat="42.81656" lon="1.41602">
        <ele>1937.19</ele>
        <time>2016-10-30T09:25:04Z</time>
      </trkpt>
      <trkpt lat="42.81655" lon="1.41602">
        <ele>1937.19</ele>
        <time>2016-10-30T09:25:15Z</time>
      </trkpt>
      <trkpt lat="42.81655" lon="1.41602">
        <ele>1937.67</ele>
        <time>2016-10-30T09:25:35Z</time>
      </trkpt>
      <trkpt lat="42.81656" lon="1.41602">
        <ele>1937.67</ele>
        <time>2016-10-30T09:25:57Z</time>
      </trkpt>
      <trkpt lat="42.81656" lon="1.41601">
        <ele>1937.67</ele>
        <time>2016-10-30T09:26:27Z</time>
      </trkpt>
      <trkpt lat="42.81656" lon="1.41602">
        <ele>1938.16</ele>
        <time>2016-10-30T09:26:46Z</time>
      </trkpt>
      <trkpt lat="42.81656" lon="1.41602">
        <ele>1938.64</ele>
        <time>2016-10-30T09:27:03Z</time>
      </trkpt>
      <trkpt lat="42.81656" lon="1.41603">
        <ele>1938.64</ele>
        <time>2016-10-30T09:27:33Z</time>
      </trkpt>
      <trkpt lat="42.81656" lon="1.41603">
        <ele>1938.64</ele>
        <time>2016-10-30T09:27:54Z</time>
      </trkpt>
      <trkpt lat="42.81656" lon="1.41603">
        <ele>1938.64</ele>
        <time>2016-10-30T09:28:19Z</time>
      </trkpt>
      <trkpt lat="42.81655" lon="1.41603">
        <ele>1939.12</ele>
        <time>2016-10-30T09:28:36Z</time>
      </trkpt>
      <trkpt lat="42.81656" lon="1.41602">
        <ele>1939.12</ele>
        <time>2016-10-30T09:28:58Z</time>
      </trkpt>
      <trkpt lat="42.81657" lon="1.41602">
        <ele>1939.12</ele>
        <time>2016-10-30T09:29:23Z</time>
      </trkpt>
      <trkpt lat="42.81658" lon="1.41601">
        <ele>1939.12</ele>
        <time>2016-10-30T09:29:48Z</time>
      </trkpt>
      <trkpt lat="42.8166" lon="1.41597">
        <ele>1939.6</ele>
        <time>2016-10-30T09:30:03Z</time>
      </trkpt>
      <trkpt lat="42.81663" lon="1.41595">
        <ele>1940.56</ele>
        <time>2016-10-30T09:30:16Z</time>
      </trkpt>
      <trkpt lat="42.81664" lon="1.41595">
        <ele>1941.04</ele>
        <time>2016-10-30T09:30:31Z</time>
      </trkpt>
      <trkpt lat="42.81666" lon="1.41596">
        <ele>1941.04</ele>
        <time>2016-10-30T09:30:44Z</time>
      </trkpt>
      <trkpt lat="42.81667" lon="1.41595">
        <ele>1941.04</ele>
        <time>2016-10-30T09:31:06Z</time>
      </trkpt>
      <trkpt lat="42.81667" lon="1.41595">
        <ele>1941.04</ele>
        <time>2016-10-30T09:31:38Z</time>
      </trkpt>
      <trkpt lat="42.81667" lon="1.41593">
        <ele>1941.04</ele>
        <time>2016-10-30T09:31:54Z</time>
      </trkpt>
      <trkpt lat="42.81667" lon="1.41594">
        <ele>1941.52</ele>
        <time>2016-10-30T09:32:14Z</time>
      </trkpt>
      <trkpt lat="42.81667" lon="1.41595">
        <ele>1941.52</ele>
        <time>2016-10-30T09:32:39Z</time>
      </trkpt>
      <trkpt lat="42.81666" lon="1.41595">
        <ele>1941.52</ele>
        <time>2016-10-30T09:33:04Z</time>
      </trkpt>
      <trkpt lat="42.81667" lon="1.41596">
        <ele>1942</ele>
        <time>2016-10-30T09:33:19Z</time>
      </trkpt>
      <trkpt lat="42.81667" lon="1.41597">
        <ele>1942</ele>
        <time>2016-10-30T09:33:46Z</time>
      </trkpt>
      <trkpt lat="42.81667" lon="1.41597">
        <ele>1942</ele>
        <time>2016-10-30T09:34:05Z</time>
      </trkpt>
      <trkpt lat="42.81667" lon="1.41597">
        <ele>1942</ele>
        <time>2016-10-30T09:34:24Z</time>
      </trkpt>
      <trkpt lat="42.81667" lon="1.41598">
        <ele>1942</ele>
        <time>2016-10-30T09:34:46Z</time>
      </trkpt>
      <trkpt lat="42.81667" lon="1.41598">
        <ele>1942</ele>
        <time>2016-10-30T09:35:08Z</time>
      </trkpt>
      <trkpt lat="42.81667" lon="1.41598">
        <ele>1942</ele>
        <time>2016-10-30T09:35:33Z</time>
      </trkpt>
      <trkpt lat="42.81667" lon="1.41598">
        <ele>1942</ele>
        <time>2016-10-30T09:35:52Z</time>
      </trkpt>
      <trkpt lat="42.81667" lon="1.41597">
        <ele>1942</ele>
        <time>2016-10-30T09:36:20Z</time>
      </trkpt>
      <trkpt lat="42.81667" lon="1.41596">
        <ele>1942.48</ele>
        <time>2016-10-30T09:36:47Z</time>
      </trkpt>
      <trkpt lat="42.81666" lon="1.41595">
        <ele>1942.48</ele>
        <time>2016-10-30T09:37:18Z</time>
      </trkpt>
      <trkpt lat="42.81667" lon="1.41595">
        <ele>1942.48</ele>
        <time>2016-10-30T09:37:45Z</time>
      </trkpt>
      <trkpt lat="42.81667" lon="1.41596">
        <ele>1942.48</ele>
        <time>2016-10-30T09:38:15Z</time>
      </trkpt>
      <trkpt lat="42.81667" lon="1.41596">
        <ele>1942.48</ele>
        <time>2016-10-30T09:38:37Z</time>
      </trkpt>
      <trkpt lat="42.81667" lon="1.41595">
        <ele>1942.48</ele>
        <time>2016-10-30T09:38:58Z</time>
      </trkpt>
      <trkpt lat="42.81667" lon="1.41595">
        <ele>1942.48</ele>
        <time>2016-10-30T09:39:20Z</time>
      </trkpt>
      <trkpt lat="42.81666" lon="1.41596">
        <ele>1942.48</ele>
        <time>2016-10-30T09:39:45Z</time>
      </trkpt>
      <trkpt lat="42.81667" lon="1.41596">
        <ele>1942.96</ele>
        <time>2016-10-30T09:40:11Z</time>
      </trkpt>
      <trkpt lat="42.81667" lon="1.41597">
        <ele>1942.96</ele>
        <time>2016-10-30T09:40:41Z</time>
      </trkpt>
      <trkpt lat="42.81667" lon="1.41597">
        <ele>1942.96</ele>
        <time>2016-10-30T09:41:01Z</time>
      </trkpt>
      <trkpt lat="42.81666" lon="1.41597">
        <ele>1942.96</ele>
        <time>2016-10-30T09:41:18Z</time>
      </trkpt>
      <trkpt lat="42.81667" lon="1.41597">
        <ele>1942.96</ele>
        <time>2016-10-30T09:41:37Z</time>
      </trkpt>
      <trkpt lat="42.81666" lon="1.41597">
        <ele>1942.96</ele>
        <time>2016-10-30T09:41:55Z</time>
      </trkpt>
      <trkpt lat="42.81667" lon="1.41596">
        <ele>1942.96</ele>
        <time>2016-10-30T09:42:15Z</time>
      </trkpt>
      <trkpt lat="42.81667" lon="1.41596">
        <ele>1942.96</ele>
        <time>2016-10-30T09:42:38Z</time>
      </trkpt>
      <trkpt lat="42.81667" lon="1.41596">
        <ele>1942.96</ele>
        <time>2016-10-30T09:42:56Z</time>
      </trkpt>
      <trkpt lat="42.81667" lon="1.41596">
        <ele>1942.96</ele>
        <time>2016-10-30T09:43:18Z</time>
      </trkpt>
      <trkpt lat="42.81667" lon="1.41596">
        <ele>1942.96</ele>
        <time>2016-10-30T09:43:19Z</time>
      </trkpt>
      <trkpt lat="42.81667" lon="1.41596">
        <ele>1942.96</ele>
        <time>2016-10-30T09:43:30Z</time>
      </trkpt>
      <trkpt lat="42.81667" lon="1.41596">
        <ele>1942.96</ele>
        <time>2016-10-30T09:43:48Z</time>
      </trkpt>
      <trkpt lat="42.81667" lon="1.41596">
        <ele>1943.44</ele>
        <time>2016-10-30T09:44:16Z</time>
      </trkpt>
      <trkpt lat="42.81667" lon="1.41596">
        <ele>1943.44</ele>
        <time>2016-10-30T09:44:34Z</time>
      </trkpt>
      <trkpt lat="42.81667" lon="1.41596">
        <ele>1943.44</ele>
        <time>2016-10-30T09:44:56Z</time>
      </trkpt>
      <trkpt lat="42.81667" lon="1.41595">
        <ele>1943.44</ele>
        <time>2016-10-30T09:45:12Z</time>
      </trkpt>
      <trkpt lat="42.81667" lon="1.41594">
        <ele>1943.44</ele>
        <time>2016-10-30T09:45:36Z</time>
      </trkpt>
      <trkpt lat="42.81666" lon="1.41594">
        <ele>1943.44</ele>
        <time>2016-10-30T09:45:54Z</time>
      </trkpt>
      <trkpt lat="42.81666" lon="1.41593">
        <ele>1943.44</ele>
        <time>2016-10-30T09:46:17Z</time>
      </trkpt>
      <trkpt lat="42.81667" lon="1.41593">
        <ele>1943.44</ele>
        <time>2016-10-30T09:46:37Z</time>
      </trkpt>
      <trkpt lat="42.81667" lon="1.41593">
        <ele>1943.44</ele>
        <time>2016-10-30T09:47:02Z</time>
      </trkpt>
      <trkpt lat="42.81667" lon="1.41593">
        <ele>1943.44</ele>
        <time>2016-10-30T09:47:17Z</time>
      </trkpt>
      <trkpt lat="42.81667" lon="1.41593">
        <ele>1943.44</ele>
        <time>2016-10-30T09:47:38Z</time>
      </trkpt>
      <trkpt lat="42.81667" lon="1.41593">
        <ele>1943.44</ele>
        <time>2016-10-30T09:48:01Z</time>
      </trkpt>
      <trkpt lat="42.81668" lon="1.41593">
        <ele>1943.92</ele>
        <time>2016-10-30T09:48:23Z</time>
      </trkpt>
      <trkpt lat="42.81668" lon="1.41593">
        <ele>1943.92</ele>
        <time>2016-10-30T09:48:47Z</time>
      </trkpt>
      <trkpt lat="42.81668" lon="1.41593">
        <ele>1943.92</ele>
        <time>2016-10-30T09:49:05Z</time>
      </trkpt>
      <trkpt lat="42.81668" lon="1.41593">
        <ele>1943.92</ele>
        <time>2016-10-30T09:49:31Z</time>
      </trkpt>
      <trkpt lat="42.81668" lon="1.41593">
        <ele>1943.92</ele>
        <time>2016-10-30T09:49:55Z</time>
      </trkpt>
      <trkpt lat="42.81668" lon="1.41593">
        <ele>1943.92</ele>
        <time>2016-10-30T09:50:16Z</time>
      </trkpt>
      <trkpt lat="42.81668" lon="1.41593">
        <ele>1943.92</ele>
        <time>2016-10-30T09:50:50Z</time>
      </trkpt>
      <trkpt lat="42.81668" lon="1.41593">
        <ele>1943.92</ele>
        <time>2016-10-30T09:51:09Z</time>
      </trkpt>
      <trkpt lat="42.81668" lon="1.41593">
        <ele>1944.4</ele>
        <time>2016-10-30T09:51:30Z</time>
      </trkpt>
      <trkpt lat="42.81669" lon="1.41591">
        <ele>1944.4</ele>
        <time>2016-10-30T09:51:40Z</time>
      </trkpt>
      <trkpt lat="42.81669" lon="1.41591">
        <ele>1944.4</ele>
        <time>2016-10-30T09:51:58Z</time>
      </trkpt>
      <trkpt lat="42.8167" lon="1.41591">
        <ele>1944.4</ele>
        <time>2016-10-30T09:52:14Z</time>
      </trkpt>
      <trkpt lat="42.81671" lon="1.41591">
        <ele>1944.4</ele>
        <time>2016-10-30T09:52:34Z</time>
      </trkpt>
      <trkpt lat="42.81672" lon="1.41591">
        <ele>1944.4</ele>
        <time>2016-10-30T09:52:57Z</time>
      </trkpt>
      <trkpt lat="42.81671" lon="1.4159">
        <ele>1944.4</ele>
        <time>2016-10-30T09:53:11Z</time>
      </trkpt>
      <trkpt lat="42.81671" lon="1.4159">
        <ele>1944.4</ele>
        <time>2016-10-30T09:53:29Z</time>
      </trkpt>
      <trkpt lat="42.8167" lon="1.4159">
        <ele>1944.4</ele>
        <time>2016-10-30T09:53:49Z</time>
      </trkpt>
      <trkpt lat="42.8167" lon="1.4159">
        <ele>1944.4</ele>
        <time>2016-10-30T09:54:12Z</time>
      </trkpt>
      <trkpt lat="42.8167" lon="1.4159">
        <ele>1944.4</ele>
        <time>2016-10-30T09:54:32Z</time>
      </trkpt>
      <trkpt lat="42.8167" lon="1.41591">
        <ele>1944.4</ele>
        <time>2016-10-30T09:54:51Z</time>
      </trkpt>
      <trkpt lat="42.81671" lon="1.41591">
        <ele>1944.4</ele>
        <time>2016-10-30T09:55:11Z</time>
      </trkpt>
      <trkpt lat="42.81671" lon="1.4159">
        <ele>1944.4</ele>
        <time>2016-10-30T09:55:37Z</time>
      </trkpt>
      <trkpt lat="42.81671" lon="1.4159">
        <ele>1944.88</ele>
        <time>2016-10-30T09:56:05Z</time>
      </trkpt>
      <trkpt lat="42.81673" lon="1.41589">
        <ele>1944.88</ele>
        <time>2016-10-30T09:56:21Z</time>
      </trkpt>
      <trkpt lat="42.81679" lon="1.41582">
        <ele>1944.88</ele>
        <time>2016-10-30T09:56:29Z</time>
      </trkpt>
      <trkpt lat="42.8168" lon="1.41577">
        <ele>1944.88</ele>
        <time>2016-10-30T09:56:33Z</time>
      </trkpt>
      <trkpt lat="42.81686" lon="1.41571">
        <ele>1944.88</ele>
        <time>2016-10-30T09:56:40Z</time>
      </trkpt>
      <trkpt lat="42.81691" lon="1.41564">
        <ele>1944.88</ele>
        <time>2016-10-30T09:56:47Z</time>
      </trkpt>
      <trkpt lat="42.81696" lon="1.41558">
        <ele>1945.36</ele>
        <time>2016-10-30T09:56:54Z</time>
      </trkpt>
      <trkpt lat="42.81697" lon="1.41554">
        <ele>1945.36</ele>
        <time>2016-10-30T09:56:57Z</time>
      </trkpt>
      <trkpt lat="42.81708" lon="1.41546">
        <ele>1945.36</ele>
        <time>2016-10-30T09:57:08Z</time>
      </trkpt>
      <trkpt lat="42.81712" lon="1.41544">
        <ele>1945.36</ele>
        <time>2016-10-30T09:57:12Z</time>
      </trkpt>
      <trkpt lat="42.8172" lon="1.41535">
        <ele>1945.36</ele>
        <time>2016-10-30T09:57:23Z</time>
      </trkpt>
      <trkpt lat="42.81721" lon="1.41534">
        <ele>1945.36</ele>
        <time>2016-10-30T09:57:24Z</time>
      </trkpt>
      <trkpt lat="42.81724" lon="1.41534">
        <ele>1945.36</ele>
        <time>2016-10-30T09:57:27Z</time>
      </trkpt>
      <trkpt lat="42.81731" lon="1.41528">
        <ele>1945.36</ele>
        <time>2016-10-30T09:57:34Z</time>
      </trkpt>
      <trkpt lat="42.81733" lon="1.41529">
        <ele>1945.36</ele>
        <time>2016-10-30T09:57:36Z</time>
      </trkpt>
      <trkpt lat="42.81742" lon="1.41524">
        <ele>1945.36</ele>
        <time>2016-10-30T09:57:46Z</time>
      </trkpt>
      <trkpt lat="42.81754" lon="1.41517">
        <ele>1946.81</ele>
        <time>2016-10-30T09:57:59Z</time>
      </trkpt>
      <trkpt lat="42.81763" lon="1.41515">
        <ele>1948.25</ele>
        <time>2016-10-30T09:58:10Z</time>
      </trkpt>
      <trkpt lat="42.81772" lon="1.41512">
        <ele>1949.21</ele>
        <time>2016-10-30T09:58:20Z</time>
      </trkpt>
      <trkpt lat="42.81775" lon="1.41511">
        <ele>1951.13</ele>
        <time>2016-10-30T09:58:25Z</time>
      </trkpt>
      <trkpt lat="42.8178" lon="1.4151">
        <ele>1954.5</ele>
        <time>2016-10-30T09:58:31Z</time>
      </trkpt>
      <trkpt lat="42.81791" lon="1.41508">
        <ele>1955.46</ele>
        <time>2016-10-30T09:58:43Z</time>
      </trkpt>
      <trkpt lat="42.81797" lon="1.41505">
        <ele>1955.94</ele>
        <time>2016-10-30T09:58:52Z</time>
      </trkpt>
      <trkpt lat="42.81805" lon="1.41513">
        <ele>1957.38</ele>
        <time>2016-10-30T09:59:06Z</time>
      </trkpt>
      <trkpt lat="42.81807" lon="1.41515">
        <ele>1957.38</ele>
        <time>2016-10-30T09:59:11Z</time>
      </trkpt>
      <trkpt lat="42.81813" lon="1.41519">
        <ele>1957.38</ele>
        <time>2016-10-30T09:59:21Z</time>
      </trkpt>
      <trkpt lat="42.8182" lon="1.41521">
        <ele>1957.38</ele>
        <time>2016-10-30T09:59:30Z</time>
      </trkpt>
      <trkpt lat="42.81824" lon="1.41525">
        <ele>1957.38</ele>
        <time>2016-10-30T09:59:35Z</time>
      </trkpt>
      <trkpt lat="42.81831" lon="1.4153">
        <ele>1957.86</ele>
        <time>2016-10-30T09:59:48Z</time>
      </trkpt>
      <trkpt lat="42.81833" lon="1.41533">
        <ele>1958.34</ele>
        <time>2016-10-30T09:59:53Z</time>
      </trkpt>
      <trkpt lat="42.81843" lon="1.41537">
        <ele>1959.78</ele>
        <time>2016-10-30T10:00:07Z</time>
      </trkpt>
      <trkpt lat="42.81848" lon="1.41541">
        <ele>1959.78</ele>
        <time>2016-10-30T10:00:16Z</time>
      </trkpt>
      <trkpt lat="42.81849" lon="1.41543">
        <ele>1959.78</ele>
        <time>2016-10-30T10:00:19Z</time>
      </trkpt>
      <trkpt lat="42.81857" lon="1.41546">
        <ele>1958.82</ele>
        <time>2016-10-30T10:00:28Z</time>
      </trkpt>
      <trkpt lat="42.81868" lon="1.41546">
        <ele>1958.82</ele>
        <time>2016-10-30T10:00:40Z</time>
      </trkpt>
      <trkpt lat="42.8187" lon="1.41546">
        <ele>1958.82</ele>
        <time>2016-10-30T10:00:44Z</time>
      </trkpt>
      <trkpt lat="42.81872" lon="1.41546">
        <ele>1958.82</ele>
        <time>2016-10-30T10:00:48Z</time>
      </trkpt>
      <trkpt lat="42.81875" lon="1.41546">
        <ele>1958.82</ele>
        <time>2016-10-30T10:00:51Z</time>
      </trkpt>
      <trkpt lat="42.81879" lon="1.41551">
        <ele>1957.86</ele>
        <time>2016-10-30T10:00:58Z</time>
      </trkpt>
      <trkpt lat="42.81883" lon="1.41552">
        <ele>1956.9</ele>
        <time>2016-10-30T10:01:03Z</time>
      </trkpt>
      <trkpt lat="42.81885" lon="1.41554">
        <ele>1956.42</ele>
        <time>2016-10-30T10:01:06Z</time>
      </trkpt>
      <trkpt lat="42.81894" lon="1.41561">
        <ele>1954.98</ele>
        <time>2016-10-30T10:01:20Z</time>
      </trkpt>
      <trkpt lat="42.81905" lon="1.41568">
        <ele>1952.57</ele>
        <time>2016-10-30T10:01:34Z</time>
      </trkpt>
      <trkpt lat="42.81913" lon="1.41573">
        <ele>1951.13</ele>
        <time>2016-10-30T10:01:44Z</time>
      </trkpt>
      <trkpt lat="42.8192" lon="1.41578">
        <ele>1947.77</ele>
        <time>2016-10-30T10:01:53Z</time>
      </trkpt>
      <trkpt lat="42.81925" lon="1.4158">
        <ele>1944.4</ele>
        <time>2016-10-30T10:01:59Z</time>
      </trkpt>
      <trkpt lat="42.81928" lon="1.41584">
        <ele>1944.4</ele>
        <time>2016-10-30T10:02:03Z</time>
      </trkpt>
      <trkpt lat="42.81931" lon="1.41586">
        <ele>1944.4</ele>
        <time>2016-10-30T10:02:06Z</time>
      </trkpt>
      <trkpt lat="42.81938" lon="1.4159">
        <ele>1944.4</ele>
        <time>2016-10-30T10:02:15Z</time>
      </trkpt>
      <trkpt lat="42.81941" lon="1.4159">
        <ele>1946.33</ele>
        <time>2016-10-30T10:02:28Z</time>
      </trkpt>
      <trkpt lat="42.81942" lon="1.41587">
        <ele>1947.29</ele>
        <time>2016-10-30T10:02:38Z</time>
      </trkpt>
      <trkpt lat="42.81946" lon="1.41588">
        <ele>1949.21</ele>
        <time>2016-10-30T10:02:48Z</time>
      </trkpt>
      <trkpt lat="42.8195" lon="1.41586">
        <ele>1952.09</ele>
        <time>2016-10-30T10:02:56Z</time>
      </trkpt>
      <trkpt lat="42.81953" lon="1.41588">
        <ele>1954.98</ele>
        <time>2016-10-30T10:03:02Z</time>
      </trkpt>
      <trkpt lat="42.81957" lon="1.41593">
        <ele>1954.98</ele>
        <time>2016-10-30T10:03:14Z</time>
      </trkpt>
      <trkpt lat="42.81958" lon="1.41594">
        <ele>1954.98</ele>
        <time>2016-10-30T10:03:18Z</time>
      </trkpt>
      <trkpt lat="42.81961" lon="1.41603">
        <ele>1955.46</ele>
        <time>2016-10-30T10:03:30Z</time>
      </trkpt>
      <trkpt lat="42.81962" lon="1.41606">
        <ele>1956.42</ele>
        <time>2016-10-30T10:03:33Z</time>
      </trkpt>
      <trkpt lat="42.81967" lon="1.41611">
        <ele>1957.38</ele>
        <time>2016-10-30T10:03:43Z</time>
      </trkpt>
      <trkpt lat="42.81973" lon="1.41618">
        <ele>1959.78</ele>
        <time>2016-10-30T10:03:55Z</time>
      </trkpt>
      <trkpt lat="42.81978" lon="1.41624">
        <ele>1962.19</ele>
        <time>2016-10-30T10:04:08Z</time>
      </trkpt>
      <trkpt lat="42.81981" lon="1.41631">
        <ele>1965.07</ele>
        <time>2016-10-30T10:04:21Z</time>
      </trkpt>
      <trkpt lat="42.81978" lon="1.4163">
        <ele>1965.55</ele>
        <time>2016-10-30T10:04:31Z</time>
      </trkpt>
      <trkpt lat="42.81978" lon="1.41631">
        <ele>1966.51</ele>
        <time>2016-10-30T10:04:55Z</time>
      </trkpt>
      <trkpt lat="42.81977" lon="1.41631">
        <ele>1966.51</ele>
        <time>2016-10-30T10:05:14Z</time>
      </trkpt>
      <trkpt lat="42.81977" lon="1.41631">
        <ele>1966.51</ele>
        <time>2016-10-30T10:05:43Z</time>
      </trkpt>
      <trkpt lat="42.81983" lon="1.41633">
        <ele>1966.51</ele>
        <time>2016-10-30T10:05:59Z</time>
      </trkpt>
      <trkpt lat="42.8199" lon="1.41638">
        <ele>1967.48</ele>
        <time>2016-10-30T10:06:09Z</time>
      </trkpt>
      <trkpt lat="42.8199" lon="1.4164">
        <ele>1967.48</ele>
        <time>2016-10-30T10:06:11Z</time>
      </trkpt>
      <trkpt lat="42.81999" lon="1.4165">
        <ele>1969.88</ele>
        <time>2016-10-30T10:06:25Z</time>
      </trkpt>
      <trkpt lat="42.82001" lon="1.41652">
        <ele>1970.84</ele>
        <time>2016-10-30T10:06:30Z</time>
      </trkpt>
      <trkpt lat="42.82006" lon="1.41656">
        <ele>1974.2</ele>
        <time>2016-10-30T10:06:40Z</time>
      </trkpt>
      <trkpt lat="42.82008" lon="1.41659">
        <ele>1977.57</ele>
        <time>2016-10-30T10:06:45Z</time>
      </trkpt>
      <trkpt lat="42.82005" lon="1.41663">
        <ele>1979.49</ele>
        <time>2016-10-30T10:06:54Z</time>
      </trkpt>
      <trkpt lat="42.82004" lon="1.41665">
        <ele>1979.49</ele>
        <time>2016-10-30T10:07:00Z</time>
      </trkpt>
      <trkpt lat="42.82004" lon="1.41674">
        <ele>1980.93</ele>
        <time>2016-10-30T10:07:13Z</time>
      </trkpt>
      <trkpt lat="42.82007" lon="1.41675">
        <ele>1982.38</ele>
        <time>2016-10-30T10:07:21Z</time>
      </trkpt>
      <trkpt lat="42.82011" lon="1.41681">
        <ele>1984.3</ele>
        <time>2016-10-30T10:07:34Z</time>
      </trkpt>
      <trkpt lat="42.82012" lon="1.41687">
        <ele>1986.22</ele>
        <time>2016-10-30T10:07:44Z</time>
      </trkpt>
      <trkpt lat="42.82015" lon="1.41689">
        <ele>1987.18</ele>
        <time>2016-10-30T10:07:50Z</time>
      </trkpt>
      <trkpt lat="42.82019" lon="1.41696">
        <ele>1989.59</ele>
        <time>2016-10-30T10:08:02Z</time>
      </trkpt>
      <trkpt lat="42.82019" lon="1.417">
        <ele>1992.95</ele>
        <time>2016-10-30T10:08:10Z</time>
      </trkpt>
      <trkpt lat="42.82017" lon="1.417">
        <ele>1996.32</ele>
        <time>2016-10-30T10:08:15Z</time>
      </trkpt>
      <trkpt lat="42.82016" lon="1.417">
        <ele>1994.87</ele>
        <time>2016-10-30T10:08:33Z</time>
      </trkpt>
      <trkpt lat="42.82016" lon="1.41701">
        <ele>1994.39</ele>
        <time>2016-10-30T10:09:03Z</time>
      </trkpt>
      <trkpt lat="42.82015" lon="1.417">
        <ele>1994.39</ele>
        <time>2016-10-30T10:09:27Z</time>
      </trkpt>
      <trkpt lat="42.82015" lon="1.41701">
        <ele>1994.39</ele>
        <time>2016-10-30T10:09:52Z</time>
      </trkpt>
      <trkpt lat="42.82015" lon="1.41701">
        <ele>1994.39</ele>
        <time>2016-10-30T10:10:12Z</time>
      </trkpt>
      <trkpt lat="42.82015" lon="1.41701">
        <ele>1994.39</ele>
        <time>2016-10-30T10:10:40Z</time>
      </trkpt>
      <trkpt lat="42.82015" lon="1.41701">
        <ele>1994.39</ele>
        <time>2016-10-30T10:11:12Z</time>
      </trkpt>
      <trkpt lat="42.82015" lon="1.41701">
        <ele>1994.39</ele>
        <time>2016-10-30T10:11:35Z</time>
      </trkpt>
      <trkpt lat="42.82024" lon="1.41704">
        <ele>1994.39</ele>
        <time>2016-10-30T10:11:47Z</time>
      </trkpt>
      <trkpt lat="42.82032" lon="1.41711">
        <ele>1994.39</ele>
        <time>2016-10-30T10:11:56Z</time>
      </trkpt>
      <trkpt lat="42.82036" lon="1.41716">
        <ele>1994.39</ele>
        <time>2016-10-30T10:12:02Z</time>
      </trkpt>
      <trkpt lat="42.82043" lon="1.41729">
        <ele>1994.87</ele>
        <time>2016-10-30T10:12:15Z</time>
      </trkpt>
      <trkpt lat="42.82054" lon="1.41735">
        <ele>1994.39</ele>
        <time>2016-10-30T10:12:26Z</time>
      </trkpt>
      <trkpt lat="42.82058" lon="1.41737">
        <ele>1994.39</ele>
        <time>2016-10-30T10:12:30Z</time>
      </trkpt>
      <trkpt lat="42.82064" lon="1.41745">
        <ele>1994.39</ele>
        <time>2016-10-30T10:12:40Z</time>
      </trkpt>
      <trkpt lat="42.82065" lon="1.41746">
        <ele>1994.39</ele>
        <time>2016-10-30T10:12:42Z</time>
      </trkpt>
      <trkpt lat="42.82072" lon="1.41748">
        <ele>1995.35</ele>
        <time>2016-10-30T10:12:52Z</time>
      </trkpt>
      <trkpt lat="42.82076" lon="1.4175">
        <ele>1995.83</ele>
        <time>2016-10-30T10:12:56Z</time>
      </trkpt>
      <trkpt lat="42.82086" lon="1.4176">
        <ele>1996.8</ele>
        <time>2016-10-30T10:13:08Z</time>
      </trkpt>
      <trkpt lat="42.82095" lon="1.41766">
        <ele>1998.72</ele>
        <time>2016-10-30T10:13:20Z</time>
      </trkpt>
      <trkpt lat="42.82102" lon="1.41775">
        <ele>2000.16</ele>
        <time>2016-10-30T10:13:31Z</time>
      </trkpt>
      <trkpt lat="42.82103" lon="1.41777">
        <ele>2000.16</ele>
        <time>2016-10-30T10:13:33Z</time>
      </trkpt>
      <trkpt lat="42.82105" lon="1.41783">
        <ele>2001.6</ele>
        <time>2016-10-30T10:13:47Z</time>
      </trkpt>
      <trkpt lat="42.82105" lon="1.41783">
        <ele>2002.08</ele>
        <time>2016-10-30T10:14:07Z</time>
      </trkpt>
      <trkpt lat="42.82104" lon="1.41782">
        <ele>2002.08</ele>
        <time>2016-10-30T10:14:28Z</time>
      </trkpt>
      <trkpt lat="42.82105" lon="1.41783">
        <ele>2002.08</ele>
        <time>2016-10-30T10:14:47Z</time>
      </trkpt>
      <trkpt lat="42.82105" lon="1.41785">
        <ele>2002.08</ele>
        <time>2016-10-30T10:14:50Z</time>
      </trkpt>
      <trkpt lat="42.82108" lon="1.41788">
        <ele>2002.08</ele>
        <time>2016-10-30T10:14:53Z</time>
      </trkpt>
      <trkpt lat="42.82111" lon="1.41792">
        <ele>2002.08</ele>
        <time>2016-10-30T10:14:57Z</time>
      </trkpt>
      <trkpt lat="42.82115" lon="1.41793">
        <ele>2002.08</ele>
        <time>2016-10-30T10:15:01Z</time>
      </trkpt>
      <trkpt lat="42.82117" lon="1.41796">
        <ele>2000.64</ele>
        <time>2016-10-30T10:15:04Z</time>
      </trkpt>
      <trkpt lat="42.82121" lon="1.41798">
        <ele>2000.16</ele>
        <time>2016-10-30T10:15:08Z</time>
      </trkpt>
      <trkpt lat="42.82125" lon="1.41806">
        <ele>1999.2</ele>
        <time>2016-10-30T10:15:16Z</time>
      </trkpt>
      <trkpt lat="42.82133" lon="1.41815">
        <ele>1995.35</ele>
        <time>2016-10-30T10:15:28Z</time>
      </trkpt>
      <trkpt lat="42.82135" lon="1.41818">
        <ele>1991.99</ele>
        <time>2016-10-30T10:15:33Z</time>
      </trkpt>
      <trkpt lat="42.82135" lon="1.41819">
        <ele>1991.99</ele>
        <time>2016-10-30T10:15:34Z</time>
      </trkpt>
      <trkpt lat="42.82138" lon="1.41823">
        <ele>1991.03</ele>
        <time>2016-10-30T10:15:38Z</time>
      </trkpt>
      <trkpt lat="42.82142" lon="1.41827">
        <ele>1991.03</ele>
        <time>2016-10-30T10:15:42Z</time>
      </trkpt>
      <trkpt lat="42.82143" lon="1.4183">
        <ele>1991.03</ele>
        <time>2016-10-30T10:15:44Z</time>
      </trkpt>
      <trkpt lat="42.82148" lon="1.41835">
        <ele>1989.59</ele>
        <time>2016-10-30T10:15:52Z</time>
      </trkpt>
      <trkpt lat="42.82151" lon="1.41834">
        <ele>1989.1</ele>
        <time>2016-10-30T10:15:55Z</time>
      </trkpt>
      <trkpt lat="42.82159" lon="1.41838">
        <ele>1985.26</ele>
        <time>2016-10-30T10:16:05Z</time>
      </trkpt>
      <trkpt lat="42.82159" lon="1.41839">
        <ele>1984.78</ele>
        <time>2016-10-30T10:16:06Z</time>
      </trkpt>
      <trkpt lat="42.82162" lon="1.41845">
        <ele>1982.38</ele>
        <time>2016-10-30T10:16:11Z</time>
      </trkpt>
      <trkpt lat="42.82166" lon="1.41848">
        <ele>1981.9</ele>
        <time>2016-10-30T10:16:21Z</time>
      </trkpt>
      <trkpt lat="42.82173" lon="1.41855">
        <ele>1980.45</ele>
        <time>2016-10-30T10:16:33Z</time>
      </trkpt>
      <trkpt lat="42.82174" lon="1.41857">
        <ele>1980.45</ele>
        <time>2016-10-30T10:16:34Z</time>
      </trkpt>
      <trkpt lat="42.82182" lon="1.41866">
        <ele>1978.53</ele>
        <time>2016-10-30T10:16:46Z</time>
      </trkpt>
      <trkpt lat="42.82183" lon="1.41867">
        <ele>1977.57</ele>
        <time>2016-10-30T10:16:48Z</time>
      </trkpt>
      <trkpt lat="42.82187" lon="1.41874">
        <ele>1976.61</ele>
        <time>2016-10-30T10:16:56Z</time>
      </trkpt>
      <trkpt lat="42.82193" lon="1.41881">
        <ele>1975.17</ele>
        <time>2016-10-30T10:17:05Z</time>
      </trkpt>
      <trkpt lat="42.82199" lon="1.4189">
        <ele>1972.28</ele>
        <time>2016-10-30T10:17:18Z</time>
      </trkpt>
      <trkpt lat="42.82207" lon="1.41895">
        <ele>1969.88</ele>
        <time>2016-10-30T10:17:31Z</time>
      </trkpt>
      <trkpt lat="42.82213" lon="1.41899">
        <ele>1966.03</ele>
        <time>2016-10-30T10:17:39Z</time>
      </trkpt>
      <trkpt lat="42.82215" lon="1.41901">
        <ele>1962.67</ele>
        <time>2016-10-30T10:17:43Z</time>
      </trkpt>
      <trkpt lat="42.82216" lon="1.41901">
        <ele>1962.19</ele>
        <time>2016-10-30T10:17:45Z</time>
      </trkpt>
      <trkpt lat="42.82224" lon="1.41904">
        <ele>1962.19</ele>
        <time>2016-10-30T10:17:55Z</time>
      </trkpt>
      <trkpt lat="42.82234" lon="1.41914">
        <ele>1960.75</ele>
        <time>2016-10-30T10:18:08Z</time>
      </trkpt>
      <trkpt lat="42.82235" lon="1.41914">
        <ele>1960.75</ele>
        <time>2016-10-30T10:18:09Z</time>
      </trkpt>
      <trkpt lat="42.82238" lon="1.41916">
        <ele>1959.78</ele>
        <time>2016-10-30T10:18:12Z</time>
      </trkpt>
      <trkpt lat="42.82252" lon="1.41928">
        <ele>1958.82</ele>
        <time>2016-10-30T10:18:28Z</time>
      </trkpt>
      <trkpt lat="42.82255" lon="1.4193">
        <ele>1958.34</ele>
        <time>2016-10-30T10:18:32Z</time>
      </trkpt>
      <trkpt lat="42.82267" lon="1.41931">
        <ele>1957.86</ele>
        <time>2016-10-30T10:18:44Z</time>
      </trkpt>
      <trkpt lat="42.82271" lon="1.41933">
        <ele>1957.38</ele>
        <time>2016-10-30T10:18:56Z</time>
      </trkpt>
      <trkpt lat="42.82276" lon="1.41935">
        <ele>1957.38</ele>
        <time>2016-10-30T10:19:01Z</time>
      </trkpt>
      <trkpt lat="42.82291" lon="1.41939">
        <ele>1957.38</ele>
        <time>2016-10-30T10:19:14Z</time>
      </trkpt>
      <trkpt lat="42.82292" lon="1.41939">
        <ele>1957.38</ele>
        <time>2016-10-30T10:19:15Z</time>
      </trkpt>
      <trkpt lat="42.82302" lon="1.41944">
        <ele>1957.38</ele>
        <time>2016-10-30T10:19:26Z</time>
      </trkpt>
      <trkpt lat="42.82308" lon="1.41946">
        <ele>1958.82</ele>
        <time>2016-10-30T10:19:34Z</time>
      </trkpt>
      <trkpt lat="42.8231" lon="1.41948">
        <ele>1958.82</ele>
        <time>2016-10-30T10:19:36Z</time>
      </trkpt>
      <trkpt lat="42.8232" lon="1.41953">
        <ele>1960.27</ele>
        <time>2016-10-30T10:19:48Z</time>
      </trkpt>
      <trkpt lat="42.82331" lon="1.41958">
        <ele>1962.19</ele>
        <time>2016-10-30T10:20:00Z</time>
      </trkpt>
      <trkpt lat="42.82341" lon="1.41962">
        <ele>1962.67</ele>
        <time>2016-10-30T10:20:11Z</time>
      </trkpt>
      <trkpt lat="42.82352" lon="1.41968">
        <ele>1963.15</ele>
        <time>2016-10-30T10:20:24Z</time>
      </trkpt>
      <trkpt lat="42.82356" lon="1.41969">
        <ele>1963.15</ele>
        <time>2016-10-30T10:20:28Z</time>
      </trkpt>
      <trkpt lat="42.82358" lon="1.4197">
        <ele>1963.15</ele>
        <time>2016-10-30T10:20:30Z</time>
      </trkpt>
      <trkpt lat="42.82359" lon="1.41971">
        <ele>1963.15</ele>
        <time>2016-10-30T10:20:32Z</time>
      </trkpt>
      <trkpt lat="42.82361" lon="1.41972">
        <ele>1963.63</ele>
        <time>2016-10-30T10:20:34Z</time>
      </trkpt>
      <trkpt lat="42.82363" lon="1.41973">
        <ele>1963.63</ele>
        <time>2016-10-30T10:20:36Z</time>
      </trkpt>
      <trkpt lat="42.82365" lon="1.41975">
        <ele>1963.63</ele>
        <time>2016-10-30T10:20:38Z</time>
      </trkpt>
      <trkpt lat="42.82367" lon="1.41976">
        <ele>1963.63</ele>
        <time>2016-10-30T10:20:40Z</time>
      </trkpt>
      <trkpt lat="42.82368" lon="1.41977">
        <ele>1963.63</ele>
        <time>2016-10-30T10:20:42Z</time>
      </trkpt>
      <trkpt lat="42.82372" lon="1.41979">
        <ele>1963.63</ele>
        <time>2016-10-30T10:20:46Z</time>
      </trkpt>
      <trkpt lat="42.82375" lon="1.4198">
        <ele>1963.63</ele>
        <time>2016-10-30T10:20:49Z</time>
      </trkpt>
      <trkpt lat="42.82377" lon="1.41981">
        <ele>1964.11</ele>
        <time>2016-10-30T10:20:51Z</time>
      </trkpt>
      <trkpt lat="42.82382" lon="1.41985">
        <ele>1964.11</ele>
        <time>2016-10-30T10:20:56Z</time>
      </trkpt>
      <trkpt lat="42.82383" lon="1.41988">
        <ele>1964.59</ele>
        <time>2016-10-30T10:20:59Z</time>
      </trkpt>
      <trkpt lat="42.82388" lon="1.41993">
        <ele>1965.07</ele>
        <time>2016-10-30T10:21:05Z</time>
      </trkpt>
      <trkpt lat="42.8239" lon="1.41997">
        <ele>1965.55</ele>
        <time>2016-10-30T10:21:10Z</time>
      </trkpt>
      <trkpt lat="42.82396" lon="1.42002">
        <ele>1966.99</ele>
        <time>2016-10-30T10:21:19Z</time>
      </trkpt>
      <trkpt lat="42.82398" lon="1.42005">
        <ele>1966.99</ele>
        <time>2016-10-30T10:21:22Z</time>
      </trkpt>
      <trkpt lat="42.82403" lon="1.42016">
        <ele>1969.4</ele>
        <time>2016-10-30T10:21:34Z</time>
      </trkpt>
      <trkpt lat="42.8241" lon="1.42022">
        <ele>1970.84</ele>
        <time>2016-10-30T10:21:46Z</time>
      </trkpt>
      <trkpt lat="42.82413" lon="1.42024">
        <ele>1971.32</ele>
        <time>2016-10-30T10:21:50Z</time>
      </trkpt>
      <trkpt lat="42.82419" lon="1.42027">
        <ele>1972.28</ele>
        <time>2016-10-30T10:21:57Z</time>
      </trkpt>
      <trkpt lat="42.82426" lon="1.42038">
        <ele>1974.2</ele>
        <time>2016-10-30T10:22:10Z</time>
      </trkpt>
      <trkpt lat="42.82429" lon="1.42043">
        <ele>1975.17</ele>
        <time>2016-10-30T10:22:17Z</time>
      </trkpt>
      <trkpt lat="42.82433" lon="1.42048">
        <ele>1976.61</ele>
        <time>2016-10-30T10:22:24Z</time>
      </trkpt>
      <trkpt lat="42.82438" lon="1.42057">
        <ele>1978.53</ele>
        <time>2016-10-30T10:22:36Z</time>
      </trkpt>
      <trkpt lat="42.82441" lon="1.42066">
        <ele>1979.97</ele>
        <time>2016-10-30T10:22:46Z</time>
      </trkpt>
      <trkpt lat="42.82446" lon="1.42077">
        <ele>1981.9</ele>
        <time>2016-10-30T10:22:59Z</time>
      </trkpt>
      <trkpt lat="42.82452" lon="1.42082">
        <ele>1983.82</ele>
        <time>2016-10-30T10:23:09Z</time>
      </trkpt>
      <trkpt lat="42.82458" lon="1.42093">
        <ele>1985.74</ele>
        <time>2016-10-30T10:23:22Z</time>
      </trkpt>
      <trkpt lat="42.82462" lon="1.42098">
        <ele>1986.7</ele>
        <time>2016-10-30T10:23:29Z</time>
      </trkpt>
      <trkpt lat="42.82469" lon="1.42107">
        <ele>1990.07</ele>
        <time>2016-10-30T10:23:43Z</time>
      </trkpt>
      <trkpt lat="42.82472" lon="1.42113">
        <ele>1991.03</ele>
        <time>2016-10-30T10:23:50Z</time>
      </trkpt>
      <trkpt lat="42.82477" lon="1.42123">
        <ele>1992.95</ele>
        <time>2016-10-30T10:24:02Z</time>
      </trkpt>
      <trkpt lat="42.82482" lon="1.42129">
        <ele>1994.87</ele>
        <time>2016-10-30T10:24:13Z</time>
      </trkpt>
      <trkpt lat="42.82487" lon="1.42138">
        <ele>1997.28</ele>
        <time>2016-10-30T10:24:24Z</time>
      </trkpt>
      <trkpt lat="42.82491" lon="1.42149">
        <ele>1998.72</ele>
        <time>2016-10-30T10:24:35Z</time>
      </trkpt>
      <trkpt lat="42.82496" lon="1.42161">
        <ele>2000.64</ele>
        <time>2016-10-30T10:24:46Z</time>
      </trkpt>
      <trkpt lat="42.82496" lon="1.42163">
        <ele>2000.64</ele>
        <time>2016-10-30T10:24:48Z</time>
      </trkpt>
      <trkpt lat="42.82496" lon="1.42167">
        <ele>2001.12</ele>
        <time>2016-10-30T10:24:51Z</time>
      </trkpt>
      <trkpt lat="42.82497" lon="1.42174">
        <ele>2001.6</ele>
        <time>2016-10-30T10:24:56Z</time>
      </trkpt>
      <trkpt lat="42.82497" lon="1.42177">
        <ele>2002.08</ele>
        <time>2016-10-30T10:24:58Z</time>
      </trkpt>
      <trkpt lat="42.82499" lon="1.42181">
        <ele>2002.56</ele>
        <time>2016-10-30T10:25:01Z</time>
      </trkpt>
      <trkpt lat="42.82503" lon="1.42191">
        <ele>2002.56</ele>
        <time>2016-10-30T10:25:08Z</time>
      </trkpt>
      <trkpt lat="42.82505" lon="1.42196">
        <ele>2003.52</ele>
        <time>2016-10-30T10:25:12Z</time>
      </trkpt>
      <trkpt lat="42.82512" lon="1.42213">
        <ele>2004.01</ele>
        <time>2016-10-30T10:25:24Z</time>
      </trkpt>
      <trkpt lat="42.82512" lon="1.42216">
        <ele>2004.01</ele>
        <time>2016-10-30T10:25:26Z</time>
      </trkpt>
      <trkpt lat="42.82517" lon="1.42227">
        <ele>2005.93</ele>
        <time>2016-10-30T10:25:38Z</time>
      </trkpt>
      <trkpt lat="42.8252" lon="1.42239">
        <ele>2008.33</ele>
        <time>2016-10-30T10:25:50Z</time>
      </trkpt>
      <trkpt lat="42.82523" lon="1.42247">
        <ele>2010.25</ele>
        <time>2016-10-30T10:25:58Z</time>
      </trkpt>
      <trkpt lat="42.82527" lon="1.42257">
        <ele>2012.18</ele>
        <time>2016-10-30T10:26:09Z</time>
      </trkpt>
      <trkpt lat="42.82529" lon="1.42261">
        <ele>2013.14</ele>
        <time>2016-10-30T10:26:14Z</time>
      </trkpt>
      <trkpt lat="42.82532" lon="1.42268">
        <ele>2016.02</ele>
        <time>2016-10-30T10:26:20Z</time>
      </trkpt>
      <trkpt lat="42.82538" lon="1.42281">
        <ele>2016.5</ele>
        <time>2016-10-30T10:26:32Z</time>
      </trkpt>
      <trkpt lat="42.82539" lon="1.42283">
        <ele>2016.5</ele>
        <time>2016-10-30T10:26:34Z</time>
      </trkpt>
      <trkpt lat="42.82544" lon="1.42289">
        <ele>2016.98</ele>
        <time>2016-10-30T10:26:41Z</time>
      </trkpt>
      <trkpt lat="42.82548" lon="1.42297">
        <ele>2017.94</ele>
        <time>2016-10-30T10:26:49Z</time>
      </trkpt>
      <trkpt lat="42.82551" lon="1.42306">
        <ele>2019.39</ele>
        <time>2016-10-30T10:26:58Z</time>
      </trkpt>
      <trkpt lat="42.82553" lon="1.42312">
        <ele>2020.35</ele>
        <time>2016-10-30T10:27:03Z</time>
      </trkpt>
      <trkpt lat="42.82556" lon="1.42317">
        <ele>2020.83</ele>
        <time>2016-10-30T10:27:09Z</time>
      </trkpt>
      <trkpt lat="42.82557" lon="1.42331">
        <ele>2022.27</ele>
        <time>2016-10-30T10:27:21Z</time>
      </trkpt>
      <trkpt lat="42.82563" lon="1.42339">
        <ele>2023.71</ele>
        <time>2016-10-30T10:27:32Z</time>
      </trkpt>
      <trkpt lat="42.82564" lon="1.42342">
        <ele>2024.19</ele>
        <time>2016-10-30T10:27:35Z</time>
      </trkpt>
      <trkpt lat="42.82566" lon="1.4235">
        <ele>2025.15</ele>
        <time>2016-10-30T10:27:42Z</time>
      </trkpt>
      <trkpt lat="42.8257" lon="1.42358">
        <ele>2026.12</ele>
        <time>2016-10-30T10:27:50Z</time>
      </trkpt>
      <trkpt lat="42.82574" lon="1.42364">
        <ele>2027.56</ele>
        <time>2016-10-30T10:27:57Z</time>
      </trkpt>
      <trkpt lat="42.82574" lon="1.42368">
        <ele>2028.04</ele>
        <time>2016-10-30T10:28:01Z</time>
      </trkpt>
      <trkpt lat="42.82573" lon="1.42373">
        <ele>2029</ele>
        <time>2016-10-30T10:28:08Z</time>
      </trkpt>
      <trkpt lat="42.82576" lon="1.42382">
        <ele>2031.88</ele>
        <time>2016-10-30T10:28:19Z</time>
      </trkpt>
      <trkpt lat="42.82574" lon="1.42385">
        <ele>2035.25</ele>
        <time>2016-10-30T10:28:24Z</time>
      </trkpt>
      <trkpt lat="42.82572" lon="1.42386">
        <ele>2036.69</ele>
        <time>2016-10-30T10:28:40Z</time>
      </trkpt>
      <trkpt lat="42.82572" lon="1.42386">
        <ele>2036.69</ele>
        <time>2016-10-30T10:28:51Z</time>
      </trkpt>
      <trkpt lat="42.82571" lon="1.42386">
        <ele>2036.69</ele>
        <time>2016-10-30T10:29:05Z</time>
      </trkpt>
      <trkpt lat="42.82571" lon="1.42386">
        <ele>2036.69</ele>
        <time>2016-10-30T10:29:24Z</time>
      </trkpt>
      <trkpt lat="42.82571" lon="1.42386">
        <ele>2036.69</ele>
        <time>2016-10-30T10:29:40Z</time>
      </trkpt>
      <trkpt lat="42.82572" lon="1.42386">
        <ele>2036.69</ele>
        <time>2016-10-30T10:29:54Z</time>
      </trkpt>
      <trkpt lat="42.82572" lon="1.42386">
        <ele>2036.69</ele>
        <time>2016-10-30T10:30:21Z</time>
      </trkpt>
      <trkpt lat="42.82572" lon="1.42386">
        <ele>2036.69</ele>
        <time>2016-10-30T10:30:36Z</time>
      </trkpt>
      <trkpt lat="42.82572" lon="1.42385">
        <ele>2036.69</ele>
        <time>2016-10-30T10:31:04Z</time>
      </trkpt>
      <trkpt lat="42.82572" lon="1.42385">
        <ele>2036.69</ele>
        <time>2016-10-30T10:31:31Z</time>
      </trkpt>
      <trkpt lat="42.82573" lon="1.42385">
        <ele>2035.73</ele>
        <time>2016-10-30T10:31:53Z</time>
      </trkpt>
      <trkpt lat="42.82572" lon="1.42385">
        <ele>2035.73</ele>
        <time>2016-10-30T10:32:12Z</time>
      </trkpt>
      <trkpt lat="42.82572" lon="1.42385">
        <ele>2036.21</ele>
        <time>2016-10-30T10:32:45Z</time>
      </trkpt>
      <trkpt lat="42.82572" lon="1.42385">
        <ele>2036.21</ele>
        <time>2016-10-30T10:33:18Z</time>
      </trkpt>
      <trkpt lat="42.82573" lon="1.42385">
        <ele>2036.21</ele>
        <time>2016-10-30T10:33:50Z</time>
      </trkpt>
      <trkpt lat="42.82573" lon="1.42385">
        <ele>2036.21</ele>
        <time>2016-10-30T10:34:16Z</time>
      </trkpt>
      <trkpt lat="42.82573" lon="1.42385">
        <ele>2036.21</ele>
        <time>2016-10-30T10:34:43Z</time>
      </trkpt>
      <trkpt lat="42.82573" lon="1.42386">
        <ele>2036.21</ele>
        <time>2016-10-30T10:35:03Z</time>
      </trkpt>
      <trkpt lat="42.82573" lon="1.42385">
        <ele>2036.21</ele>
        <time>2016-10-30T10:35:27Z</time>
      </trkpt>
      <trkpt lat="42.82572" lon="1.42386">
        <ele>2036.21</ele>
        <time>2016-10-30T10:35:53Z</time>
      </trkpt>
      <trkpt lat="42.82575" lon="1.42391">
        <ele>2036.21</ele>
        <time>2016-10-30T10:36:10Z</time>
      </trkpt>
      <trkpt lat="42.82577" lon="1.42397">
        <ele>2036.21</ele>
        <time>2016-10-30T10:36:21Z</time>
      </trkpt>
      <trkpt lat="42.82579" lon="1.42402">
        <ele>2036.69</ele>
        <time>2016-10-30T10:36:30Z</time>
      </trkpt>
      <trkpt lat="42.82579" lon="1.42414">
        <ele>2036.21</ele>
        <time>2016-10-30T10:36:44Z</time>
      </trkpt>
      <trkpt lat="42.82579" lon="1.42417">
        <ele>2034.77</ele>
        <time>2016-10-30T10:36:47Z</time>
      </trkpt>
      <trkpt lat="42.82578" lon="1.42429">
        <ele>2032.84</ele>
        <time>2016-10-30T10:37:00Z</time>
      </trkpt>
      <trkpt lat="42.82578" lon="1.42432">
        <ele>2032.84</ele>
        <time>2016-10-30T10:37:03Z</time>
      </trkpt>
      <trkpt lat="42.82581" lon="1.42442">
        <ele>2031.4</ele>
        <time>2016-10-30T10:37:16Z</time>
      </trkpt>
      <trkpt lat="42.82581" lon="1.42458">
        <ele>2029.48</ele>
        <time>2016-10-30T10:37:27Z</time>
      </trkpt>
      <trkpt lat="42.82584" lon="1.42469">
        <ele>2027.08</ele>
        <time>2016-10-30T10:37:33Z</time>
      </trkpt>
      <trkpt lat="42.82584" lon="1.42475">
        <ele>2022.75</ele>
        <time>2016-10-30T10:37:39Z</time>
      </trkpt>
      <trkpt lat="42.82585" lon="1.42476">
        <ele>2024.19</ele>
        <time>2016-10-30T10:37:53Z</time>
      </trkpt>
      <trkpt lat="42.82584" lon="1.42476">
        <ele>2024.67</ele>
        <time>2016-10-30T10:38:14Z</time>
      </trkpt>
      <trkpt lat="42.82587" lon="1.42479">
        <ele>2024.67</ele>
        <time>2016-10-30T10:38:18Z</time>
      </trkpt>
      <trkpt lat="42.82591" lon="1.42486">
        <ele>2025.15</ele>
        <time>2016-10-30T10:38:27Z</time>
      </trkpt>
      <trkpt lat="42.82592" lon="1.4249">
        <ele>2025.15</ele>
        <time>2016-10-30T10:38:32Z</time>
      </trkpt>
      <trkpt lat="42.82593" lon="1.42492">
        <ele>2025.64</ele>
        <time>2016-10-30T10:38:42Z</time>
      </trkpt>
      <trkpt lat="42.82594" lon="1.42495">
        <ele>2026.6</ele>
        <time>2016-10-30T10:39:03Z</time>
      </trkpt>
      <trkpt lat="42.82594" lon="1.42495">
        <ele>2026.6</ele>
        <time>2016-10-30T10:39:05Z</time>
      </trkpt>
      <trkpt lat="42.82597" lon="1.42498">
        <ele>2027.08</ele>
        <time>2016-10-30T10:39:11Z</time>
      </trkpt>
      <trkpt lat="42.82602" lon="1.42508">
        <ele>2027.56</ele>
        <time>2016-10-30T10:39:23Z</time>
      </trkpt>
      <trkpt lat="42.82606" lon="1.42514">
        <ele>2029</ele>
        <time>2016-10-30T10:39:35Z</time>
      </trkpt>
      <trkpt lat="42.82608" lon="1.42517">
        <ele>2031.4</ele>
        <time>2016-10-30T10:39:50Z</time>
      </trkpt>
      <trkpt lat="42.82608" lon="1.42518">
        <ele>2031.4</ele>
        <time>2016-10-30T10:40:03Z</time>
      </trkpt>
      <trkpt lat="42.82608" lon="1.42518">
        <ele>2031.4</ele>
        <time>2016-10-30T10:40:21Z</time>
      </trkpt>
      <trkpt lat="42.82608" lon="1.42518">
        <ele>2031.4</ele>
        <time>2016-10-30T10:40:48Z</time>
      </trkpt>
      <trkpt lat="42.82609" lon="1.42521">
        <ele>2031.4</ele>
        <time>2016-10-30T10:41:12Z</time>
      </trkpt>
      <trkpt lat="42.8261" lon="1.42522">
        <ele>2031.4</ele>
        <time>2016-10-30T10:41:36Z</time>
      </trkpt>
      <trkpt lat="42.82614" lon="1.42529">
        <ele>2031.4</ele>
        <time>2016-10-30T10:41:48Z</time>
      </trkpt>
      <trkpt lat="42.82616" lon="1.42531">
        <ele>2031.88</ele>
        <time>2016-10-30T10:42:05Z</time>
      </trkpt>
      <trkpt lat="42.82616" lon="1.42533">
        <ele>2032.84</ele>
        <time>2016-10-30T10:42:18Z</time>
      </trkpt>
      <trkpt lat="42.82616" lon="1.42534">
        <ele>2033.81</ele>
        <time>2016-10-30T10:42:43Z</time>
      </trkpt>
      <trkpt lat="42.82615" lon="1.42533">
        <ele>2033.81</ele>
        <time>2016-10-30T10:43:20Z</time>
      </trkpt>
      <trkpt lat="42.82616" lon="1.42534">
        <ele>2034.29</ele>
        <time>2016-10-30T10:43:54Z</time>
      </trkpt>
      <trkpt lat="42.82617" lon="1.42536">
        <ele>2034.29</ele>
        <time>2016-10-30T10:43:58Z</time>
      </trkpt>
      <trkpt lat="42.82623" lon="1.42546">
        <ele>2034.29</ele>
        <time>2016-10-30T10:44:08Z</time>
      </trkpt>
      <trkpt lat="42.82626" lon="1.42549">
        <ele>2034.29</ele>
        <time>2016-10-30T10:44:12Z</time>
      </trkpt>
      <trkpt lat="42.82636" lon="1.42572">
        <ele>2030.92</ele>
        <time>2016-10-30T10:44:29Z</time>
      </trkpt>
      <trkpt lat="42.82638" lon="1.42581">
        <ele>2030.44</ele>
        <time>2016-10-30T10:44:35Z</time>
      </trkpt>
      <trkpt lat="42.82647" lon="1.42593">
        <ele>2029.96</ele>
        <time>2016-10-30T10:44:47Z</time>
      </trkpt>
      <trkpt lat="42.82652" lon="1.42605">
        <ele>2029.96</ele>
        <time>2016-10-30T10:44:58Z</time>
      </trkpt>
      <trkpt lat="42.82653" lon="1.42608">
        <ele>2029.96</ele>
        <time>2016-10-30T10:45:00Z</time>
      </trkpt>
      <trkpt lat="42.82655" lon="1.42612">
        <ele>2030.92</ele>
        <time>2016-10-30T10:45:05Z</time>
      </trkpt>
      <trkpt lat="42.82656" lon="1.42614">
        <ele>2031.4</ele>
        <time>2016-10-30T10:45:07Z</time>
      </trkpt>
      <trkpt lat="42.82662" lon="1.42623">
        <ele>2032.84</ele>
        <time>2016-10-30T10:45:16Z</time>
      </trkpt>
      <trkpt lat="42.82669" lon="1.42639">
        <ele>2033.81</ele>
        <time>2016-10-30T10:45:29Z</time>
      </trkpt>
      <trkpt lat="42.82671" lon="1.42642">
        <ele>2034.29</ele>
        <time>2016-10-30T10:45:32Z</time>
      </trkpt>
      <trkpt lat="42.82677" lon="1.42656">
        <ele>2034.29</ele>
        <time>2016-10-30T10:45:44Z</time>
      </trkpt>
      <trkpt lat="42.8268" lon="1.42661">
        <ele>2034.29</ele>
        <time>2016-10-30T10:45:48Z</time>
      </trkpt>
      <trkpt lat="42.82681" lon="1.42665">
        <ele>2034.29</ele>
        <time>2016-10-30T10:45:51Z</time>
      </trkpt>
      <trkpt lat="42.82682" lon="1.42671">
        <ele>2034.29</ele>
        <time>2016-10-30T10:45:56Z</time>
      </trkpt>
      <trkpt lat="42.82683" lon="1.42674">
        <ele>2034.29</ele>
        <time>2016-10-30T10:45:58Z</time>
      </trkpt>
      <trkpt lat="42.82686" lon="1.42687">
        <ele>2034.29</ele>
        <time>2016-10-30T10:46:08Z</time>
      </trkpt>
      <trkpt lat="42.82687" lon="1.42689">
        <ele>2034.29</ele>
        <time>2016-10-30T10:46:10Z</time>
      </trkpt>
      <trkpt lat="42.82692" lon="1.42707">
        <ele>2032.84</ele>
        <time>2016-10-30T10:46:22Z</time>
      </trkpt>
      <trkpt lat="42.82694" lon="1.4272">
        <ele>2031.88</ele>
        <time>2016-10-30T10:46:31Z</time>
      </trkpt>
      <trkpt lat="42.82696" lon="1.42723">
        <ele>2031.88</ele>
        <time>2016-10-30T10:46:34Z</time>
      </trkpt>
      <trkpt lat="42.82695" lon="1.42738">
        <ele>2029.96</ele>
        <time>2016-10-30T10:46:45Z</time>
      </trkpt>
      <trkpt lat="42.82696" lon="1.42749">
        <ele>2029.48</ele>
        <time>2016-10-30T10:46:53Z</time>
      </trkpt>
      <trkpt lat="42.82696" lon="1.42755">
        <ele>2029</ele>
        <time>2016-10-30T10:46:58Z</time>
      </trkpt>
      <trkpt lat="42.82698" lon="1.42776">
        <ele>2028.52</ele>
        <time>2016-10-30T10:47:12Z</time>
      </trkpt>
      <trkpt lat="42.827" lon="1.42793">
        <ele>2028.04</ele>
        <time>2016-10-30T10:47:25Z</time>
      </trkpt>
      <trkpt lat="42.82703" lon="1.42806">
        <ele>2027.56</ele>
        <time>2016-10-30T10:47:38Z</time>
      </trkpt>
      <trkpt lat="42.82705" lon="1.42811">
        <ele>2027.56</ele>
        <time>2016-10-30T10:47:42Z</time>
      </trkpt>
      <trkpt lat="42.82707" lon="1.42816">
        <ele>2027.56</ele>
        <time>2016-10-30T10:47:46Z</time>
      </trkpt>
      <trkpt lat="42.82712" lon="1.42825">
        <ele>2027.56</ele>
        <time>2016-10-30T10:47:53Z</time>
      </trkpt>
      <trkpt lat="42.82713" lon="1.42828">
        <ele>2027.56</ele>
        <time>2016-10-30T10:47:55Z</time>
      </trkpt>
      <trkpt lat="42.82716" lon="1.42831">
        <ele>2027.56</ele>
        <time>2016-10-30T10:47:58Z</time>
      </trkpt>
      <trkpt lat="42.8272" lon="1.42838">
        <ele>2027.56</ele>
        <time>2016-10-30T10:48:03Z</time>
      </trkpt>
      <trkpt lat="42.8272" lon="1.4284">
        <ele>2027.56</ele>
        <time>2016-10-30T10:48:05Z</time>
      </trkpt>
      <trkpt lat="42.82723" lon="1.42843">
        <ele>2027.56</ele>
        <time>2016-10-30T10:48:08Z</time>
      </trkpt>
      <trkpt lat="42.82728" lon="1.42854">
        <ele>2029</ele>
        <time>2016-10-30T10:48:19Z</time>
      </trkpt>
      <trkpt lat="42.8273" lon="1.42855">
        <ele>2029.48</ele>
        <time>2016-10-30T10:48:21Z</time>
      </trkpt>
      <trkpt lat="42.82735" lon="1.42866">
        <ele>2030.92</ele>
        <time>2016-10-30T10:48:32Z</time>
      </trkpt>
      <trkpt lat="42.82738" lon="1.42875">
        <ele>2032.84</ele>
        <time>2016-10-30T10:48:43Z</time>
      </trkpt>
      <trkpt lat="42.8274" lon="1.4288">
        <ele>2033.81</ele>
        <time>2016-10-30T10:48:55Z</time>
      </trkpt>
      <trkpt lat="42.82743" lon="1.42884">
        <ele>2034.77</ele>
        <time>2016-10-30T10:49:04Z</time>
      </trkpt>
      <trkpt lat="42.82745" lon="1.42886">
        <ele>2034.77</ele>
        <time>2016-10-30T10:49:06Z</time>
      </trkpt>
      <trkpt lat="42.82749" lon="1.42894">
        <ele>2034.77</ele>
        <time>2016-10-30T10:49:13Z</time>
      </trkpt>
      <trkpt lat="42.82749" lon="1.42906">
        <ele>2035.25</ele>
        <time>2016-10-30T10:49:25Z</time>
      </trkpt>
      <trkpt lat="42.82752" lon="1.42911">
        <ele>2036.69</ele>
        <time>2016-10-30T10:49:33Z</time>
      </trkpt>
      <trkpt lat="42.8276" lon="1.42918">
        <ele>2037.65</ele>
        <time>2016-10-30T10:49:45Z</time>
      </trkpt>
      <trkpt lat="42.82761" lon="1.4292">
        <ele>2038.13</ele>
        <time>2016-10-30T10:49:48Z</time>
      </trkpt>
      <trkpt lat="42.82763" lon="1.42922">
        <ele>2038.13</ele>
        <time>2016-10-30T10:49:51Z</time>
      </trkpt>
      <trkpt lat="42.82765" lon="1.42922">
        <ele>2038.13</ele>
        <time>2016-10-30T10:49:55Z</time>
      </trkpt>
      <trkpt lat="42.82771" lon="1.42924">
        <ele>2038.13</ele>
        <time>2016-10-30T10:50:05Z</time>
      </trkpt>
      <trkpt lat="42.82773" lon="1.42926">
        <ele>2038.13</ele>
        <time>2016-10-30T10:50:10Z</time>
      </trkpt>
      <trkpt lat="42.82774" lon="1.42929">
        <ele>2036.69</ele>
        <time>2016-10-30T10:50:12Z</time>
      </trkpt>
      <trkpt lat="42.82782" lon="1.42935">
        <ele>2036.69</ele>
        <time>2016-10-30T10:50:22Z</time>
      </trkpt>
      <trkpt lat="42.82783" lon="1.42937">
        <ele>2036.21</ele>
        <time>2016-10-30T10:50:26Z</time>
      </trkpt>
      <trkpt lat="42.82791" lon="1.42944">
        <ele>2035.73</ele>
        <time>2016-10-30T10:50:37Z</time>
      </trkpt>
      <trkpt lat="42.82793" lon="1.42946">
        <ele>2034.77</ele>
        <time>2016-10-30T10:50:40Z</time>
      </trkpt>
      <trkpt lat="42.82798" lon="1.42953">
        <ele>2034.29</ele>
        <time>2016-10-30T10:50:51Z</time>
      </trkpt>
      <trkpt lat="42.82799" lon="1.42955">
        <ele>2033.81</ele>
        <time>2016-10-30T10:50:53Z</time>
      </trkpt>
      <trkpt lat="42.82804" lon="1.42963">
        <ele>2032.84</ele>
        <time>2016-10-30T10:51:04Z</time>
      </trkpt>
      <trkpt lat="42.82806" lon="1.42965">
        <ele>2031.88</ele>
        <time>2016-10-30T10:51:16Z</time>
      </trkpt>
      <trkpt lat="42.82809" lon="1.42968">
        <ele>2030.92</ele>
        <time>2016-10-30T10:51:30Z</time>
      </trkpt>
      <trkpt lat="42.82812" lon="1.42971">
        <ele>2029.48</ele>
        <time>2016-10-30T10:51:37Z</time>
      </trkpt>
      <trkpt lat="42.82815" lon="1.42975">
        <ele>2028.52</ele>
        <time>2016-10-30T10:51:48Z</time>
      </trkpt>
      <trkpt lat="42.82817" lon="1.42975">
        <ele>2027.56</ele>
        <time>2016-10-30T10:52:03Z</time>
      </trkpt>
      <trkpt lat="42.82817" lon="1.42974">
        <ele>2027.08</ele>
        <time>2016-10-30T10:52:08Z</time>
      </trkpt>
      <trkpt lat="42.82823" lon="1.4298">
        <ele>2026.6</ele>
        <time>2016-10-30T10:52:17Z</time>
      </trkpt>
      <trkpt lat="42.82824" lon="1.42982">
        <ele>2026.6</ele>
        <time>2016-10-30T10:52:20Z</time>
      </trkpt>
      <trkpt lat="42.82829" lon="1.42988">
        <ele>2026.12</ele>
        <time>2016-10-30T10:52:32Z</time>
      </trkpt>
      <trkpt lat="42.82833" lon="1.42997">
        <ele>2025.64</ele>
        <time>2016-10-30T10:52:43Z</time>
      </trkpt>
      <trkpt lat="42.82833" lon="1.42997">
        <ele>2025.64</ele>
        <time>2016-10-30T10:52:44Z</time>
      </trkpt>
      <trkpt lat="42.82839" lon="1.43011">
        <ele>2025.15</ele>
        <time>2016-10-30T10:52:56Z</time>
      </trkpt>
      <trkpt lat="42.82843" lon="1.43015">
        <ele>2025.15</ele>
        <time>2016-10-30T10:53:05Z</time>
      </trkpt>
      <trkpt lat="42.82843" lon="1.43016">
        <ele>2025.15</ele>
        <time>2016-10-30T10:53:07Z</time>
      </trkpt>
      <trkpt lat="42.82846" lon="1.43022">
        <ele>2024.19</ele>
        <time>2016-10-30T10:53:15Z</time>
      </trkpt>
      <trkpt lat="42.82851" lon="1.43031">
        <ele>2024.19</ele>
        <time>2016-10-30T10:53:24Z</time>
      </trkpt>
      <trkpt lat="42.82854" lon="1.4304">
        <ele>2023.71</ele>
        <time>2016-10-30T10:53:35Z</time>
      </trkpt>
      <trkpt lat="42.82855" lon="1.43042">
        <ele>2023.71</ele>
        <time>2016-10-30T10:53:38Z</time>
      </trkpt>
      <trkpt lat="42.82857" lon="1.43051">
        <ele>2026.12</ele>
        <time>2016-10-30T10:53:50Z</time>
      </trkpt>
      <trkpt lat="42.82854" lon="1.43054">
        <ele>2027.56</ele>
        <time>2016-10-30T10:54:00Z</time>
      </trkpt>
      <trkpt lat="42.82851" lon="1.43055">
        <ele>2029</ele>
        <time>2016-10-30T10:54:11Z</time>
      </trkpt>
      <trkpt lat="42.82854" lon="1.43061">
        <ele>2030.44</ele>
        <time>2016-10-30T10:54:26Z</time>
      </trkpt>
      <trkpt lat="42.82854" lon="1.43061">
        <ele>2030.92</ele>
        <time>2016-10-30T10:54:27Z</time>
      </trkpt>
      <trkpt lat="42.82856" lon="1.43065">
        <ele>2031.4</ele>
        <time>2016-10-30T10:54:31Z</time>
      </trkpt>
      <trkpt lat="42.82858" lon="1.43068">
        <ele>2031.4</ele>
        <time>2016-10-30T10:54:34Z</time>
      </trkpt>
      <trkpt lat="42.8286" lon="1.4307">
        <ele>2031.88</ele>
        <time>2016-10-30T10:54:37Z</time>
      </trkpt>
      <trkpt lat="42.82864" lon="1.43081">
        <ele>2033.33</ele>
        <time>2016-10-30T10:54:49Z</time>
      </trkpt>
      <trkpt lat="42.82866" lon="1.43084">
        <ele>2033.81</ele>
        <time>2016-10-30T10:54:52Z</time>
      </trkpt>
      <trkpt lat="42.82868" lon="1.43086">
        <ele>2033.81</ele>
        <time>2016-10-30T10:54:55Z</time>
      </trkpt>
      <trkpt lat="42.82869" lon="1.43091">
        <ele>2035.25</ele>
        <time>2016-10-30T10:55:00Z</time>
      </trkpt>
      <trkpt lat="42.82874" lon="1.431">
        <ele>2036.69</ele>
        <time>2016-10-30T10:55:14Z</time>
      </trkpt>
      <trkpt lat="42.82877" lon="1.43106">
        <ele>2038.13</ele>
        <time>2016-10-30T10:55:25Z</time>
      </trkpt>
      <trkpt lat="42.82881" lon="1.43114">
        <ele>2040.54</ele>
        <time>2016-10-30T10:55:37Z</time>
      </trkpt>
      <trkpt lat="42.82882" lon="1.43118">
        <ele>2041.02</ele>
        <time>2016-10-30T10:55:41Z</time>
      </trkpt>
      <trkpt lat="42.82881" lon="1.4312">
        <ele>2042.46</ele>
        <time>2016-10-30T10:55:57Z</time>
      </trkpt>
      <trkpt lat="42.82882" lon="1.43124">
        <ele>2042.94</ele>
        <time>2016-10-30T10:56:18Z</time>
      </trkpt>
      <trkpt lat="42.82886" lon="1.43132">
        <ele>2044.38</ele>
        <time>2016-10-30T10:56:28Z</time>
      </trkpt>
      <trkpt lat="42.82887" lon="1.43134">
        <ele>2044.38</ele>
        <time>2016-10-30T10:56:30Z</time>
      </trkpt>
      <trkpt lat="42.82889" lon="1.43142">
        <ele>2044.86</ele>
        <time>2016-10-30T10:56:36Z</time>
      </trkpt>
      <trkpt lat="42.8289" lon="1.43144">
        <ele>2045.34</ele>
        <time>2016-10-30T10:56:38Z</time>
      </trkpt>
      <trkpt lat="42.82891" lon="1.43147">
        <ele>2045.34</ele>
        <time>2016-10-30T10:56:41Z</time>
      </trkpt>
      <trkpt lat="42.82892" lon="1.43152">
        <ele>2045.82</ele>
        <time>2016-10-30T10:56:45Z</time>
      </trkpt>
      <trkpt lat="42.82895" lon="1.43162">
        <ele>2046.78</ele>
        <time>2016-10-30T10:56:55Z</time>
      </trkpt>
      <trkpt lat="42.82895" lon="1.43165">
        <ele>2047.26</ele>
        <time>2016-10-30T10:56:57Z</time>
      </trkpt>
      <trkpt lat="42.82897" lon="1.43175">
        <ele>2049.19</ele>
        <time>2016-10-30T10:57:09Z</time>
      </trkpt>
      <trkpt lat="42.82898" lon="1.4318">
        <ele>2050.15</ele>
        <time>2016-10-30T10:57:15Z</time>
      </trkpt>
      <trkpt lat="42.82897" lon="1.43189">
        <ele>2052.55</ele>
        <time>2016-10-30T10:57:27Z</time>
      </trkpt>
      <trkpt lat="42.82897" lon="1.432">
        <ele>2053.99</ele>
        <time>2016-10-30T10:57:39Z</time>
      </trkpt>
      <trkpt lat="42.82896" lon="1.43206">
        <ele>2055.92</ele>
        <time>2016-10-30T10:57:50Z</time>
      </trkpt>
      <trkpt lat="42.82894" lon="1.4321">
        <ele>2056.4</ele>
        <time>2016-10-30T10:58:11Z</time>
      </trkpt>
      <trkpt lat="42.82895" lon="1.43212">
        <ele>2056.4</ele>
        <time>2016-10-30T10:58:13Z</time>
      </trkpt>
      <trkpt lat="42.82895" lon="1.43225">
        <ele>2056.4</ele>
        <time>2016-10-30T10:58:24Z</time>
      </trkpt>
      <trkpt lat="42.82893" lon="1.43232">
        <ele>2056.4</ele>
        <time>2016-10-30T10:58:36Z</time>
      </trkpt>
      <trkpt lat="42.8289" lon="1.43242">
        <ele>2056.4</ele>
        <time>2016-10-30T10:58:49Z</time>
      </trkpt>
      <trkpt lat="42.82891" lon="1.43243">
        <ele>2055.44</ele>
        <time>2016-10-30T10:59:13Z</time>
      </trkpt>
      <trkpt lat="42.82891" lon="1.43244">
        <ele>2055.44</ele>
        <time>2016-10-30T10:59:21Z</time>
      </trkpt>
      <trkpt lat="42.82891" lon="1.43249">
        <ele>2054.96</ele>
        <time>2016-10-30T10:59:31Z</time>
      </trkpt>
      <trkpt lat="42.8289" lon="1.43257">
        <ele>2053.03</ele>
        <time>2016-10-30T10:59:42Z</time>
      </trkpt>
      <trkpt lat="42.82889" lon="1.43267">
        <ele>2048.71</ele>
        <time>2016-10-30T10:59:49Z</time>
      </trkpt>
      <trkpt lat="42.82889" lon="1.43268">
        <ele>2048.23</ele>
        <time>2016-10-30T10:59:50Z</time>
      </trkpt>
      <trkpt lat="42.82896" lon="1.43286">
        <ele>2047.75</ele>
        <time>2016-10-30T11:00:04Z</time>
      </trkpt>
      <trkpt lat="42.829" lon="1.43293">
        <ele>2047.75</ele>
        <time>2016-10-30T11:00:12Z</time>
      </trkpt>
      <trkpt lat="42.82902" lon="1.433">
        <ele>2047.75</ele>
        <time>2016-10-30T11:00:18Z</time>
      </trkpt>
      <trkpt lat="42.82907" lon="1.4331">
        <ele>2047.75</ele>
        <time>2016-10-30T11:00:30Z</time>
      </trkpt>
      <trkpt lat="42.82906" lon="1.43312">
        <ele>2047.75</ele>
        <time>2016-10-30T11:00:35Z</time>
      </trkpt>
      <trkpt lat="42.82907" lon="1.43317">
        <ele>2047.75</ele>
        <time>2016-10-30T11:00:39Z</time>
      </trkpt>
      <trkpt lat="42.82908" lon="1.43327">
        <ele>2047.75</ele>
        <time>2016-10-30T11:00:46Z</time>
      </trkpt>
      <trkpt lat="42.8291" lon="1.43335">
        <ele>2046.78</ele>
        <time>2016-10-30T11:01:00Z</time>
      </trkpt>
      <trkpt lat="42.82913" lon="1.43338">
        <ele>2046.78</ele>
        <time>2016-10-30T11:01:09Z</time>
      </trkpt>
      <trkpt lat="42.82915" lon="1.43349">
        <ele>2044.86</ele>
        <time>2016-10-30T11:01:17Z</time>
      </trkpt>
      <trkpt lat="42.82918" lon="1.43353">
        <ele>2044.38</ele>
        <time>2016-10-30T11:01:21Z</time>
      </trkpt>
      <trkpt lat="42.8292" lon="1.43359">
        <ele>2043.9</ele>
        <time>2016-10-30T11:01:25Z</time>
      </trkpt>
      <trkpt lat="42.82928" lon="1.43367">
        <ele>2042.94</ele>
        <time>2016-10-30T11:01:36Z</time>
      </trkpt>
      <trkpt lat="42.82929" lon="1.43369">
        <ele>2042.46</ele>
        <time>2016-10-30T11:01:38Z</time>
      </trkpt>
      <trkpt lat="42.82929" lon="1.43373">
        <ele>2042.46</ele>
        <time>2016-10-30T11:01:41Z</time>
      </trkpt>
      <trkpt lat="42.82931" lon="1.43374">
        <ele>2041.98</ele>
        <time>2016-10-30T11:01:44Z</time>
      </trkpt>
      <trkpt lat="42.82931" lon="1.43376">
        <ele>2041.98</ele>
        <time>2016-10-30T11:01:47Z</time>
      </trkpt>
      <trkpt lat="42.82933" lon="1.43383">
        <ele>2041.02</ele>
        <time>2016-10-30T11:01:55Z</time>
      </trkpt>
      <trkpt lat="42.82928" lon="1.43395">
        <ele>2040.05</ele>
        <time>2016-10-30T11:02:06Z</time>
      </trkpt>
      <trkpt lat="42.8293" lon="1.434">
        <ele>2040.05</ele>
        <time>2016-10-30T11:02:21Z</time>
      </trkpt>
      <trkpt lat="42.82936" lon="1.43412">
        <ele>2040.05</ele>
        <time>2016-10-30T11:02:31Z</time>
      </trkpt>
      <trkpt lat="42.82936" lon="1.43415">
        <ele>2040.05</ele>
        <time>2016-10-30T11:02:33Z</time>
      </trkpt>
      <trkpt lat="42.82937" lon="1.43418">
        <ele>2040.05</ele>
        <time>2016-10-30T11:02:36Z</time>
      </trkpt>
      <trkpt lat="42.82937" lon="1.43421">
        <ele>2040.05</ele>
        <time>2016-10-30T11:02:38Z</time>
      </trkpt>
      <trkpt lat="42.82936" lon="1.43431">
        <ele>2040.05</ele>
        <time>2016-10-30T11:02:46Z</time>
      </trkpt>
      <trkpt lat="42.82938" lon="1.43436">
        <ele>2040.05</ele>
        <time>2016-10-30T11:02:51Z</time>
      </trkpt>
      <trkpt lat="42.8294" lon="1.43439">
        <ele>2041.02</ele>
        <time>2016-10-30T11:02:57Z</time>
      </trkpt>
      <trkpt lat="42.82943" lon="1.43445">
        <ele>2041.02</ele>
        <time>2016-10-30T11:03:02Z</time>
      </trkpt>
      <trkpt lat="42.82945" lon="1.43447">
        <ele>2041.98</ele>
        <time>2016-10-30T11:03:05Z</time>
      </trkpt>
      <trkpt lat="42.82943" lon="1.43454">
        <ele>2042.94</ele>
        <time>2016-10-30T11:03:18Z</time>
      </trkpt>
      <trkpt lat="42.82943" lon="1.43453">
        <ele>2042.94</ele>
        <time>2016-10-30T11:03:35Z</time>
      </trkpt>
      <trkpt lat="42.82942" lon="1.43453">
        <ele>2043.42</ele>
        <time>2016-10-30T11:03:57Z</time>
      </trkpt>
      <trkpt lat="42.82943" lon="1.43452">
        <ele>2043.42</ele>
        <time>2016-10-30T11:04:15Z</time>
      </trkpt>
      <trkpt lat="42.82945" lon="1.43453">
        <ele>2043.42</ele>
        <time>2016-10-30T11:04:19Z</time>
      </trkpt>
      <trkpt lat="42.82948" lon="1.43458">
        <ele>2043.42</ele>
        <time>2016-10-30T11:04:27Z</time>
      </trkpt>
      <trkpt lat="42.8295" lon="1.43462">
        <ele>2045.82</ele>
        <time>2016-10-30T11:04:38Z</time>
      </trkpt>
      <trkpt lat="42.82952" lon="1.43465">
        <ele>2046.78</ele>
        <time>2016-10-30T11:04:50Z</time>
      </trkpt>
      <trkpt lat="42.82953" lon="1.43467">
        <ele>2047.75</ele>
        <time>2016-10-30T11:05:04Z</time>
      </trkpt>
      <trkpt lat="42.82957" lon="1.4347">
        <ele>2049.19</ele>
        <time>2016-10-30T11:05:14Z</time>
      </trkpt>
      <trkpt lat="42.82958" lon="1.43478">
        <ele>2051.11</ele>
        <time>2016-10-30T11:05:28Z</time>
      </trkpt>
      <trkpt lat="42.82959" lon="1.43484">
        <ele>2054.47</ele>
        <time>2016-10-30T11:05:40Z</time>
      </trkpt>
      <trkpt lat="42.82961" lon="1.43486">
        <ele>2057.84</ele>
        <time>2016-10-30T11:05:45Z</time>
      </trkpt>
      <trkpt lat="42.82965" lon="1.43486">
        <ele>2059.28</ele>
        <time>2016-10-30T11:05:57Z</time>
      </trkpt>
      <trkpt lat="42.82964" lon="1.43488">
        <ele>2059.76</ele>
        <time>2016-10-30T11:06:06Z</time>
      </trkpt>
      <trkpt lat="42.82965" lon="1.4349">
        <ele>2060.72</ele>
        <time>2016-10-30T11:06:20Z</time>
      </trkpt>
      <trkpt lat="42.82968" lon="1.43491">
        <ele>2062.65</ele>
        <time>2016-10-30T11:06:31Z</time>
      </trkpt>
      <trkpt lat="42.82966" lon="1.43491">
        <ele>2063.61</ele>
        <time>2016-10-30T11:06:42Z</time>
      </trkpt>
      <trkpt lat="42.82966" lon="1.43492">
        <ele>2064.09</ele>
        <time>2016-10-30T11:06:56Z</time>
      </trkpt>
      <trkpt lat="42.82966" lon="1.43493">
        <ele>2064.57</ele>
        <time>2016-10-30T11:07:07Z</time>
      </trkpt>
      <trkpt lat="42.82965" lon="1.43498">
        <ele>2065.53</ele>
        <time>2016-10-30T11:07:19Z</time>
      </trkpt>
      <trkpt lat="42.82964" lon="1.43503">
        <ele>2067.45</ele>
        <time>2016-10-30T11:07:28Z</time>
      </trkpt>
      <trkpt lat="42.82968" lon="1.43508">
        <ele>2068.89</ele>
        <time>2016-10-30T11:07:39Z</time>
      </trkpt>
      <trkpt lat="42.82966" lon="1.43515">
        <ele>2070.82</ele>
        <time>2016-10-30T11:07:49Z</time>
      </trkpt>
      <trkpt lat="42.82967" lon="1.43518">
        <ele>2071.78</ele>
        <time>2016-10-30T11:08:05Z</time>
      </trkpt>
      <trkpt lat="42.82961" lon="1.43522">
        <ele>2072.26</ele>
        <time>2016-10-30T11:08:11Z</time>
      </trkpt>
      <trkpt lat="42.82958" lon="1.43526">
        <ele>2072.26</ele>
        <time>2016-10-30T11:08:16Z</time>
      </trkpt>
      <trkpt lat="42.82954" lon="1.43533">
        <ele>2073.22</ele>
        <time>2016-10-30T11:08:28Z</time>
      </trkpt>
      <trkpt lat="42.82952" lon="1.4354">
        <ele>2075.14</ele>
        <time>2016-10-30T11:08:39Z</time>
      </trkpt>
      <trkpt lat="42.82956" lon="1.43546">
        <ele>2076.59</ele>
        <time>2016-10-30T11:08:50Z</time>
      </trkpt>
      <trkpt lat="42.82956" lon="1.4355">
        <ele>2079.95</ele>
        <time>2016-10-30T11:09:01Z</time>
      </trkpt>
      <trkpt lat="42.82957" lon="1.43551">
        <ele>2083.31</ele>
        <time>2016-10-30T11:09:09Z</time>
      </trkpt>
      <trkpt lat="42.82959" lon="1.43553">
        <ele>2083.31</ele>
        <time>2016-10-30T11:09:18Z</time>
      </trkpt>
      <trkpt lat="42.8296" lon="1.43556">
        <ele>2083.31</ele>
        <time>2016-10-30T11:09:33Z</time>
      </trkpt>
      <trkpt lat="42.82959" lon="1.43555">
        <ele>2083.79</ele>
        <time>2016-10-30T11:09:53Z</time>
      </trkpt>
      <trkpt lat="42.82959" lon="1.43556">
        <ele>2083.79</ele>
        <time>2016-10-30T11:10:17Z</time>
      </trkpt>
      <trkpt lat="42.8296" lon="1.43558">
        <ele>2084.28</ele>
        <time>2016-10-30T11:10:28Z</time>
      </trkpt>
      <trkpt lat="42.8296" lon="1.43561">
        <ele>2086.2</ele>
        <time>2016-10-30T11:10:38Z</time>
      </trkpt>
      <trkpt lat="42.82959" lon="1.43561">
        <ele>2086.68</ele>
        <time>2016-10-30T11:10:57Z</time>
      </trkpt>
      <trkpt lat="42.82955" lon="1.43561">
        <ele>2087.16</ele>
        <time>2016-10-30T11:11:05Z</time>
      </trkpt>
      <trkpt lat="42.82951" lon="1.43562">
        <ele>2087.16</ele>
        <time>2016-10-30T11:11:09Z</time>
      </trkpt>
      <trkpt lat="42.8295" lon="1.43564">
        <ele>2087.64</ele>
        <time>2016-10-30T11:11:12Z</time>
      </trkpt>
      <trkpt lat="42.82949" lon="1.43566">
        <ele>2087.64</ele>
        <time>2016-10-30T11:11:15Z</time>
      </trkpt>
      <trkpt lat="42.82949" lon="1.43568">
        <ele>2088.12</ele>
        <time>2016-10-30T11:11:21Z</time>
      </trkpt>
      <trkpt lat="42.82947" lon="1.4357">
        <ele>2088.12</ele>
        <time>2016-10-30T11:11:23Z</time>
      </trkpt>
      <trkpt lat="42.82947" lon="1.43576">
        <ele>2089.08</ele>
        <time>2016-10-30T11:11:35Z</time>
      </trkpt>
      <trkpt lat="42.82946" lon="1.43579">
        <ele>2090.52</ele>
        <time>2016-10-30T11:11:39Z</time>
      </trkpt>
      <trkpt lat="42.82945" lon="1.43587">
        <ele>2091.97</ele>
        <time>2016-10-30T11:11:50Z</time>
      </trkpt>
      <trkpt lat="42.82946" lon="1.43594">
        <ele>2092.93</ele>
        <time>2016-10-30T11:12:05Z</time>
      </trkpt>
      <trkpt lat="42.82946" lon="1.43601">
        <ele>2093.89</ele>
        <time>2016-10-30T11:12:16Z</time>
      </trkpt>
      <trkpt lat="42.82944" lon="1.43607">
        <ele>2095.81</ele>
        <time>2016-10-30T11:12:30Z</time>
      </trkpt>
      <trkpt lat="42.82945" lon="1.43608">
        <ele>2097.25</ele>
        <time>2016-10-30T11:12:46Z</time>
      </trkpt>
      <trkpt lat="42.82948" lon="1.43607">
        <ele>2098.7</ele>
        <time>2016-10-30T11:12:57Z</time>
      </trkpt>
      <trkpt lat="42.82951" lon="1.43605">
        <ele>2100.62</ele>
        <time>2016-10-30T11:13:08Z</time>
      </trkpt>
      <trkpt lat="42.82953" lon="1.43604">
        <ele>2101.58</ele>
        <time>2016-10-30T11:13:20Z</time>
      </trkpt>
      <trkpt lat="42.82952" lon="1.43604">
        <ele>2102.54</ele>
        <time>2016-10-30T11:13:33Z</time>
      </trkpt>
      <trkpt lat="42.82955" lon="1.43605">
        <ele>2103.5</ele>
        <time>2016-10-30T11:13:42Z</time>
      </trkpt>
      <trkpt lat="42.82958" lon="1.43601">
        <ele>2105.91</ele>
        <time>2016-10-30T11:13:53Z</time>
      </trkpt>
      <trkpt lat="42.82959" lon="1.43601">
        <ele>2106.39</ele>
        <time>2016-10-30T11:13:57Z</time>
      </trkpt>
      <trkpt lat="42.82963" lon="1.436">
        <ele>2108.79</ele>
        <time>2016-10-30T11:14:08Z</time>
      </trkpt>
      <trkpt lat="42.82963" lon="1.43595">
        <ele>2110.23</ele>
        <time>2016-10-30T11:14:18Z</time>
      </trkpt>
      <trkpt lat="42.82963" lon="1.43595">
        <ele>2110.71</ele>
        <time>2016-10-30T11:14:34Z</time>
      </trkpt>
      <trkpt lat="42.82963" lon="1.43595">
        <ele>2111.19</ele>
        <time>2016-10-30T11:14:59Z</time>
      </trkpt>
      <trkpt lat="42.82963" lon="1.43596">
        <ele>2111.19</ele>
        <time>2016-10-30T11:15:25Z</time>
      </trkpt>
      <trkpt lat="42.82963" lon="1.43596">
        <ele>2111.19</ele>
        <time>2016-10-30T11:15:56Z</time>
      </trkpt>
      <trkpt lat="42.82964" lon="1.43596">
        <ele>2110.23</ele>
        <time>2016-10-30T11:16:27Z</time>
      </trkpt>
      <trkpt lat="42.82963" lon="1.43597">
        <ele>2110.23</ele>
        <time>2016-10-30T11:16:57Z</time>
      </trkpt>
      <trkpt lat="42.82964" lon="1.43596">
        <ele>2110.23</ele>
        <time>2016-10-30T11:17:28Z</time>
      </trkpt>
      <trkpt lat="42.82964" lon="1.43596">
        <ele>2110.23</ele>
        <time>2016-10-30T11:17:53Z</time>
      </trkpt>
      <trkpt lat="42.82964" lon="1.43596">
        <ele>2110.71</ele>
        <time>2016-10-30T11:18:14Z</time>
      </trkpt>
      <trkpt lat="42.82963" lon="1.43596">
        <ele>2110.71</ele>
        <time>2016-10-30T11:18:41Z</time>
      </trkpt>
      <trkpt lat="42.82963" lon="1.43596">
        <ele>2110.71</ele>
        <time>2016-10-30T11:19:08Z</time>
      </trkpt>
      <trkpt lat="42.82963" lon="1.43596">
        <ele>2110.71</ele>
        <time>2016-10-30T11:19:37Z</time>
      </trkpt>
      <trkpt lat="42.82963" lon="1.43595">
        <ele>2110.71</ele>
        <time>2016-10-30T11:19:59Z</time>
      </trkpt>
      <trkpt lat="42.82963" lon="1.43596">
        <ele>2110.71</ele>
        <time>2016-10-30T11:20:28Z</time>
      </trkpt>
      <trkpt lat="42.82964" lon="1.43596">
        <ele>2110.71</ele>
        <time>2016-10-30T11:20:55Z</time>
      </trkpt>
      <trkpt lat="42.82962" lon="1.43595">
        <ele>2110.71</ele>
        <time>2016-10-30T11:21:08Z</time>
      </trkpt>
      <trkpt lat="42.82961" lon="1.43594">
        <ele>2110.71</ele>
        <time>2016-10-30T11:21:36Z</time>
      </trkpt>
      <trkpt lat="42.82962" lon="1.43593">
        <ele>2110.71</ele>
        <time>2016-10-30T11:21:56Z</time>
      </trkpt>
      <trkpt lat="42.82962" lon="1.43593">
        <ele>2112.15</ele>
        <time>2016-10-30T11:22:02Z</time>
      </trkpt>
      <trkpt lat="42.82964" lon="1.43593">
        <ele>2112.15</ele>
        <time>2016-10-30T11:22:29Z</time>
      </trkpt>
      <trkpt lat="42.82965" lon="1.43594">
        <ele>2112.15</ele>
        <time>2016-10-30T11:22:37Z</time>
      </trkpt>
      <trkpt lat="42.82968" lon="1.43603">
        <ele>2112.15</ele>
        <time>2016-10-30T11:22:49Z</time>
      </trkpt>
      <trkpt lat="42.82969" lon="1.43605">
        <ele>2112.15</ele>
        <time>2016-10-30T11:23:01Z</time>
      </trkpt>
      <trkpt lat="42.82968" lon="1.43607">
        <ele>2112.15</ele>
        <time>2016-10-30T11:23:06Z</time>
      </trkpt>
      <trkpt lat="42.82964" lon="1.43613">
        <ele>2114.08</ele>
        <time>2016-10-30T11:23:17Z</time>
      </trkpt>
      <trkpt lat="42.82965" lon="1.43622">
        <ele>2115.04</ele>
        <time>2016-10-30T11:23:30Z</time>
      </trkpt>
      <trkpt lat="42.82966" lon="1.43626">
        <ele>2116.48</ele>
        <time>2016-10-30T11:23:41Z</time>
      </trkpt>
      <trkpt lat="42.82968" lon="1.4363">
        <ele>2118.4</ele>
        <time>2016-10-30T11:23:51Z</time>
      </trkpt>
      <trkpt lat="42.82971" lon="1.43634">
        <ele>2119.84</ele>
        <time>2016-10-30T11:24:04Z</time>
      </trkpt>
      <trkpt lat="42.82967" lon="1.4364">
        <ele>2121.77</ele>
        <time>2016-10-30T11:24:16Z</time>
      </trkpt>
      <trkpt lat="42.82968" lon="1.43643">
        <ele>2123.21</ele>
        <time>2016-10-30T11:24:29Z</time>
      </trkpt>
      <trkpt lat="42.82972" lon="1.43647">
        <ele>2124.65</ele>
        <time>2016-10-30T11:24:40Z</time>
      </trkpt>
      <trkpt lat="42.82972" lon="1.4365">
        <ele>2126.57</ele>
        <time>2016-10-30T11:24:51Z</time>
      </trkpt>
      <trkpt lat="42.8297" lon="1.43652">
        <ele>2127.53</ele>
        <time>2016-10-30T11:25:05Z</time>
      </trkpt>
      <trkpt lat="42.8297" lon="1.43652">
        <ele>2128.02</ele>
        <time>2016-10-30T11:25:06Z</time>
      </trkpt>
      <trkpt lat="42.8297" lon="1.43659">
        <ele>2128.98</ele>
        <time>2016-10-30T11:25:15Z</time>
      </trkpt>
      <trkpt lat="42.82968" lon="1.43666">
        <ele>2130.9</ele>
        <time>2016-10-30T11:25:26Z</time>
      </trkpt>
      <trkpt lat="42.82968" lon="1.43667">
        <ele>2131.86</ele>
        <time>2016-10-30T11:25:35Z</time>
      </trkpt>
      <trkpt lat="42.8297" lon="1.43671">
        <ele>2132.82</ele>
        <time>2016-10-30T11:25:48Z</time>
      </trkpt>
      <trkpt lat="42.82969" lon="1.43673">
        <ele>2132.82</ele>
        <time>2016-10-30T11:25:50Z</time>
      </trkpt>
      <trkpt lat="42.82969" lon="1.43683">
        <ele>2134.26</ele>
        <time>2016-10-30T11:26:02Z</time>
      </trkpt>
      <trkpt lat="42.82967" lon="1.43687">
        <ele>2135.23</ele>
        <time>2016-10-30T11:26:07Z</time>
      </trkpt>
      <trkpt lat="42.82968" lon="1.4369">
        <ele>2135.71</ele>
        <time>2016-10-30T11:26:17Z</time>
      </trkpt>
      <trkpt lat="42.82971" lon="1.43695">
        <ele>2137.63</ele>
        <time>2016-10-30T11:26:30Z</time>
      </trkpt>
      <trkpt lat="42.8297" lon="1.43703">
        <ele>2139.07</ele>
        <time>2016-10-30T11:26:39Z</time>
      </trkpt>
      <trkpt lat="42.82968" lon="1.43707">
        <ele>2140.03</ele>
        <time>2016-10-30T11:26:50Z</time>
      </trkpt>
      <trkpt lat="42.82968" lon="1.43709">
        <ele>2140.03</ele>
        <time>2016-10-30T11:27:10Z</time>
      </trkpt>
      <trkpt lat="42.82963" lon="1.43713">
        <ele>2140.03</ele>
        <time>2016-10-30T11:27:18Z</time>
      </trkpt>
      <trkpt lat="42.82965" lon="1.43722">
        <ele>2140.03</ele>
        <time>2016-10-30T11:27:30Z</time>
      </trkpt>
      <trkpt lat="42.82965" lon="1.43725">
        <ele>2140.03</ele>
        <time>2016-10-30T11:27:34Z</time>
      </trkpt>
      <trkpt lat="42.82964" lon="1.43728">
        <ele>2140.03</ele>
        <time>2016-10-30T11:27:37Z</time>
      </trkpt>
      <trkpt lat="42.82964" lon="1.43732">
        <ele>2138.59</ele>
        <time>2016-10-30T11:27:47Z</time>
      </trkpt>
      <trkpt lat="42.82965" lon="1.43735">
        <ele>2138.59</ele>
        <time>2016-10-30T11:28:06Z</time>
      </trkpt>
      <trkpt lat="42.82966" lon="1.43742">
        <ele>2138.59</ele>
        <time>2016-10-30T11:28:17Z</time>
      </trkpt>
      <trkpt lat="42.82968" lon="1.43743">
        <ele>2140.51</ele>
        <time>2016-10-30T11:28:21Z</time>
      </trkpt>
      <trkpt lat="42.82971" lon="1.43745">
        <ele>2140.03</ele>
        <time>2016-10-30T11:28:35Z</time>
      </trkpt>
      <trkpt lat="42.82974" lon="1.43746">
        <ele>2140.03</ele>
        <time>2016-10-30T11:28:43Z</time>
      </trkpt>
      <trkpt lat="42.82978" lon="1.43748">
        <ele>2140.03</ele>
        <time>2016-10-30T11:28:51Z</time>
      </trkpt>
      <trkpt lat="42.82982" lon="1.4375">
        <ele>2140.03</ele>
        <time>2016-10-30T11:28:58Z</time>
      </trkpt>
      <trkpt lat="42.82986" lon="1.43752">
        <ele>2141.95</ele>
        <time>2016-10-30T11:29:09Z</time>
      </trkpt>
      <trkpt lat="42.82985" lon="1.43755">
        <ele>2142.92</ele>
        <time>2016-10-30T11:29:26Z</time>
      </trkpt>
      <trkpt lat="42.82986" lon="1.43764">
        <ele>2142.92</ele>
        <time>2016-10-30T11:29:36Z</time>
      </trkpt>
      <trkpt lat="42.82986" lon="1.43769">
        <ele>2143.4</ele>
        <time>2016-10-30T11:29:46Z</time>
      </trkpt>
      <trkpt lat="42.82986" lon="1.43769">
        <ele>2144.36</ele>
        <time>2016-10-30T11:29:49Z</time>
      </trkpt>
      <trkpt lat="42.82985" lon="1.43772">
        <ele>2146.28</ele>
        <time>2016-10-30T11:30:02Z</time>
      </trkpt>
      <trkpt lat="42.82986" lon="1.43778">
        <ele>2147.72</ele>
        <time>2016-10-30T11:30:14Z</time>
      </trkpt>
      <trkpt lat="42.82986" lon="1.43779">
        <ele>2148.2</ele>
        <time>2016-10-30T11:30:16Z</time>
      </trkpt>
      <trkpt lat="42.82985" lon="1.43782">
        <ele>2149.65</ele>
        <time>2016-10-30T11:30:27Z</time>
      </trkpt>
      <trkpt lat="42.82984" lon="1.43783">
        <ele>2150.61</ele>
        <time>2016-10-30T11:30:37Z</time>
      </trkpt>
      <trkpt lat="42.82979" lon="1.43785">
        <ele>2152.53</ele>
        <time>2016-10-30T11:30:48Z</time>
      </trkpt>
      <trkpt lat="42.82976" lon="1.43785">
        <ele>2153.97</ele>
        <time>2016-10-30T11:31:01Z</time>
      </trkpt>
      <trkpt lat="42.82977" lon="1.43786">
        <ele>2154.45</ele>
        <time>2016-10-30T11:31:10Z</time>
      </trkpt>
      <trkpt lat="42.82977" lon="1.43795">
        <ele>2155.41</ele>
        <time>2016-10-30T11:31:21Z</time>
      </trkpt>
      <trkpt lat="42.82976" lon="1.43799">
        <ele>2155.41</ele>
        <time>2016-10-30T11:31:24Z</time>
      </trkpt>
      <trkpt lat="42.82976" lon="1.438">
        <ele>2156.86</ele>
        <time>2016-10-30T11:31:37Z</time>
      </trkpt>
      <trkpt lat="42.82976" lon="1.43804">
        <ele>2157.82</ele>
        <time>2016-10-30T11:31:48Z</time>
      </trkpt>
      <trkpt lat="42.82978" lon="1.43808">
        <ele>2157.82</ele>
        <time>2016-10-30T11:32:03Z</time>
      </trkpt>
      <trkpt lat="42.8298" lon="1.43816">
        <ele>2158.78</ele>
        <time>2016-10-30T11:32:15Z</time>
      </trkpt>
      <trkpt lat="42.82985" lon="1.43824">
        <ele>2160.22</ele>
        <time>2016-10-30T11:32:26Z</time>
      </trkpt>
      <trkpt lat="42.82992" lon="1.43828">
        <ele>2162.62</ele>
        <time>2016-10-30T11:32:37Z</time>
      </trkpt>
      <trkpt lat="42.82993" lon="1.43831">
        <ele>2164.55</ele>
        <time>2016-10-30T11:32:53Z</time>
      </trkpt>
      <trkpt lat="42.82993" lon="1.43831">
        <ele>2165.03</ele>
        <time>2016-10-30T11:32:59Z</time>
      </trkpt>
      <trkpt lat="42.82995" lon="1.43835">
        <ele>2165.51</ele>
        <time>2016-10-30T11:33:10Z</time>
      </trkpt>
      <trkpt lat="42.82994" lon="1.43836">
        <ele>2166.95</ele>
        <time>2016-10-30T11:33:37Z</time>
      </trkpt>
      <trkpt lat="42.82993" lon="1.43842">
        <ele>2166.95</ele>
        <time>2016-10-30T11:33:47Z</time>
      </trkpt>
      <trkpt lat="42.82996" lon="1.43848">
        <ele>2167.91</ele>
        <time>2016-10-30T11:34:01Z</time>
      </trkpt>
      <trkpt lat="42.83" lon="1.43852">
        <ele>2168.87</ele>
        <time>2016-10-30T11:34:11Z</time>
      </trkpt>
      <trkpt lat="42.83" lon="1.43859">
        <ele>2169.35</ele>
        <time>2016-10-30T11:34:19Z</time>
      </trkpt>
      <trkpt lat="42.82997" lon="1.43868">
        <ele>2170.79</ele>
        <time>2016-10-30T11:34:30Z</time>
      </trkpt>
      <trkpt lat="42.82998" lon="1.43877">
        <ele>2173.2</ele>
        <time>2016-10-30T11:34:43Z</time>
      </trkpt>
      <trkpt lat="42.83" lon="1.43881">
        <ele>2174.64</ele>
        <time>2016-10-30T11:35:01Z</time>
      </trkpt>
      <trkpt lat="42.83002" lon="1.43881">
        <ele>2175.12</ele>
        <time>2016-10-30T11:35:04Z</time>
      </trkpt>
      <trkpt lat="42.83004" lon="1.43882">
        <ele>2176.08</ele>
        <time>2016-10-30T11:35:09Z</time>
      </trkpt>
      <trkpt lat="42.83004" lon="1.43886">
        <ele>2177.52</ele>
        <time>2016-10-30T11:35:21Z</time>
      </trkpt>
      <trkpt lat="42.83008" lon="1.43889">
        <ele>2178.97</ele>
        <time>2016-10-30T11:35:29Z</time>
      </trkpt>
      <trkpt lat="42.83011" lon="1.43891">
        <ele>2179.45</ele>
        <time>2016-10-30T11:35:35Z</time>
      </trkpt>
      <trkpt lat="42.83009" lon="1.43893">
        <ele>2180.89</ele>
        <time>2016-10-30T11:35:47Z</time>
      </trkpt>
      <trkpt lat="42.83008" lon="1.43893">
        <ele>2182.33</ele>
        <time>2016-10-30T11:36:02Z</time>
      </trkpt>
      <trkpt lat="42.83008" lon="1.43893">
        <ele>2182.33</ele>
        <time>2016-10-30T11:36:31Z</time>
      </trkpt>
      <trkpt lat="42.83008" lon="1.43895">
        <ele>2182.33</ele>
        <time>2016-10-30T11:36:50Z</time>
      </trkpt>
      <trkpt lat="42.83009" lon="1.43897">
        <ele>2182.33</ele>
        <time>2016-10-30T11:36:54Z</time>
      </trkpt>
      <trkpt lat="42.8301" lon="1.43909">
        <ele>2182.81</ele>
        <time>2016-10-30T11:37:07Z</time>
      </trkpt>
      <trkpt lat="42.8301" lon="1.43915">
        <ele>2183.29</ele>
        <time>2016-10-30T11:37:21Z</time>
      </trkpt>
      <trkpt lat="42.83014" lon="1.43925">
        <ele>2182.33</ele>
        <time>2016-10-30T11:37:32Z</time>
      </trkpt>
      <trkpt lat="42.83016" lon="1.43926">
        <ele>2182.33</ele>
        <time>2016-10-30T11:37:40Z</time>
      </trkpt>
      <trkpt lat="42.83019" lon="1.43934">
        <ele>2182.33</ele>
        <time>2016-10-30T11:37:50Z</time>
      </trkpt>
      <trkpt lat="42.83023" lon="1.43935">
        <ele>2182.33</ele>
        <time>2016-10-30T11:37:53Z</time>
      </trkpt>
      <trkpt lat="42.83024" lon="1.43939">
        <ele>2182.33</ele>
        <time>2016-10-30T11:38:07Z</time>
      </trkpt>
      <trkpt lat="42.83024" lon="1.43939">
        <ele>2182.33</ele>
        <time>2016-10-30T11:38:26Z</time>
      </trkpt>
      <trkpt lat="42.83023" lon="1.43939">
        <ele>2182.33</ele>
        <time>2016-10-30T11:38:44Z</time>
      </trkpt>
      <trkpt lat="42.83023" lon="1.43939">
        <ele>2182.33</ele>
        <time>2016-10-30T11:39:15Z</time>
      </trkpt>
      <trkpt lat="42.83024" lon="1.43941">
        <ele>2182.33</ele>
        <time>2016-10-30T11:39:32Z</time>
      </trkpt>
      <trkpt lat="42.83025" lon="1.43941">
        <ele>2182.33</ele>
        <time>2016-10-30T11:39:42Z</time>
      </trkpt>
      <trkpt lat="42.83027" lon="1.43943">
        <ele>2182.33</ele>
        <time>2016-10-30T11:39:44Z</time>
      </trkpt>
      <trkpt lat="42.83032" lon="1.43953">
        <ele>2183.29</ele>
        <time>2016-10-30T11:39:56Z</time>
      </trkpt>
      <trkpt lat="42.83035" lon="1.43959">
        <ele>2183.29</ele>
        <time>2016-10-30T11:40:05Z</time>
      </trkpt>
      <trkpt lat="42.83031" lon="1.43966">
        <ele>2185.21</ele>
        <time>2016-10-30T11:40:17Z</time>
      </trkpt>
      <trkpt lat="42.83031" lon="1.4397">
        <ele>2185.69</ele>
        <time>2016-10-30T11:40:20Z</time>
      </trkpt>
      <trkpt lat="42.83031" lon="1.43972">
        <ele>2187.62</ele>
        <time>2016-10-30T11:40:31Z</time>
      </trkpt>
      <trkpt lat="42.83031" lon="1.43979">
        <ele>2187.62</ele>
        <time>2016-10-30T11:40:43Z</time>
      </trkpt>
      <trkpt lat="42.83035" lon="1.43983">
        <ele>2188.1</ele>
        <time>2016-10-30T11:40:56Z</time>
      </trkpt>
      <trkpt lat="42.83038" lon="1.43984">
        <ele>2188.58</ele>
        <time>2016-10-30T11:41:13Z</time>
      </trkpt>
      <trkpt lat="42.83041" lon="1.43986">
        <ele>2189.06</ele>
        <time>2016-10-30T11:41:29Z</time>
      </trkpt>
      <trkpt lat="42.83042" lon="1.43989">
        <ele>2190.5</ele>
        <time>2016-10-30T11:41:40Z</time>
      </trkpt>
      <trkpt lat="42.83044" lon="1.43993">
        <ele>2191.46</ele>
        <time>2016-10-30T11:41:49Z</time>
      </trkpt>
      <trkpt lat="42.83045" lon="1.44">
        <ele>2193.39</ele>
        <time>2016-10-30T11:42:01Z</time>
      </trkpt>
      <trkpt lat="42.83046" lon="1.44006">
        <ele>2193.87</ele>
        <time>2016-10-30T11:42:14Z</time>
      </trkpt>
      <trkpt lat="42.83049" lon="1.44008">
        <ele>2195.79</ele>
        <time>2016-10-30T11:42:25Z</time>
      </trkpt>
      <trkpt lat="42.83049" lon="1.44008">
        <ele>2196.27</ele>
        <time>2016-10-30T11:42:34Z</time>
      </trkpt>
      <trkpt lat="42.83052" lon="1.44011">
        <ele>2196.75</ele>
        <time>2016-10-30T11:42:44Z</time>
      </trkpt>
      <trkpt lat="42.83049" lon="1.44012">
        <ele>2196.75</ele>
        <time>2016-10-30T11:42:55Z</time>
      </trkpt>
      <trkpt lat="42.8305" lon="1.44013">
        <ele>2196.75</ele>
        <time>2016-10-30T11:43:14Z</time>
      </trkpt>
      <trkpt lat="42.83051" lon="1.44012">
        <ele>2196.75</ele>
        <time>2016-10-30T11:43:36Z</time>
      </trkpt>
      <trkpt lat="42.83051" lon="1.44013">
        <ele>2196.75</ele>
        <time>2016-10-30T11:43:38Z</time>
      </trkpt>
      <trkpt lat="42.83054" lon="1.44014">
        <ele>2196.75</ele>
        <time>2016-10-30T11:43:51Z</time>
      </trkpt>
      <trkpt lat="42.83054" lon="1.44013">
        <ele>2196.75</ele>
        <time>2016-10-30T11:44:10Z</time>
      </trkpt>
      <trkpt lat="42.83053" lon="1.44013">
        <ele>2196.75</ele>
        <time>2016-10-30T11:44:29Z</time>
      </trkpt>
      <trkpt lat="42.83053" lon="1.44013">
        <ele>2196.75</ele>
        <time>2016-10-30T11:44:54Z</time>
      </trkpt>
      <trkpt lat="42.83053" lon="1.44014">
        <ele>2196.75</ele>
        <time>2016-10-30T11:45:19Z</time>
      </trkpt>
      <trkpt lat="42.83052" lon="1.44016">
        <ele>2196.75</ele>
        <time>2016-10-30T11:45:43Z</time>
      </trkpt>
      <trkpt lat="42.83051" lon="1.44014">
        <ele>2196.75</ele>
        <time>2016-10-30T11:45:54Z</time>
      </trkpt>
      <trkpt lat="42.83051" lon="1.44013">
        <ele>2196.75</ele>
        <time>2016-10-30T11:46:10Z</time>
      </trkpt>
      <trkpt lat="42.83051" lon="1.44014">
        <ele>2196.75</ele>
        <time>2016-10-30T11:46:31Z</time>
      </trkpt>
      <trkpt lat="42.8305" lon="1.44012">
        <ele>2196.75</ele>
        <time>2016-10-30T11:46:54Z</time>
      </trkpt>
      <trkpt lat="42.8305" lon="1.44012">
        <ele>2197.23</ele>
        <time>2016-10-30T11:47:18Z</time>
      </trkpt>
      <trkpt lat="42.8305" lon="1.44011">
        <ele>2197.23</ele>
        <time>2016-10-30T11:47:52Z</time>
      </trkpt>
      <trkpt lat="42.8305" lon="1.44012">
        <ele>2197.23</ele>
        <time>2016-10-30T11:48:11Z</time>
      </trkpt>
      <trkpt lat="42.83049" lon="1.44012">
        <ele>2197.23</ele>
        <time>2016-10-30T11:48:30Z</time>
      </trkpt>
      <trkpt lat="42.83049" lon="1.44012">
        <ele>2197.23</ele>
        <time>2016-10-30T11:48:57Z</time>
      </trkpt>
      <trkpt lat="42.83049" lon="1.44012">
        <ele>2197.23</ele>
        <time>2016-10-30T11:49:30Z</time>
      </trkpt>
      <trkpt lat="42.83049" lon="1.44012">
        <ele>2197.23</ele>
        <time>2016-10-30T11:50:03Z</time>
      </trkpt>
      <trkpt lat="42.83049" lon="1.44012">
        <ele>2197.23</ele>
        <time>2016-10-30T11:50:35Z</time>
      </trkpt>
      <trkpt lat="42.83049" lon="1.44012">
        <ele>2197.23</ele>
        <time>2016-10-30T11:51:04Z</time>
      </trkpt>
      <trkpt lat="42.83049" lon="1.44013">
        <ele>2197.71</ele>
        <time>2016-10-30T11:51:21Z</time>
      </trkpt>
      <trkpt lat="42.8305" lon="1.44012">
        <ele>2197.71</ele>
        <time>2016-10-30T11:51:39Z</time>
      </trkpt>
      <trkpt lat="42.8305" lon="1.44011">
        <ele>2197.71</ele>
        <time>2016-10-30T11:51:56Z</time>
      </trkpt>
      <trkpt lat="42.8305" lon="1.4401">
        <ele>2197.71</ele>
        <time>2016-10-30T11:52:28Z</time>
      </trkpt>
      <trkpt lat="42.83049" lon="1.4401">
        <ele>2197.71</ele>
        <time>2016-10-30T11:52:45Z</time>
      </trkpt>
      <trkpt lat="42.83049" lon="1.4401">
        <ele>2197.71</ele>
        <time>2016-10-30T11:53:00Z</time>
      </trkpt>
      <trkpt lat="42.83049" lon="1.4401">
        <ele>2198.19</ele>
        <time>2016-10-30T11:53:21Z</time>
      </trkpt>
      <trkpt lat="42.83049" lon="1.4401">
        <ele>2198.19</ele>
        <time>2016-10-30T11:53:44Z</time>
      </trkpt>
      <trkpt lat="42.83049" lon="1.4401">
        <ele>2198.67</ele>
        <time>2016-10-30T11:54:10Z</time>
      </trkpt>
      <trkpt lat="42.83049" lon="1.4401">
        <ele>2198.67</ele>
        <time>2016-10-30T11:54:26Z</time>
      </trkpt>
      <trkpt lat="42.83049" lon="1.4401">
        <ele>2198.67</ele>
        <time>2016-10-30T11:54:55Z</time>
      </trkpt>
      <trkpt lat="42.83049" lon="1.44011">
        <ele>2198.67</ele>
        <time>2016-10-30T11:55:13Z</time>
      </trkpt>
      <trkpt lat="42.83049" lon="1.44011">
        <ele>2198.67</ele>
        <time>2016-10-30T11:55:34Z</time>
      </trkpt>
      <trkpt lat="42.83049" lon="1.44011">
        <ele>2198.67</ele>
        <time>2016-10-30T11:55:54Z</time>
      </trkpt>
      <trkpt lat="42.83049" lon="1.44011">
        <ele>2198.67</ele>
        <time>2016-10-30T11:56:16Z</time>
      </trkpt>
      <trkpt lat="42.83048" lon="1.44012">
        <ele>2198.67</ele>
        <time>2016-10-30T11:56:37Z</time>
      </trkpt>
      <trkpt lat="42.83047" lon="1.44012">
        <ele>2198.67</ele>
        <time>2016-10-30T11:57:01Z</time>
      </trkpt>
      <trkpt lat="42.83047" lon="1.44012">
        <ele>2198.67</ele>
        <time>2016-10-30T11:57:17Z</time>
      </trkpt>
      <trkpt lat="42.83047" lon="1.44012">
        <ele>2198.67</ele>
        <time>2016-10-30T11:57:41Z</time>
      </trkpt>
      <trkpt lat="42.83048" lon="1.44012">
        <ele>2198.67</ele>
        <time>2016-10-30T11:58:00Z</time>
      </trkpt>
      <trkpt lat="42.83048" lon="1.44011">
        <ele>2198.67</ele>
        <time>2016-10-30T11:58:27Z</time>
      </trkpt>
      <trkpt lat="42.83048" lon="1.44012">
        <ele>2198.67</ele>
        <time>2016-10-30T11:58:58Z</time>
      </trkpt>
      <trkpt lat="42.83048" lon="1.44011">
        <ele>2198.67</ele>
        <time>2016-10-30T11:59:16Z</time>
      </trkpt>
      <trkpt lat="42.83048" lon="1.44011">
        <ele>2198.19</ele>
        <time>2016-10-30T11:59:44Z</time>
      </trkpt>
      <trkpt lat="42.83048" lon="1.44012">
        <ele>2198.19</ele>
        <time>2016-10-30T12:00:07Z</time>
      </trkpt>
      <trkpt lat="42.83048" lon="1.44012">
        <ele>2198.19</ele>
        <time>2016-10-30T12:00:34Z</time>
      </trkpt>
      <trkpt lat="42.83048" lon="1.44012">
        <ele>2198.19</ele>
        <time>2016-10-30T12:00:51Z</time>
      </trkpt>
      <trkpt lat="42.83047" lon="1.44012">
        <ele>2198.19</ele>
        <time>2016-10-30T12:01:17Z</time>
      </trkpt>
      <trkpt lat="42.83048" lon="1.44011">
        <ele>2198.19</ele>
        <time>2016-10-30T12:01:47Z</time>
      </trkpt>
      <trkpt lat="42.83049" lon="1.44011">
        <ele>2198.19</ele>
        <time>2016-10-30T12:02:07Z</time>
      </trkpt>
      <trkpt lat="42.83049" lon="1.44011">
        <ele>2198.19</ele>
        <time>2016-10-30T12:02:26Z</time>
      </trkpt>
      <trkpt lat="42.83049" lon="1.44011">
        <ele>2198.19</ele>
        <time>2016-10-30T12:02:42Z</time>
      </trkpt>
      <trkpt lat="42.83049" lon="1.44011">
        <ele>2198.19</ele>
        <time>2016-10-30T12:03:10Z</time>
      </trkpt>
      <trkpt lat="42.83049" lon="1.4401">
        <ele>2198.19</ele>
        <time>2016-10-30T12:03:44Z</time>
      </trkpt>
      <trkpt lat="42.83049" lon="1.44011">
        <ele>2198.19</ele>
        <time>2016-10-30T12:03:59Z</time>
      </trkpt>
      <trkpt lat="42.83048" lon="1.44011">
        <ele>2198.67</ele>
        <time>2016-10-30T12:04:32Z</time>
      </trkpt>
      <trkpt lat="42.83048" lon="1.44011">
        <ele>2198.67</ele>
        <time>2016-10-30T12:04:54Z</time>
      </trkpt>
      <trkpt lat="42.83048" lon="1.44011">
        <ele>2198.67</ele>
        <time>2016-10-30T12:05:17Z</time>
      </trkpt>
      <trkpt lat="42.83048" lon="1.44011">
        <ele>2198.67</ele>
        <time>2016-10-30T12:05:46Z</time>
      </trkpt>
      <trkpt lat="42.83048" lon="1.44011">
        <ele>2198.67</ele>
        <time>2016-10-30T12:06:12Z</time>
      </trkpt>
      <trkpt lat="42.83049" lon="1.44011">
        <ele>2198.67</ele>
        <time>2016-10-30T12:06:32Z</time>
      </trkpt>
      <trkpt lat="42.83048" lon="1.44011">
        <ele>2198.67</ele>
        <time>2016-10-30T12:06:52Z</time>
      </trkpt>
      <trkpt lat="42.83047" lon="1.44013">
        <ele>2198.67</ele>
        <time>2016-10-30T12:07:09Z</time>
      </trkpt>
      <trkpt lat="42.83045" lon="1.44013">
        <ele>2198.67</ele>
        <time>2016-10-30T12:07:30Z</time>
      </trkpt>
      <trkpt lat="42.83045" lon="1.44014">
        <ele>2198.67</ele>
        <time>2016-10-30T12:07:48Z</time>
      </trkpt>
      <trkpt lat="42.83045" lon="1.44014">
        <ele>2198.67</ele>
        <time>2016-10-30T12:08:07Z</time>
      </trkpt>
      <trkpt lat="42.83045" lon="1.44014">
        <ele>2198.67</ele>
        <time>2016-10-30T12:08:32Z</time>
      </trkpt>
      <trkpt lat="42.83046" lon="1.44012">
        <ele>2198.67</ele>
        <time>2016-10-30T12:08:54Z</time>
      </trkpt>
      <trkpt lat="42.83047" lon="1.44012">
        <ele>2198.67</ele>
        <time>2016-10-30T12:09:10Z</time>
      </trkpt>
      <trkpt lat="42.83047" lon="1.44012">
        <ele>2198.67</ele>
        <time>2016-10-30T12:09:30Z</time>
      </trkpt>
      <trkpt lat="42.83047" lon="1.44012">
        <ele>2198.67</ele>
        <time>2016-10-30T12:09:45Z</time>
      </trkpt>
      <trkpt lat="42.83048" lon="1.44012">
        <ele>2198.67</ele>
        <time>2016-10-30T12:09:49Z</time>
      </trkpt>
      <trkpt lat="42.82861" lon="1.43517">
        <ele>2016.02</ele>
        <time>2016-10-30T13:22:32Z</time>
      </trkpt>
      <trkpt lat="42.82864" lon="1.4352">
        <ele>2016.02</ele>
        <time>2016-10-30T13:22:33Z</time>
      </trkpt>
      <trkpt lat="42.82856" lon="1.43491">
        <ele>2018.91</ele>
        <time>2016-10-30T13:22:48Z</time>
      </trkpt>
      <trkpt lat="42.82857" lon="1.43491">
        <ele>2022.27</ele>
        <time>2016-10-30T13:22:59Z</time>
      </trkpt>
      <trkpt lat="42.82858" lon="1.4349">
        <ele>2025.15</ele>
        <time>2016-10-30T13:23:20Z</time>
      </trkpt>
      <trkpt lat="42.82859" lon="1.43494">
        <ele>2026.6</ele>
        <time>2016-10-30T13:23:37Z</time>
      </trkpt>
      <trkpt lat="42.82859" lon="1.43493">
        <ele>2028.04</ele>
        <time>2016-10-30T13:23:58Z</time>
      </trkpt>
      <trkpt lat="42.82859" lon="1.43494">
        <ele>2028.52</ele>
        <time>2016-10-30T13:24:15Z</time>
      </trkpt>
      <trkpt lat="42.82858" lon="1.43493">
        <ele>2028.52</ele>
        <time>2016-10-30T13:24:28Z</time>
      </trkpt>
      <trkpt lat="42.82858" lon="1.43492">
        <ele>2028.52</ele>
        <time>2016-10-30T13:24:51Z</time>
      </trkpt>
      <trkpt lat="42.82857" lon="1.43491">
        <ele>2028.52</ele>
        <time>2016-10-30T13:25:14Z</time>
      </trkpt>
      <trkpt lat="42.82857" lon="1.4349">
        <ele>2028.52</ele>
        <time>2016-10-30T13:25:30Z</time>
      </trkpt>
      <trkpt lat="42.82857" lon="1.43489">
        <ele>2028.52</ele>
        <time>2016-10-30T13:25:52Z</time>
      </trkpt>
      <trkpt lat="42.82857" lon="1.43489">
        <ele>2028.52</ele>
        <time>2016-10-30T13:26:08Z</time>
      </trkpt>
      <trkpt lat="42.82857" lon="1.43489">
        <ele>2028.52</ele>
        <time>2016-10-30T13:26:23Z</time>
      </trkpt>
      <trkpt lat="42.82856" lon="1.43489">
        <ele>2028.52</ele>
        <time>2016-10-30T13:26:38Z</time>
      </trkpt>
      <trkpt lat="42.82857" lon="1.43489">
        <ele>2028.52</ele>
        <time>2016-10-30T13:26:58Z</time>
      </trkpt>
      <trkpt lat="42.82858" lon="1.43482">
        <ele>2026.6</ele>
        <time>2016-10-30T13:27:12Z</time>
      </trkpt>
      <trkpt lat="42.82858" lon="1.43482">
        <ele>2025.15</ele>
        <time>2016-10-30T13:27:24Z</time>
      </trkpt>
      <trkpt lat="42.8286" lon="1.43479">
        <ele>2024.19</ele>
        <time>2016-10-30T13:27:31Z</time>
      </trkpt>
      <trkpt lat="42.8286" lon="1.43473">
        <ele>2020.83</ele>
        <time>2016-10-30T13:27:40Z</time>
      </trkpt>
      <trkpt lat="42.8286" lon="1.43472">
        <ele>2020.35</ele>
        <time>2016-10-30T13:27:41Z</time>
      </trkpt>
      <trkpt lat="42.82859" lon="1.4347">
        <ele>2017.94</ele>
        <time>2016-10-30T13:27:43Z</time>
      </trkpt>
      <trkpt lat="42.82859" lon="1.43468">
        <ele>2016.02</ele>
        <time>2016-10-30T13:27:53Z</time>
      </trkpt>
      <trkpt lat="42.82859" lon="1.43467">
        <ele>2016.98</ele>
        <time>2016-10-30T13:28:10Z</time>
      </trkpt>
      <trkpt lat="42.82859" lon="1.43465">
        <ele>2016.98</ele>
        <time>2016-10-30T13:28:22Z</time>
      </trkpt>
      <trkpt lat="42.82859" lon="1.43465">
        <ele>2016.98</ele>
        <time>2016-10-30T13:28:31Z</time>
      </trkpt>
      <trkpt lat="42.82858" lon="1.43459">
        <ele>2015.54</ele>
        <time>2016-10-30T13:28:41Z</time>
      </trkpt>
      <trkpt lat="42.82858" lon="1.43459">
        <ele>2012.18</ele>
        <time>2016-10-30T13:28:47Z</time>
      </trkpt>
      <trkpt lat="42.82858" lon="1.43459">
        <ele>2011.7</ele>
        <time>2016-10-30T13:28:56Z</time>
      </trkpt>
      <trkpt lat="42.82856" lon="1.43457">
        <ele>2011.7</ele>
        <time>2016-10-30T13:28:59Z</time>
      </trkpt>
      <trkpt lat="42.8285" lon="1.43455">
        <ele>2011.22</ele>
        <time>2016-10-30T13:29:08Z</time>
      </trkpt>
      <trkpt lat="42.82844" lon="1.4345">
        <ele>2009.29</ele>
        <time>2016-10-30T13:29:17Z</time>
      </trkpt>
      <trkpt lat="42.82842" lon="1.43446">
        <ele>2008.81</ele>
        <time>2016-10-30T13:29:20Z</time>
      </trkpt>
      <trkpt lat="42.82841" lon="1.43444">
        <ele>2007.37</ele>
        <time>2016-10-30T13:29:22Z</time>
      </trkpt>
      <trkpt lat="42.82838" lon="1.43442">
        <ele>2003.52</ele>
        <time>2016-10-30T13:29:27Z</time>
      </trkpt>
      <trkpt lat="42.82839" lon="1.43442">
        <ele>2003.52</ele>
        <time>2016-10-30T13:29:41Z</time>
      </trkpt>
      <trkpt lat="42.82839" lon="1.43442">
        <ele>2003.52</ele>
        <time>2016-10-30T13:29:42Z</time>
      </trkpt>
      <trkpt lat="42.82836" lon="1.43442">
        <ele>2004.49</ele>
        <time>2016-10-30T13:29:55Z</time>
      </trkpt>
      <trkpt lat="42.82835" lon="1.43442">
        <ele>2004.49</ele>
        <time>2016-10-30T13:30:17Z</time>
      </trkpt>
      <trkpt lat="42.82832" lon="1.43443">
        <ele>2004.49</ele>
        <time>2016-10-30T13:30:33Z</time>
      </trkpt>
      <trkpt lat="42.82831" lon="1.43441">
        <ele>2004.49</ele>
        <time>2016-10-30T13:30:44Z</time>
      </trkpt>
      <trkpt lat="42.82818" lon="1.43439">
        <ele>2004.49</ele>
        <time>2016-10-30T13:30:57Z</time>
      </trkpt>
      <trkpt lat="42.8281" lon="1.43445">
        <ele>2004.49</ele>
        <time>2016-10-30T13:31:05Z</time>
      </trkpt>
      <trkpt lat="42.82804" lon="1.43445">
        <ele>2004.49</ele>
        <time>2016-10-30T13:31:11Z</time>
      </trkpt>
      <trkpt lat="42.82802" lon="1.43442">
        <ele>2004.49</ele>
        <time>2016-10-30T13:31:16Z</time>
      </trkpt>
      <trkpt lat="42.82802" lon="1.4344">
        <ele>2004.49</ele>
        <time>2016-10-30T13:31:20Z</time>
      </trkpt>
      <trkpt lat="42.828" lon="1.43441">
        <ele>2003.04</ele>
        <time>2016-10-30T13:31:24Z</time>
      </trkpt>
      <trkpt lat="42.82797" lon="1.43441">
        <ele>2002.56</ele>
        <time>2016-10-30T13:31:28Z</time>
      </trkpt>
      <trkpt lat="42.82787" lon="1.43455">
        <ele>2000.64</ele>
        <time>2016-10-30T13:31:41Z</time>
      </trkpt>
      <trkpt lat="42.82786" lon="1.43456">
        <ele>2000.64</ele>
        <time>2016-10-30T13:31:43Z</time>
      </trkpt>
      <trkpt lat="42.82786" lon="1.43458">
        <ele>1999.68</ele>
        <time>2016-10-30T13:31:45Z</time>
      </trkpt>
      <trkpt lat="42.82777" lon="1.43465">
        <ele>1996.32</ele>
        <time>2016-10-30T13:31:56Z</time>
      </trkpt>
      <trkpt lat="42.82774" lon="1.43466">
        <ele>1994.39</ele>
        <time>2016-10-30T13:31:59Z</time>
      </trkpt>
      <trkpt lat="42.82774" lon="1.43464">
        <ele>1993.43</ele>
        <time>2016-10-30T13:32:05Z</time>
      </trkpt>
      <trkpt lat="42.82778" lon="1.43467">
        <ele>1993.43</ele>
        <time>2016-10-30T13:32:10Z</time>
      </trkpt>
      <trkpt lat="42.82779" lon="1.43474">
        <ele>1994.87</ele>
        <time>2016-10-30T13:32:18Z</time>
      </trkpt>
      <trkpt lat="42.82782" lon="1.43481">
        <ele>1995.35</ele>
        <time>2016-10-30T13:32:26Z</time>
      </trkpt>
      <trkpt lat="42.82782" lon="1.43486">
        <ele>1995.83</ele>
        <time>2016-10-30T13:32:31Z</time>
      </trkpt>
      <trkpt lat="42.82781" lon="1.43491">
        <ele>1995.83</ele>
        <time>2016-10-30T13:32:35Z</time>
      </trkpt>
      <trkpt lat="42.82776" lon="1.43496">
        <ele>1995.83</ele>
        <time>2016-10-30T13:32:40Z</time>
      </trkpt>
      <trkpt lat="42.82768" lon="1.43497">
        <ele>1994.87</ele>
        <time>2016-10-30T13:32:47Z</time>
      </trkpt>
      <trkpt lat="42.82764" lon="1.43497">
        <ele>1994.39</ele>
        <time>2016-10-30T13:32:59Z</time>
      </trkpt>
      <trkpt lat="42.82762" lon="1.43498">
        <ele>1993.43</ele>
        <time>2016-10-30T13:33:10Z</time>
      </trkpt>
      <trkpt lat="42.82761" lon="1.43499">
        <ele>1993.43</ele>
        <time>2016-10-30T13:33:29Z</time>
      </trkpt>
      <trkpt lat="42.82756" lon="1.43502">
        <ele>1992.95</ele>
        <time>2016-10-30T13:33:35Z</time>
      </trkpt>
      <trkpt lat="42.82749" lon="1.43505">
        <ele>1991.51</ele>
        <time>2016-10-30T13:33:45Z</time>
      </trkpt>
      <trkpt lat="42.82746" lon="1.43507">
        <ele>1990.55</ele>
        <time>2016-10-30T13:33:51Z</time>
      </trkpt>
      <trkpt lat="42.82742" lon="1.43502">
        <ele>1989.59</ele>
        <time>2016-10-30T13:34:02Z</time>
      </trkpt>
      <trkpt lat="42.82741" lon="1.43501">
        <ele>1988.14</ele>
        <time>2016-10-30T13:34:17Z</time>
      </trkpt>
      <trkpt lat="42.82738" lon="1.43496">
        <ele>1987.18</ele>
        <time>2016-10-30T13:34:33Z</time>
      </trkpt>
      <trkpt lat="42.82732" lon="1.43492">
        <ele>1985.74</ele>
        <time>2016-10-30T13:34:43Z</time>
      </trkpt>
      <trkpt lat="42.82731" lon="1.43491">
        <ele>1983.82</ele>
        <time>2016-10-30T13:34:58Z</time>
      </trkpt>
      <trkpt lat="42.82731" lon="1.43491">
        <ele>1983.82</ele>
        <time>2016-10-30T13:35:01Z</time>
      </trkpt>
      <trkpt lat="42.8273" lon="1.4349">
        <ele>1983.34</ele>
        <time>2016-10-30T13:35:03Z</time>
      </trkpt>
      <trkpt lat="42.82724" lon="1.43486">
        <ele>1982.38</ele>
        <time>2016-10-30T13:35:15Z</time>
      </trkpt>
      <trkpt lat="42.82719" lon="1.43484">
        <ele>1978.53</ele>
        <time>2016-10-30T13:35:22Z</time>
      </trkpt>
      <trkpt lat="42.82719" lon="1.43484">
        <ele>1978.05</ele>
        <time>2016-10-30T13:35:24Z</time>
      </trkpt>
      <trkpt lat="42.82718" lon="1.43485">
        <ele>1977.09</ele>
        <time>2016-10-30T13:35:32Z</time>
      </trkpt>
      <trkpt lat="42.82708" lon="1.43491">
        <ele>1977.09</ele>
        <time>2016-10-30T13:35:43Z</time>
      </trkpt>
      <trkpt lat="42.82706" lon="1.43493">
        <ele>1975.17</ele>
        <time>2016-10-30T13:35:55Z</time>
      </trkpt>
      <trkpt lat="42.82706" lon="1.43492">
        <ele>1974.69</ele>
        <time>2016-10-30T13:36:16Z</time>
      </trkpt>
      <trkpt lat="42.82706" lon="1.43491">
        <ele>1974.69</ele>
        <time>2016-10-30T13:36:56Z</time>
      </trkpt>
      <trkpt lat="42.82701" lon="1.43494">
        <ele>1974.69</ele>
        <time>2016-10-30T13:37:13Z</time>
      </trkpt>
      <trkpt lat="42.82698" lon="1.43494">
        <ele>1973.72</ele>
        <time>2016-10-30T13:37:28Z</time>
      </trkpt>
      <trkpt lat="42.82693" lon="1.43495">
        <ele>1972.76</ele>
        <time>2016-10-30T13:37:44Z</time>
      </trkpt>
      <trkpt lat="42.82688" lon="1.43501">
        <ele>1971.32</ele>
        <time>2016-10-30T13:37:55Z</time>
      </trkpt>
      <trkpt lat="42.82685" lon="1.43503">
        <ele>1970.84</ele>
        <time>2016-10-30T13:37:58Z</time>
      </trkpt>
      <trkpt lat="42.8268" lon="1.43511">
        <ele>1968.44</ele>
        <time>2016-10-30T13:38:07Z</time>
      </trkpt>
      <trkpt lat="42.82678" lon="1.43522">
        <ele>1967.48</ele>
        <time>2016-10-30T13:38:16Z</time>
      </trkpt>
      <trkpt lat="42.82675" lon="1.43526">
        <ele>1966.99</ele>
        <time>2016-10-30T13:38:20Z</time>
      </trkpt>
      <trkpt lat="42.82673" lon="1.43533">
        <ele>1966.03</ele>
        <time>2016-10-30T13:38:26Z</time>
      </trkpt>
      <trkpt lat="42.82671" lon="1.43538">
        <ele>1964.59</ele>
        <time>2016-10-30T13:38:32Z</time>
      </trkpt>
      <trkpt lat="42.82673" lon="1.43544">
        <ele>1960.75</ele>
        <time>2016-10-30T13:38:39Z</time>
      </trkpt>
      <trkpt lat="42.82673" lon="1.43546">
        <ele>1957.38</ele>
        <time>2016-10-30T13:38:43Z</time>
      </trkpt>
      <trkpt lat="42.82669" lon="1.43552">
        <ele>1955.94</ele>
        <time>2016-10-30T13:38:54Z</time>
      </trkpt>
      <trkpt lat="42.82668" lon="1.43553">
        <ele>1955.94</ele>
        <time>2016-10-30T13:38:56Z</time>
      </trkpt>
      <trkpt lat="42.82663" lon="1.43556">
        <ele>1954.5</ele>
        <time>2016-10-30T13:39:03Z</time>
      </trkpt>
      <trkpt lat="42.82661" lon="1.43556">
        <ele>1954.02</ele>
        <time>2016-10-30T13:39:08Z</time>
      </trkpt>
      <trkpt lat="42.82652" lon="1.43549">
        <ele>1953.06</ele>
        <time>2016-10-30T13:39:20Z</time>
      </trkpt>
      <trkpt lat="42.82649" lon="1.43547">
        <ele>1953.06</ele>
        <time>2016-10-30T13:39:24Z</time>
      </trkpt>
      <trkpt lat="42.8264" lon="1.43547">
        <ele>1951.13</ele>
        <time>2016-10-30T13:39:34Z</time>
      </trkpt>
      <trkpt lat="42.82635" lon="1.43549">
        <ele>1950.65</ele>
        <time>2016-10-30T13:39:40Z</time>
      </trkpt>
      <trkpt lat="42.82628" lon="1.43557">
        <ele>1950.17</ele>
        <time>2016-10-30T13:39:50Z</time>
      </trkpt>
      <trkpt lat="42.82621" lon="1.43565">
        <ele>1949.21</ele>
        <time>2016-10-30T13:40:00Z</time>
      </trkpt>
      <trkpt lat="42.82618" lon="1.43574">
        <ele>1947.29</ele>
        <time>2016-10-30T13:40:12Z</time>
      </trkpt>
      <trkpt lat="42.82618" lon="1.43577">
        <ele>1946.33</ele>
        <time>2016-10-30T13:40:16Z</time>
      </trkpt>
      <trkpt lat="42.82613" lon="1.43582">
        <ele>1945.85</ele>
        <time>2016-10-30T13:40:28Z</time>
      </trkpt>
      <trkpt lat="42.82612" lon="1.43583">
        <ele>1945.36</ele>
        <time>2016-10-30T13:40:29Z</time>
      </trkpt>
      <trkpt lat="42.82611" lon="1.43589">
        <ele>1945.36</ele>
        <time>2016-10-30T13:40:33Z</time>
      </trkpt>
      <trkpt lat="42.82608" lon="1.43592">
        <ele>1944.88</ele>
        <time>2016-10-30T13:40:36Z</time>
      </trkpt>
      <trkpt lat="42.82593" lon="1.43591">
        <ele>1943.92</ele>
        <time>2016-10-30T13:40:50Z</time>
      </trkpt>
      <trkpt lat="42.82593" lon="1.43591">
        <ele>1943.92</ele>
        <time>2016-10-30T13:40:51Z</time>
      </trkpt>
      <trkpt lat="42.8258" lon="1.43597">
        <ele>1943.92</ele>
        <time>2016-10-30T13:41:04Z</time>
      </trkpt>
      <trkpt lat="42.82575" lon="1.43599">
        <ele>1943.44</ele>
        <time>2016-10-30T13:41:15Z</time>
      </trkpt>
      <trkpt lat="42.8257" lon="1.43601">
        <ele>1942.96</ele>
        <time>2016-10-30T13:41:25Z</time>
      </trkpt>
      <trkpt lat="42.82564" lon="1.43601">
        <ele>1942.48</ele>
        <time>2016-10-30T13:41:32Z</time>
      </trkpt>
      <trkpt lat="42.82561" lon="1.43599">
        <ele>1941.52</ele>
        <time>2016-10-30T13:41:36Z</time>
      </trkpt>
      <trkpt lat="42.82554" lon="1.43595">
        <ele>1940.56</ele>
        <time>2016-10-30T13:41:49Z</time>
      </trkpt>
      <trkpt lat="42.82551" lon="1.43595">
        <ele>1939.6</ele>
        <time>2016-10-30T13:41:56Z</time>
      </trkpt>
      <trkpt lat="42.82548" lon="1.43595">
        <ele>1937.67</ele>
        <time>2016-10-30T13:42:04Z</time>
      </trkpt>
      <trkpt lat="42.82544" lon="1.43594">
        <ele>1937.19</ele>
        <time>2016-10-30T13:42:09Z</time>
      </trkpt>
      <trkpt lat="42.82541" lon="1.43596">
        <ele>1936.71</ele>
        <time>2016-10-30T13:42:12Z</time>
      </trkpt>
      <trkpt lat="42.82534" lon="1.43594">
        <ele>1934.79</ele>
        <time>2016-10-30T13:42:22Z</time>
      </trkpt>
      <trkpt lat="42.82531" lon="1.43591">
        <ele>1933.83</ele>
        <time>2016-10-30T13:42:31Z</time>
      </trkpt>
      <trkpt lat="42.8253" lon="1.43591">
        <ele>1932.39</ele>
        <time>2016-10-30T13:42:52Z</time>
      </trkpt>
      <trkpt lat="42.82528" lon="1.4359">
        <ele>1932.39</ele>
        <time>2016-10-30T13:42:56Z</time>
      </trkpt>
      <trkpt lat="42.82525" lon="1.43588">
        <ele>1931.43</ele>
        <time>2016-10-30T13:42:59Z</time>
      </trkpt>
      <trkpt lat="42.82521" lon="1.43586">
        <ele>1930.95</ele>
        <time>2016-10-30T13:43:03Z</time>
      </trkpt>
      <trkpt lat="42.82518" lon="1.43582">
        <ele>1930.46</ele>
        <time>2016-10-30T13:43:07Z</time>
      </trkpt>
      <trkpt lat="42.82515" lon="1.4358">
        <ele>1929.98</ele>
        <time>2016-10-30T13:43:10Z</time>
      </trkpt>
      <trkpt lat="42.82507" lon="1.4358">
        <ele>1928.06</ele>
        <time>2016-10-30T13:43:20Z</time>
      </trkpt>
      <trkpt lat="42.82503" lon="1.43579">
        <ele>1927.58</ele>
        <time>2016-10-30T13:43:30Z</time>
      </trkpt>
      <trkpt lat="42.82499" lon="1.43578">
        <ele>1926.14</ele>
        <time>2016-10-30T13:43:42Z</time>
      </trkpt>
      <trkpt lat="42.82497" lon="1.43577">
        <ele>1924.22</ele>
        <time>2016-10-30T13:43:56Z</time>
      </trkpt>
      <trkpt lat="42.82496" lon="1.43578">
        <ele>1923.74</ele>
        <time>2016-10-30T13:44:08Z</time>
      </trkpt>
      <trkpt lat="42.82496" lon="1.43577">
        <ele>1923.25</ele>
        <time>2016-10-30T13:44:34Z</time>
      </trkpt>
      <trkpt lat="42.82496" lon="1.43577">
        <ele>1922.77</ele>
        <time>2016-10-30T13:44:58Z</time>
      </trkpt>
      <trkpt lat="42.82495" lon="1.43576">
        <ele>1922.77</ele>
        <time>2016-10-30T13:45:21Z</time>
      </trkpt>
      <trkpt lat="42.82495" lon="1.43575">
        <ele>1922.77</ele>
        <time>2016-10-30T13:45:38Z</time>
      </trkpt>
      <trkpt lat="42.82494" lon="1.43576">
        <ele>1922.77</ele>
        <time>2016-10-30T13:45:58Z</time>
      </trkpt>
      <trkpt lat="42.82495" lon="1.43575">
        <ele>1922.29</ele>
        <time>2016-10-30T13:46:29Z</time>
      </trkpt>
      <trkpt lat="42.82495" lon="1.43574">
        <ele>1921.81</ele>
        <time>2016-10-30T13:46:59Z</time>
      </trkpt>
      <trkpt lat="42.82495" lon="1.43573">
        <ele>1921.81</ele>
        <time>2016-10-30T13:47:19Z</time>
      </trkpt>
      <trkpt lat="42.82492" lon="1.43572">
        <ele>1921.33</ele>
        <time>2016-10-30T13:47:29Z</time>
      </trkpt>
      <trkpt lat="42.82492" lon="1.43572">
        <ele>1920.85</ele>
        <time>2016-10-30T13:47:32Z</time>
      </trkpt>
      <trkpt lat="42.8249" lon="1.43573">
        <ele>1920.85</ele>
        <time>2016-10-30T13:47:34Z</time>
      </trkpt>
      <trkpt lat="42.82482" lon="1.43569">
        <ele>1918.45</ele>
        <time>2016-10-30T13:47:43Z</time>
      </trkpt>
      <trkpt lat="42.82481" lon="1.43563">
        <ele>1917.97</ele>
        <time>2016-10-30T13:47:49Z</time>
      </trkpt>
      <trkpt lat="42.82479" lon="1.43563">
        <ele>1917.49</ele>
        <time>2016-10-30T13:47:51Z</time>
      </trkpt>
      <trkpt lat="42.82472" lon="1.43554">
        <ele>1916.04</ele>
        <time>2016-10-30T13:48:01Z</time>
      </trkpt>
      <trkpt lat="42.82466" lon="1.43552">
        <ele>1915.08</ele>
        <time>2016-10-30T13:48:11Z</time>
      </trkpt>
      <trkpt lat="42.82462" lon="1.43547">
        <ele>1912.2</ele>
        <time>2016-10-30T13:48:18Z</time>
      </trkpt>
      <trkpt lat="42.8246" lon="1.43544">
        <ele>1908.83</ele>
        <time>2016-10-30T13:48:23Z</time>
      </trkpt>
      <trkpt lat="42.82454" lon="1.4354">
        <ele>1908.35</ele>
        <time>2016-10-30T13:48:34Z</time>
      </trkpt>
      <trkpt lat="42.82451" lon="1.43538">
        <ele>1908.35</ele>
        <time>2016-10-30T13:48:39Z</time>
      </trkpt>
      <trkpt lat="42.82447" lon="1.43535">
        <ele>1907.87</ele>
        <time>2016-10-30T13:48:43Z</time>
      </trkpt>
      <trkpt lat="42.82445" lon="1.43532">
        <ele>1907.39</ele>
        <time>2016-10-30T13:48:48Z</time>
      </trkpt>
      <trkpt lat="42.82443" lon="1.43531">
        <ele>1906.91</ele>
        <time>2016-10-30T13:48:51Z</time>
      </trkpt>
      <trkpt lat="42.82441" lon="1.43527">
        <ele>1904.99</ele>
        <time>2016-10-30T13:48:58Z</time>
      </trkpt>
      <trkpt lat="42.82435" lon="1.43523">
        <ele>1901.63</ele>
        <time>2016-10-30T13:49:05Z</time>
      </trkpt>
      <trkpt lat="42.82434" lon="1.43518">
        <ele>1898.74</ele>
        <time>2016-10-30T13:49:09Z</time>
      </trkpt>
      <trkpt lat="42.82433" lon="1.43516">
        <ele>1897.78</ele>
        <time>2016-10-30T13:49:11Z</time>
      </trkpt>
      <trkpt lat="42.82427" lon="1.43512">
        <ele>1896.82</ele>
        <time>2016-10-30T13:49:19Z</time>
      </trkpt>
      <trkpt lat="42.82424" lon="1.43512">
        <ele>1896.82</ele>
        <time>2016-10-30T13:49:22Z</time>
      </trkpt>
      <trkpt lat="42.82417" lon="1.43505">
        <ele>1895.86</ele>
        <time>2016-10-30T13:49:31Z</time>
      </trkpt>
      <trkpt lat="42.82415" lon="1.43497">
        <ele>1894.9</ele>
        <time>2016-10-30T13:49:42Z</time>
      </trkpt>
      <trkpt lat="42.82413" lon="1.4349">
        <ele>1894.9</ele>
        <time>2016-10-30T13:49:51Z</time>
      </trkpt>
      <trkpt lat="42.82412" lon="1.43489">
        <ele>1894.9</ele>
        <time>2016-10-30T13:49:53Z</time>
      </trkpt>
      <trkpt lat="42.8241" lon="1.43488">
        <ele>1894.9</ele>
        <time>2016-10-30T13:49:56Z</time>
      </trkpt>
      <trkpt lat="42.82407" lon="1.43486">
        <ele>1894.42</ele>
        <time>2016-10-30T13:50:00Z</time>
      </trkpt>
      <trkpt lat="42.82406" lon="1.43484">
        <ele>1893.45</ele>
        <time>2016-10-30T13:50:02Z</time>
      </trkpt>
      <trkpt lat="42.82407" lon="1.43482">
        <ele>1893.93</ele>
        <time>2016-10-30T13:50:04Z</time>
      </trkpt>
      <trkpt lat="42.82409" lon="1.43473">
        <ele>1892.49</ele>
        <time>2016-10-30T13:50:14Z</time>
      </trkpt>
      <trkpt lat="42.82404" lon="1.43458">
        <ele>1892.49</ele>
        <time>2016-10-30T13:50:27Z</time>
      </trkpt>
      <trkpt lat="42.82404" lon="1.43456">
        <ele>1892.49</ele>
        <time>2016-10-30T13:50:29Z</time>
      </trkpt>
      <trkpt lat="42.82395" lon="1.4345">
        <ele>1892.49</ele>
        <time>2016-10-30T13:50:43Z</time>
      </trkpt>
      <trkpt lat="42.82393" lon="1.43449">
        <ele>1892.49</ele>
        <time>2016-10-30T13:50:46Z</time>
      </trkpt>
      <trkpt lat="42.82388" lon="1.43446">
        <ele>1892.49</ele>
        <time>2016-10-30T13:51:00Z</time>
      </trkpt>
      <trkpt lat="42.82388" lon="1.43447">
        <ele>1892.01</ele>
        <time>2016-10-30T13:51:20Z</time>
      </trkpt>
      <trkpt lat="42.82388" lon="1.43447">
        <ele>1892.01</ele>
        <time>2016-10-30T13:51:43Z</time>
      </trkpt>
      <trkpt lat="42.82389" lon="1.43447">
        <ele>1892.01</ele>
        <time>2016-10-30T13:52:15Z</time>
      </trkpt>
      <trkpt lat="42.82388" lon="1.43445">
        <ele>1892.01</ele>
        <time>2016-10-30T13:52:28Z</time>
      </trkpt>
      <trkpt lat="42.82387" lon="1.43444">
        <ele>1891.53</ele>
        <time>2016-10-30T13:52:52Z</time>
      </trkpt>
      <trkpt lat="42.82386" lon="1.43442">
        <ele>1891.53</ele>
        <time>2016-10-30T13:53:12Z</time>
      </trkpt>
      <trkpt lat="42.82387" lon="1.43441">
        <ele>1891.53</ele>
        <time>2016-10-30T13:53:25Z</time>
      </trkpt>
      <trkpt lat="42.82388" lon="1.43442">
        <ele>1891.05</ele>
        <time>2016-10-30T13:53:48Z</time>
      </trkpt>
      <trkpt lat="42.82388" lon="1.43443">
        <ele>1891.05</ele>
        <time>2016-10-30T13:54:13Z</time>
      </trkpt>
      <trkpt lat="42.82388" lon="1.43443">
        <ele>1891.05</ele>
        <time>2016-10-30T13:54:35Z</time>
      </trkpt>
      <trkpt lat="42.82387" lon="1.43444">
        <ele>1891.05</ele>
        <time>2016-10-30T13:54:49Z</time>
      </trkpt>
      <trkpt lat="42.82387" lon="1.43444">
        <ele>1891.05</ele>
        <time>2016-10-30T13:55:06Z</time>
      </trkpt>
      <trkpt lat="42.82388" lon="1.43444">
        <ele>1891.05</ele>
        <time>2016-10-30T13:55:23Z</time>
      </trkpt>
      <trkpt lat="42.82387" lon="1.43442">
        <ele>1891.05</ele>
        <time>2016-10-30T13:55:36Z</time>
      </trkpt>
      <trkpt lat="42.82386" lon="1.43436">
        <ele>1890.09</ele>
        <time>2016-10-30T13:55:42Z</time>
      </trkpt>
      <trkpt lat="42.82384" lon="1.43432">
        <ele>1889.13</ele>
        <time>2016-10-30T13:55:48Z</time>
      </trkpt>
      <trkpt lat="42.82378" lon="1.4343">
        <ele>1887.21</ele>
        <time>2016-10-30T13:56:00Z</time>
      </trkpt>
      <trkpt lat="42.82378" lon="1.4343">
        <ele>1886.72</ele>
        <time>2016-10-30T13:56:01Z</time>
      </trkpt>
      <trkpt lat="42.82375" lon="1.43424">
        <ele>1885.76</ele>
        <time>2016-10-30T13:56:07Z</time>
      </trkpt>
      <trkpt lat="42.82371" lon="1.43418">
        <ele>1883.84</ele>
        <time>2016-10-30T13:56:17Z</time>
      </trkpt>
      <trkpt lat="42.82369" lon="1.43417">
        <ele>1882.4</ele>
        <time>2016-10-30T13:56:20Z</time>
      </trkpt>
      <trkpt lat="42.82364" lon="1.43418">
        <ele>1879.51</ele>
        <time>2016-10-30T13:56:24Z</time>
      </trkpt>
      <trkpt lat="42.82364" lon="1.4341">
        <ele>1876.15</ele>
        <time>2016-10-30T13:56:35Z</time>
      </trkpt>
      <trkpt lat="42.82363" lon="1.43405">
        <ele>1875.67</ele>
        <time>2016-10-30T13:56:41Z</time>
      </trkpt>
      <trkpt lat="42.82361" lon="1.43398">
        <ele>1874.71</ele>
        <time>2016-10-30T13:56:48Z</time>
      </trkpt>
      <trkpt lat="42.82356" lon="1.434">
        <ele>1870.86</ele>
        <time>2016-10-30T13:56:56Z</time>
      </trkpt>
      <trkpt lat="42.82353" lon="1.43402">
        <ele>1868.46</ele>
        <time>2016-10-30T13:56:59Z</time>
      </trkpt>
      <trkpt lat="42.82346" lon="1.43397">
        <ele>1866.06</ele>
        <time>2016-10-30T13:57:09Z</time>
      </trkpt>
      <trkpt lat="42.82343" lon="1.43395">
        <ele>1866.06</ele>
        <time>2016-10-30T13:57:12Z</time>
      </trkpt>
      <trkpt lat="42.8234" lon="1.43389">
        <ele>1865.09</ele>
        <time>2016-10-30T13:57:22Z</time>
      </trkpt>
      <trkpt lat="42.82338" lon="1.43386">
        <ele>1864.13</ele>
        <time>2016-10-30T13:57:32Z</time>
      </trkpt>
      <trkpt lat="42.82332" lon="1.43376">
        <ele>1861.73</ele>
        <time>2016-10-30T13:57:46Z</time>
      </trkpt>
      <trkpt lat="42.82331" lon="1.43377">
        <ele>1859.33</ele>
        <time>2016-10-30T13:57:49Z</time>
      </trkpt>
      <trkpt lat="42.82327" lon="1.43378">
        <ele>1856.92</ele>
        <time>2016-10-30T13:57:56Z</time>
      </trkpt>
      <trkpt lat="42.82327" lon="1.43377">
        <ele>1856.92</ele>
        <time>2016-10-30T13:58:04Z</time>
      </trkpt>
      <trkpt lat="42.82326" lon="1.43375">
        <ele>1856.92</ele>
        <time>2016-10-30T13:58:06Z</time>
      </trkpt>
      <trkpt lat="42.82326" lon="1.43372">
        <ele>1856.44</ele>
        <time>2016-10-30T13:58:16Z</time>
      </trkpt>
      <trkpt lat="42.82324" lon="1.43369">
        <ele>1854.52</ele>
        <time>2016-10-30T13:58:26Z</time>
      </trkpt>
      <trkpt lat="42.82323" lon="1.43368">
        <ele>1853.08</ele>
        <time>2016-10-30T13:58:51Z</time>
      </trkpt>
      <trkpt lat="42.82323" lon="1.43366">
        <ele>1853.08</ele>
        <time>2016-10-30T13:59:09Z</time>
      </trkpt>
      <trkpt lat="42.82324" lon="1.43365">
        <ele>1852.6</ele>
        <time>2016-10-30T13:59:17Z</time>
      </trkpt>
      <trkpt lat="42.82321" lon="1.43362">
        <ele>1851.16</ele>
        <time>2016-10-30T13:59:23Z</time>
      </trkpt>
      <trkpt lat="42.82324" lon="1.43361">
        <ele>1850.19</ele>
        <time>2016-10-30T13:59:27Z</time>
      </trkpt>
      <trkpt lat="42.82324" lon="1.43355">
        <ele>1848.75</ele>
        <time>2016-10-30T13:59:32Z</time>
      </trkpt>
      <trkpt lat="42.82322" lon="1.43352">
        <ele>1844.91</ele>
        <time>2016-10-30T13:59:36Z</time>
      </trkpt>
      <trkpt lat="42.82322" lon="1.43351">
        <ele>1842.02</ele>
        <time>2016-10-30T13:59:39Z</time>
      </trkpt>
      <trkpt lat="42.82321" lon="1.43351">
        <ele>1842.02</ele>
        <time>2016-10-30T13:59:40Z</time>
      </trkpt>
      <trkpt lat="42.82321" lon="1.4335">
        <ele>1840.58</ele>
        <time>2016-10-30T13:59:42Z</time>
      </trkpt>
      <trkpt lat="42.82321" lon="1.4335">
        <ele>1841.06</ele>
        <time>2016-10-30T13:59:43Z</time>
      </trkpt>
      <trkpt lat="42.8232" lon="1.43345">
        <ele>1841.54</ele>
        <time>2016-10-30T13:59:51Z</time>
      </trkpt>
      <trkpt lat="42.82317" lon="1.43341">
        <ele>1841.06</ele>
        <time>2016-10-30T13:59:58Z</time>
      </trkpt>
      <trkpt lat="42.82313" lon="1.43339">
        <ele>1840.58</ele>
        <time>2016-10-30T14:00:07Z</time>
      </trkpt>
      <trkpt lat="42.82311" lon="1.4334">
        <ele>1840.1</ele>
        <time>2016-10-30T14:00:11Z</time>
      </trkpt>
      <trkpt lat="42.8231" lon="1.4334">
        <ele>1839.62</ele>
        <time>2016-10-30T14:00:13Z</time>
      </trkpt>
      <trkpt lat="42.82307" lon="1.43337">
        <ele>1838.66</ele>
        <time>2016-10-30T14:00:16Z</time>
      </trkpt>
      <trkpt lat="42.82301" lon="1.43331">
        <ele>1834.81</ele>
        <time>2016-10-30T14:00:23Z</time>
      </trkpt>
      <trkpt lat="42.823" lon="1.43329">
        <ele>1833.37</ele>
        <time>2016-10-30T14:00:25Z</time>
      </trkpt>
      <trkpt lat="42.82299" lon="1.43326">
        <ele>1831.45</ele>
        <time>2016-10-30T14:00:28Z</time>
      </trkpt>
      <trkpt lat="42.82294" lon="1.43323">
        <ele>1830.97</ele>
        <time>2016-10-30T14:00:38Z</time>
      </trkpt>
      <trkpt lat="42.82291" lon="1.43322">
        <ele>1830.97</ele>
        <time>2016-10-30T14:00:49Z</time>
      </trkpt>
      <trkpt lat="42.82288" lon="1.43324">
        <ele>1830.97</ele>
        <time>2016-10-30T14:00:57Z</time>
      </trkpt>
      <trkpt lat="42.82286" lon="1.43325">
        <ele>1830.49</ele>
        <time>2016-10-30T14:01:00Z</time>
      </trkpt>
      <trkpt lat="42.82282" lon="1.43325">
        <ele>1829.53</ele>
        <time>2016-10-30T14:01:04Z</time>
      </trkpt>
      <trkpt lat="42.82278" lon="1.43326">
        <ele>1828.56</ele>
        <time>2016-10-30T14:01:08Z</time>
      </trkpt>
      <trkpt lat="42.82277" lon="1.43328">
        <ele>1828.08</ele>
        <time>2016-10-30T14:01:10Z</time>
      </trkpt>
      <trkpt lat="42.82278" lon="1.43329">
        <ele>1828.08</ele>
        <time>2016-10-30T14:01:12Z</time>
      </trkpt>
      <trkpt lat="42.82273" lon="1.43337">
        <ele>1824.24</ele>
        <time>2016-10-30T14:01:19Z</time>
      </trkpt>
      <trkpt lat="42.82271" lon="1.43339">
        <ele>1823.76</ele>
        <time>2016-10-30T14:01:21Z</time>
      </trkpt>
      <trkpt lat="42.82269" lon="1.43336">
        <ele>1823.28</ele>
        <time>2016-10-30T14:01:26Z</time>
      </trkpt>
      <trkpt lat="42.82264" lon="1.43336">
        <ele>1822.8</ele>
        <time>2016-10-30T14:01:31Z</time>
      </trkpt>
      <trkpt lat="42.82262" lon="1.4334">
        <ele>1821.84</ele>
        <time>2016-10-30T14:01:35Z</time>
      </trkpt>
      <trkpt lat="42.8226" lon="1.43341">
        <ele>1821.35</ele>
        <time>2016-10-30T14:01:41Z</time>
      </trkpt>
      <trkpt lat="42.82258" lon="1.43343">
        <ele>1820.87</ele>
        <time>2016-10-30T14:01:45Z</time>
      </trkpt>
      <trkpt lat="42.82252" lon="1.43339">
        <ele>1818.95</ele>
        <time>2016-10-30T14:01:55Z</time>
      </trkpt>
      <trkpt lat="42.82251" lon="1.4334">
        <ele>1817.99</ele>
        <time>2016-10-30T14:02:07Z</time>
      </trkpt>
      <trkpt lat="42.8225" lon="1.43339">
        <ele>1817.51</ele>
        <time>2016-10-30T14:02:20Z</time>
      </trkpt>
      <trkpt lat="42.8225" lon="1.43336">
        <ele>1817.51</ele>
        <time>2016-10-30T14:02:25Z</time>
      </trkpt>
      <trkpt lat="42.82243" lon="1.43335">
        <ele>1817.51</ele>
        <time>2016-10-30T14:02:34Z</time>
      </trkpt>
      <trkpt lat="42.8224" lon="1.43334">
        <ele>1817.51</ele>
        <time>2016-10-30T14:02:38Z</time>
      </trkpt>
      <trkpt lat="42.82236" lon="1.43336">
        <ele>1816.55</ele>
        <time>2016-10-30T14:02:42Z</time>
      </trkpt>
      <trkpt lat="42.8223" lon="1.43337">
        <ele>1816.07</ele>
        <time>2016-10-30T14:02:53Z</time>
      </trkpt>
      <trkpt lat="42.8223" lon="1.43337">
        <ele>1816.07</ele>
        <time>2016-10-30T14:03:04Z</time>
      </trkpt>
      <trkpt lat="42.82231" lon="1.43335">
        <ele>1815.59</ele>
        <time>2016-10-30T14:03:19Z</time>
      </trkpt>
      <trkpt lat="42.82231" lon="1.43334">
        <ele>1815.59</ele>
        <time>2016-10-30T14:03:47Z</time>
      </trkpt>
      <trkpt lat="42.82229" lon="1.43333">
        <ele>1815.11</ele>
        <time>2016-10-30T14:04:07Z</time>
      </trkpt>
      <trkpt lat="42.82229" lon="1.43333">
        <ele>1815.11</ele>
        <time>2016-10-30T14:04:25Z</time>
      </trkpt>
      <trkpt lat="42.82229" lon="1.43333">
        <ele>1815.11</ele>
        <time>2016-10-30T14:04:45Z</time>
      </trkpt>
      <trkpt lat="42.82229" lon="1.43334">
        <ele>1815.11</ele>
        <time>2016-10-30T14:05:06Z</time>
      </trkpt>
      <trkpt lat="42.82228" lon="1.43333">
        <ele>1815.11</ele>
        <time>2016-10-30T14:05:36Z</time>
      </trkpt>
      <trkpt lat="42.82229" lon="1.43333">
        <ele>1815.11</ele>
        <time>2016-10-30T14:05:58Z</time>
      </trkpt>
      <trkpt lat="42.82229" lon="1.43335">
        <ele>1814.63</ele>
        <time>2016-10-30T14:06:26Z</time>
      </trkpt>
      <trkpt lat="42.82229" lon="1.43336">
        <ele>1814.63</ele>
        <time>2016-10-30T14:06:39Z</time>
      </trkpt>
      <trkpt lat="42.82229" lon="1.43336">
        <ele>1814.63</ele>
        <time>2016-10-30T14:07:06Z</time>
      </trkpt>
      <trkpt lat="42.82229" lon="1.43336">
        <ele>1814.63</ele>
        <time>2016-10-30T14:07:25Z</time>
      </trkpt>
      <trkpt lat="42.8223" lon="1.43337">
        <ele>1814.63</ele>
        <time>2016-10-30T14:07:53Z</time>
      </trkpt>
      <trkpt lat="42.82228" lon="1.43336">
        <ele>1814.63</ele>
        <time>2016-10-30T14:08:21Z</time>
      </trkpt>
      <trkpt lat="42.82224" lon="1.43338">
        <ele>1814.63</ele>
        <time>2016-10-30T14:08:27Z</time>
      </trkpt>
      <trkpt lat="42.82222" lon="1.43339">
        <ele>1814.63</ele>
        <time>2016-10-30T14:08:43Z</time>
      </trkpt>
      <trkpt lat="42.82221" lon="1.43339">
        <ele>1814.63</ele>
        <time>2016-10-30T14:08:52Z</time>
      </trkpt>
      <trkpt lat="42.82213" lon="1.4334">
        <ele>1814.15</ele>
        <time>2016-10-30T14:09:03Z</time>
      </trkpt>
      <trkpt lat="42.82205" lon="1.4334">
        <ele>1811.74</ele>
        <time>2016-10-30T14:09:14Z</time>
      </trkpt>
      <trkpt lat="42.82204" lon="1.43339">
        <ele>1811.26</ele>
        <time>2016-10-30T14:09:18Z</time>
      </trkpt>
      <trkpt lat="42.82202" lon="1.43341">
        <ele>1810.78</ele>
        <time>2016-10-30T14:09:21Z</time>
      </trkpt>
      <trkpt lat="42.82198" lon="1.43342">
        <ele>1808.86</ele>
        <time>2016-10-30T14:09:25Z</time>
      </trkpt>
      <trkpt lat="42.82193" lon="1.43345">
        <ele>1804.05</ele>
        <time>2016-10-30T14:09:30Z</time>
      </trkpt>
      <trkpt lat="42.82191" lon="1.43346">
        <ele>1803.09</ele>
        <time>2016-10-30T14:09:31Z</time>
      </trkpt>
      <trkpt lat="42.82187" lon="1.43345">
        <ele>1801.65</ele>
        <time>2016-10-30T14:09:34Z</time>
      </trkpt>
      <trkpt lat="42.82184" lon="1.43344">
        <ele>1804.53</ele>
        <time>2016-10-30T14:09:42Z</time>
      </trkpt>
      <trkpt lat="42.82184" lon="1.43343">
        <ele>1805.97</ele>
        <time>2016-10-30T14:09:46Z</time>
      </trkpt>
      <trkpt lat="42.82179" lon="1.43339">
        <ele>1804.05</ele>
        <time>2016-10-30T14:09:56Z</time>
      </trkpt>
      <trkpt lat="42.82178" lon="1.43339">
        <ele>1803.09</ele>
        <time>2016-10-30T14:10:04Z</time>
      </trkpt>
      <trkpt lat="42.82177" lon="1.43343">
        <ele>1802.13</ele>
        <time>2016-10-30T14:10:07Z</time>
      </trkpt>
      <trkpt lat="42.82174" lon="1.43347">
        <ele>1801.17</ele>
        <time>2016-10-30T14:10:14Z</time>
      </trkpt>
      <trkpt lat="42.82169" lon="1.43346">
        <ele>1797.8</ele>
        <time>2016-10-30T14:10:24Z</time>
      </trkpt>
      <trkpt lat="42.82169" lon="1.43346">
        <ele>1795.88</ele>
        <time>2016-10-30T14:10:43Z</time>
      </trkpt>
      <trkpt lat="42.82168" lon="1.43346">
        <ele>1795.88</ele>
        <time>2016-10-30T14:10:46Z</time>
      </trkpt>
      <trkpt lat="42.82166" lon="1.43348">
        <ele>1795.88</ele>
        <time>2016-10-30T14:10:56Z</time>
      </trkpt>
      <trkpt lat="42.82163" lon="1.43347">
        <ele>1793.48</ele>
        <time>2016-10-30T14:11:09Z</time>
      </trkpt>
      <trkpt lat="42.82161" lon="1.43349">
        <ele>1791.55</ele>
        <time>2016-10-30T14:11:20Z</time>
      </trkpt>
      <trkpt lat="42.82161" lon="1.43351">
        <ele>1790.59</ele>
        <time>2016-10-30T14:11:28Z</time>
      </trkpt>
      <trkpt lat="42.82159" lon="1.43354">
        <ele>1788.19</ele>
        <time>2016-10-30T14:11:43Z</time>
      </trkpt>
      <trkpt lat="42.82159" lon="1.43354">
        <ele>1788.19</ele>
        <time>2016-10-30T14:11:48Z</time>
      </trkpt>
      <trkpt lat="42.8216" lon="1.43366">
        <ele>1787.23</ele>
        <time>2016-10-30T14:12:01Z</time>
      </trkpt>
      <trkpt lat="42.8216" lon="1.4337">
        <ele>1786.75</ele>
        <time>2016-10-30T14:12:13Z</time>
      </trkpt>
      <trkpt lat="42.8216" lon="1.43371">
        <ele>1785.31</ele>
        <time>2016-10-30T14:12:27Z</time>
      </trkpt>
      <trkpt lat="42.82158" lon="1.43376">
        <ele>1783.86</ele>
        <time>2016-10-30T14:12:39Z</time>
      </trkpt>
      <trkpt lat="42.82158" lon="1.43376">
        <ele>1783.86</ele>
        <time>2016-10-30T14:12:41Z</time>
      </trkpt>
      <trkpt lat="42.82157" lon="1.43381">
        <ele>1781.94</ele>
        <time>2016-10-30T14:12:50Z</time>
      </trkpt>
      <trkpt lat="42.82155" lon="1.43385">
        <ele>1778.58</ele>
        <time>2016-10-30T14:13:00Z</time>
      </trkpt>
      <trkpt lat="42.82153" lon="1.43386">
        <ele>1776.65</ele>
        <time>2016-10-30T14:13:24Z</time>
      </trkpt>
      <trkpt lat="42.82152" lon="1.43391">
        <ele>1776.65</ele>
        <time>2016-10-30T14:13:36Z</time>
      </trkpt>
      <trkpt lat="42.82152" lon="1.4339">
        <ele>1776.17</ele>
        <time>2016-10-30T14:13:44Z</time>
      </trkpt>
      <trkpt lat="42.82155" lon="1.43392">
        <ele>1775.69</ele>
        <time>2016-10-30T14:13:49Z</time>
      </trkpt>
      <trkpt lat="42.82153" lon="1.43396">
        <ele>1773.77</ele>
        <time>2016-10-30T14:14:01Z</time>
      </trkpt>
      <trkpt lat="42.82152" lon="1.43397">
        <ele>1772.81</ele>
        <time>2016-10-30T14:14:24Z</time>
      </trkpt>
      <trkpt lat="42.82151" lon="1.43397">
        <ele>1772.33</ele>
        <time>2016-10-30T14:14:42Z</time>
      </trkpt>
      <trkpt lat="42.8215" lon="1.43397">
        <ele>1772.33</ele>
        <time>2016-10-30T14:14:44Z</time>
      </trkpt>
      <trkpt lat="42.82149" lon="1.43402">
        <ele>1771.37</ele>
        <time>2016-10-30T14:14:52Z</time>
      </trkpt>
      <trkpt lat="42.82143" lon="1.43408">
        <ele>1769.44</ele>
        <time>2016-10-30T14:15:03Z</time>
      </trkpt>
      <trkpt lat="42.82142" lon="1.43409">
        <ele>1768.96</ele>
        <time>2016-10-30T14:15:08Z</time>
      </trkpt>
      <trkpt lat="42.8214" lon="1.43412">
        <ele>1767.52</ele>
        <time>2016-10-30T14:15:21Z</time>
      </trkpt>
      <trkpt lat="42.82137" lon="1.43414">
        <ele>1766.08</ele>
        <time>2016-10-30T14:15:28Z</time>
      </trkpt>
      <trkpt lat="42.82136" lon="1.43418">
        <ele>1763.68</ele>
        <time>2016-10-30T14:15:41Z</time>
      </trkpt>
      <trkpt lat="42.82136" lon="1.43418">
        <ele>1762.71</ele>
        <time>2016-10-30T14:15:58Z</time>
      </trkpt>
      <trkpt lat="42.82135" lon="1.43418">
        <ele>1762.23</ele>
        <time>2016-10-30T14:16:09Z</time>
      </trkpt>
      <trkpt lat="42.82136" lon="1.43422">
        <ele>1761.75</ele>
        <time>2016-10-30T14:16:21Z</time>
      </trkpt>
      <trkpt lat="42.82134" lon="1.43429">
        <ele>1760.31</ele>
        <time>2016-10-30T14:16:29Z</time>
      </trkpt>
      <trkpt lat="42.82128" lon="1.43434">
        <ele>1759.83</ele>
        <time>2016-10-30T14:16:34Z</time>
      </trkpt>
      <trkpt lat="42.82124" lon="1.43443">
        <ele>1757.91</ele>
        <time>2016-10-30T14:16:44Z</time>
      </trkpt>
      <trkpt lat="42.82123" lon="1.43446">
        <ele>1757.43</ele>
        <time>2016-10-30T14:16:53Z</time>
      </trkpt>
      <trkpt lat="42.82123" lon="1.43444">
        <ele>1756.95</ele>
        <time>2016-10-30T14:17:17Z</time>
      </trkpt>
      <trkpt lat="42.82124" lon="1.43443">
        <ele>1756.95</ele>
        <time>2016-10-30T14:17:34Z</time>
      </trkpt>
      <trkpt lat="42.82124" lon="1.43442">
        <ele>1756.95</ele>
        <time>2016-10-30T14:17:55Z</time>
      </trkpt>
      <trkpt lat="42.82124" lon="1.43443">
        <ele>1756.95</ele>
        <time>2016-10-30T14:18:17Z</time>
      </trkpt>
      <trkpt lat="42.82124" lon="1.43444">
        <ele>1756.95</ele>
        <time>2016-10-30T14:18:30Z</time>
      </trkpt>
      <trkpt lat="42.82125" lon="1.43445">
        <ele>1756.95</ele>
        <time>2016-10-30T14:18:49Z</time>
      </trkpt>
      <trkpt lat="42.82125" lon="1.43447">
        <ele>1756.95</ele>
        <time>2016-10-30T14:18:51Z</time>
      </trkpt>
      <trkpt lat="42.82121" lon="1.43451">
        <ele>1756.95</ele>
        <time>2016-10-30T14:18:55Z</time>
      </trkpt>
      <trkpt lat="42.82118" lon="1.43458">
        <ele>1756.47</ele>
        <time>2016-10-30T14:19:03Z</time>
      </trkpt>
      <trkpt lat="42.82112" lon="1.4347">
        <ele>1755.5</ele>
        <time>2016-10-30T14:19:15Z</time>
      </trkpt>
      <trkpt lat="42.8211" lon="1.4347">
        <ele>1755.02</ele>
        <time>2016-10-30T14:19:18Z</time>
      </trkpt>
      <trkpt lat="42.82108" lon="1.43472">
        <ele>1755.02</ele>
        <time>2016-10-30T14:19:21Z</time>
      </trkpt>
      <trkpt lat="42.82107" lon="1.43479">
        <ele>1753.1</ele>
        <time>2016-10-30T14:19:29Z</time>
      </trkpt>
      <trkpt lat="42.82108" lon="1.43484">
        <ele>1752.62</ele>
        <time>2016-10-30T14:19:41Z</time>
      </trkpt>
      <trkpt lat="42.82105" lon="1.43489">
        <ele>1751.18</ele>
        <time>2016-10-30T14:19:51Z</time>
      </trkpt>
      <trkpt lat="42.82105" lon="1.43488">
        <ele>1750.7</ele>
        <time>2016-10-30T14:20:06Z</time>
      </trkpt>
      <trkpt lat="42.82105" lon="1.43487">
        <ele>1750.7</ele>
        <time>2016-10-30T14:20:20Z</time>
      </trkpt>
      <trkpt lat="42.82106" lon="1.43487">
        <ele>1750.7</ele>
        <time>2016-10-30T14:20:41Z</time>
      </trkpt>
      <trkpt lat="42.82106" lon="1.43487">
        <ele>1750.22</ele>
        <time>2016-10-30T14:21:03Z</time>
      </trkpt>
      <trkpt lat="42.82106" lon="1.43486">
        <ele>1749.74</ele>
        <time>2016-10-30T14:21:38Z</time>
      </trkpt>
      <trkpt lat="42.82106" lon="1.43488">
        <ele>1749.74</ele>
        <time>2016-10-30T14:21:52Z</time>
      </trkpt>
      <trkpt lat="42.82106" lon="1.43489">
        <ele>1749.74</ele>
        <time>2016-10-30T14:22:07Z</time>
      </trkpt>
      <trkpt lat="42.82106" lon="1.43487">
        <ele>1749.74</ele>
        <time>2016-10-30T14:22:30Z</time>
      </trkpt>
      <trkpt lat="42.82106" lon="1.43489">
        <ele>1749.74</ele>
        <time>2016-10-30T14:22:36Z</time>
      </trkpt>
      <trkpt lat="42.82104" lon="1.43498">
        <ele>1748.78</ele>
        <time>2016-10-30T14:22:48Z</time>
      </trkpt>
      <trkpt lat="42.82103" lon="1.435">
        <ele>1748.78</ele>
        <time>2016-10-30T14:22:50Z</time>
      </trkpt>
      <trkpt lat="42.82103" lon="1.43505">
        <ele>1747.81</ele>
        <time>2016-10-30T14:22:54Z</time>
      </trkpt>
      <trkpt lat="42.821" lon="1.43509">
        <ele>1744.93</ele>
        <time>2016-10-30T14:23:00Z</time>
      </trkpt>
      <trkpt lat="42.821" lon="1.43515">
        <ele>1742.05</ele>
        <time>2016-10-30T14:23:05Z</time>
      </trkpt>
      <trkpt lat="42.82095" lon="1.43526">
        <ele>1742.05</ele>
        <time>2016-10-30T14:23:16Z</time>
      </trkpt>
      <trkpt lat="42.82096" lon="1.43534">
        <ele>1741.57</ele>
        <time>2016-10-30T14:23:23Z</time>
      </trkpt>
      <trkpt lat="42.82094" lon="1.43546">
        <ele>1740.12</ele>
        <time>2016-10-30T14:23:33Z</time>
      </trkpt>
      <trkpt lat="42.82093" lon="1.43548">
        <ele>1740.12</ele>
        <time>2016-10-30T14:23:42Z</time>
      </trkpt>
      <trkpt lat="42.82095" lon="1.4355">
        <ele>1740.12</ele>
        <time>2016-10-30T14:23:44Z</time>
      </trkpt>
      <trkpt lat="42.82094" lon="1.43552">
        <ele>1740.12</ele>
        <time>2016-10-30T14:23:46Z</time>
      </trkpt>
      <trkpt lat="42.82096" lon="1.43557">
        <ele>1740.12</ele>
        <time>2016-10-30T14:23:56Z</time>
      </trkpt>
      <trkpt lat="42.82096" lon="1.43558">
        <ele>1740.12</ele>
        <time>2016-10-30T14:23:57Z</time>
      </trkpt>
      <trkpt lat="42.82098" lon="1.43559">
        <ele>1741.57</ele>
        <time>2016-10-30T14:24:00Z</time>
      </trkpt>
      <trkpt lat="42.82101" lon="1.43562">
        <ele>1741.57</ele>
        <time>2016-10-30T14:24:04Z</time>
      </trkpt>
      <trkpt lat="42.82103" lon="1.43567">
        <ele>1743.49</ele>
        <time>2016-10-30T14:24:13Z</time>
      </trkpt>
      <trkpt lat="42.82103" lon="1.43568">
        <ele>1744.45</ele>
        <time>2016-10-30T14:24:32Z</time>
      </trkpt>
      <trkpt lat="42.82103" lon="1.43567">
        <ele>1744.93</ele>
        <time>2016-10-30T14:24:52Z</time>
      </trkpt>
      <trkpt lat="42.82102" lon="1.43565">
        <ele>1744.45</ele>
        <time>2016-10-30T14:25:14Z</time>
      </trkpt>
      <trkpt lat="42.82102" lon="1.43568">
        <ele>1744.45</ele>
        <time>2016-10-30T14:25:34Z</time>
      </trkpt>
      <trkpt lat="42.82101" lon="1.43567">
        <ele>1744.45</ele>
        <time>2016-10-30T14:25:49Z</time>
      </trkpt>
      <trkpt lat="42.821" lon="1.43571">
        <ele>1744.45</ele>
        <time>2016-10-30T14:25:52Z</time>
      </trkpt>
      <trkpt lat="42.821" lon="1.43574">
        <ele>1744.45</ele>
        <time>2016-10-30T14:25:56Z</time>
      </trkpt>
      <trkpt lat="42.821" lon="1.43577">
        <ele>1743.01</ele>
        <time>2016-10-30T14:26:01Z</time>
      </trkpt>
      <trkpt lat="42.82099" lon="1.43579">
        <ele>1742.53</ele>
        <time>2016-10-30T14:26:05Z</time>
      </trkpt>
      <trkpt lat="42.82102" lon="1.43581">
        <ele>1741.08</ele>
        <time>2016-10-30T14:26:09Z</time>
      </trkpt>
      <trkpt lat="42.82102" lon="1.43583">
        <ele>1738.68</ele>
        <time>2016-10-30T14:26:12Z</time>
      </trkpt>
      <trkpt lat="42.82098" lon="1.43589">
        <ele>1734.36</ele>
        <time>2016-10-30T14:26:18Z</time>
      </trkpt>
      <trkpt lat="42.82099" lon="1.43592">
        <ele>1735.8</ele>
        <time>2016-10-30T14:26:35Z</time>
      </trkpt>
      <trkpt lat="42.82098" lon="1.43593">
        <ele>1735.32</ele>
        <time>2016-10-30T14:26:52Z</time>
      </trkpt>
      <trkpt lat="42.82098" lon="1.43592">
        <ele>1735.32</ele>
        <time>2016-10-30T14:27:18Z</time>
      </trkpt>
      <trkpt lat="42.82098" lon="1.43592">
        <ele>1735.32</ele>
        <time>2016-10-30T14:27:49Z</time>
      </trkpt>
      <trkpt lat="42.82099" lon="1.43593">
        <ele>1735.8</ele>
        <time>2016-10-30T14:28:13Z</time>
      </trkpt>
      <trkpt lat="42.82097" lon="1.43592">
        <ele>1735.8</ele>
        <time>2016-10-30T14:28:27Z</time>
      </trkpt>
      <trkpt lat="42.82096" lon="1.43599">
        <ele>1735.8</ele>
        <time>2016-10-30T14:28:34Z</time>
      </trkpt>
      <trkpt lat="42.82095" lon="1.436">
        <ele>1735.8</ele>
        <time>2016-10-30T14:28:36Z</time>
      </trkpt>
      <trkpt lat="42.82094" lon="1.43603">
        <ele>1734.36</ele>
        <time>2016-10-30T14:28:38Z</time>
      </trkpt>
      <trkpt lat="42.82096" lon="1.43609">
        <ele>1733.39</ele>
        <time>2016-10-30T14:28:42Z</time>
      </trkpt>
      <trkpt lat="42.82097" lon="1.43615">
        <ele>1733.39</ele>
        <time>2016-10-30T14:28:46Z</time>
      </trkpt>
      <trkpt lat="42.82095" lon="1.43617">
        <ele>1732.43</ele>
        <time>2016-10-30T14:28:48Z</time>
      </trkpt>
      <trkpt lat="42.82091" lon="1.43621">
        <ele>1731.95</ele>
        <time>2016-10-30T14:28:53Z</time>
      </trkpt>
      <trkpt lat="42.82088" lon="1.43628">
        <ele>1731.47</ele>
        <time>2016-10-30T14:28:59Z</time>
      </trkpt>
      <trkpt lat="42.82083" lon="1.43631">
        <ele>1731.47</ele>
        <time>2016-10-30T14:29:09Z</time>
      </trkpt>
      <trkpt lat="42.82083" lon="1.43631">
        <ele>1732.91</ele>
        <time>2016-10-30T14:29:29Z</time>
      </trkpt>
      <trkpt lat="42.82084" lon="1.43632">
        <ele>1732.91</ele>
        <time>2016-10-30T14:29:33Z</time>
      </trkpt>
      <trkpt lat="42.82083" lon="1.43635">
        <ele>1732.43</ele>
        <time>2016-10-30T14:29:36Z</time>
      </trkpt>
      <trkpt lat="42.8208" lon="1.43636">
        <ele>1732.43</ele>
        <time>2016-10-30T14:29:39Z</time>
      </trkpt>
      <trkpt lat="42.82076" lon="1.43635">
        <ele>1732.43</ele>
        <time>2016-10-30T14:29:43Z</time>
      </trkpt>
      <trkpt lat="42.82074" lon="1.43631">
        <ele>1733.39</ele>
        <time>2016-10-30T14:29:47Z</time>
      </trkpt>
      <trkpt lat="42.82075" lon="1.43626">
        <ele>1734.84</ele>
        <time>2016-10-30T14:29:59Z</time>
      </trkpt>
      <trkpt lat="42.82075" lon="1.43625">
        <ele>1735.8</ele>
        <time>2016-10-30T14:30:21Z</time>
      </trkpt>
      <trkpt lat="42.82075" lon="1.43625">
        <ele>1736.28</ele>
        <time>2016-10-30T14:30:44Z</time>
      </trkpt>
      <trkpt lat="42.82076" lon="1.43629">
        <ele>1736.28</ele>
        <time>2016-10-30T14:30:59Z</time>
      </trkpt>
      <trkpt lat="42.82072" lon="1.4364">
        <ele>1734.84</ele>
        <time>2016-10-30T14:31:08Z</time>
      </trkpt>
      <trkpt lat="42.82066" lon="1.43649">
        <ele>1734.84</ele>
        <time>2016-10-30T14:31:18Z</time>
      </trkpt>
      <trkpt lat="42.82059" lon="1.43655">
        <ele>1734.84</ele>
        <time>2016-10-30T14:31:27Z</time>
      </trkpt>
      <trkpt lat="42.82058" lon="1.43656">
        <ele>1734.84</ele>
        <time>2016-10-30T14:31:28Z</time>
      </trkpt>
      <trkpt lat="42.82056" lon="1.43669">
        <ele>1734.84</ele>
        <time>2016-10-30T14:31:38Z</time>
      </trkpt>
      <trkpt lat="42.82053" lon="1.43677">
        <ele>1734.84</ele>
        <time>2016-10-30T14:31:47Z</time>
      </trkpt>
      <trkpt lat="42.82054" lon="1.43687">
        <ele>1733.88</ele>
        <time>2016-10-30T14:31:53Z</time>
      </trkpt>
      <trkpt lat="42.82052" lon="1.43692">
        <ele>1733.39</ele>
        <time>2016-10-30T14:31:58Z</time>
      </trkpt>
      <trkpt lat="42.82043" lon="1.43702">
        <ele>1733.39</ele>
        <time>2016-10-30T14:32:09Z</time>
      </trkpt>
      <trkpt lat="42.82039" lon="1.43704">
        <ele>1733.39</ele>
        <time>2016-10-30T14:32:22Z</time>
      </trkpt>
      <trkpt lat="42.8204" lon="1.43704">
        <ele>1734.36</ele>
        <time>2016-10-30T14:32:42Z</time>
      </trkpt>
      <trkpt lat="42.8204" lon="1.43704">
        <ele>1734.36</ele>
        <time>2016-10-30T14:33:01Z</time>
      </trkpt>
      <trkpt lat="42.8204" lon="1.43705">
        <ele>1734.36</ele>
        <time>2016-10-30T14:33:26Z</time>
      </trkpt>
      <trkpt lat="42.8204" lon="1.43705">
        <ele>1734.36</ele>
        <time>2016-10-30T14:33:46Z</time>
      </trkpt>
      <trkpt lat="42.8204" lon="1.43705">
        <ele>1734.36</ele>
        <time>2016-10-30T14:34:06Z</time>
      </trkpt>
      <trkpt lat="42.8204" lon="1.43705">
        <ele>1734.36</ele>
        <time>2016-10-30T14:34:34Z</time>
      </trkpt>
      <trkpt lat="42.82039" lon="1.43704">
        <ele>1734.36</ele>
        <time>2016-10-30T14:35:04Z</time>
      </trkpt>
      <trkpt lat="42.82039" lon="1.43705">
        <ele>1734.36</ele>
        <time>2016-10-30T14:35:22Z</time>
      </trkpt>
      <trkpt lat="42.82039" lon="1.43704">
        <ele>1734.36</ele>
        <time>2016-10-30T14:35:49Z</time>
      </trkpt>
      <trkpt lat="42.82039" lon="1.43704">
        <ele>1733.88</ele>
        <time>2016-10-30T14:36:16Z</time>
      </trkpt>
      <trkpt lat="42.82039" lon="1.43705">
        <ele>1733.88</ele>
        <time>2016-10-30T14:36:30Z</time>
      </trkpt>
      <trkpt lat="42.82039" lon="1.43705">
        <ele>1733.88</ele>
        <time>2016-10-30T14:36:54Z</time>
      </trkpt>
      <trkpt lat="42.82038" lon="1.43705">
        <ele>1733.88</ele>
        <time>2016-10-30T14:37:18Z</time>
      </trkpt>
      <trkpt lat="42.82038" lon="1.43706">
        <ele>1733.88</ele>
        <time>2016-10-30T14:37:32Z</time>
      </trkpt>
      <trkpt lat="42.82038" lon="1.43706">
        <ele>1733.88</ele>
        <time>2016-10-30T14:37:57Z</time>
      </trkpt>
      <trkpt lat="42.82038" lon="1.43704">
        <ele>1733.88</ele>
        <time>2016-10-30T14:38:17Z</time>
      </trkpt>
      <trkpt lat="42.82038" lon="1.43705">
        <ele>1733.88</ele>
        <time>2016-10-30T14:38:33Z</time>
      </trkpt>
      <trkpt lat="42.82034" lon="1.43709">
        <ele>1733.88</ele>
        <time>2016-10-30T14:38:43Z</time>
      </trkpt>
      <trkpt lat="42.82026" lon="1.43716">
        <ele>1732.91</ele>
        <time>2016-10-30T14:38:53Z</time>
      </trkpt>
      <trkpt lat="42.82018" lon="1.43726">
        <ele>1732.43</ele>
        <time>2016-10-30T14:39:04Z</time>
      </trkpt>
      <trkpt lat="42.82008" lon="1.43737">
        <ele>1731.95</ele>
        <time>2016-10-30T14:39:16Z</time>
      </trkpt>
      <trkpt lat="42.82002" lon="1.43734">
        <ele>1731.95</ele>
        <time>2016-10-30T14:39:26Z</time>
      </trkpt>
      <trkpt lat="42.81999" lon="1.43734">
        <ele>1731.95</ele>
        <time>2016-10-30T14:39:31Z</time>
      </trkpt>
      <trkpt lat="42.81996" lon="1.43737">
        <ele>1731.95</ele>
        <time>2016-10-30T14:39:44Z</time>
      </trkpt>
      <trkpt lat="42.8199" lon="1.43741">
        <ele>1731.95</ele>
        <time>2016-10-30T14:39:53Z</time>
      </trkpt>
      <trkpt lat="42.81988" lon="1.43742">
        <ele>1731.95</ele>
        <time>2016-10-30T14:39:55Z</time>
      </trkpt>
      <trkpt lat="42.81989" lon="1.4374">
        <ele>1731.95</ele>
        <time>2016-10-30T14:40:06Z</time>
      </trkpt>
      <trkpt lat="42.81989" lon="1.4374">
        <ele>1730.99</ele>
        <time>2016-10-30T14:40:19Z</time>
      </trkpt>
      <trkpt lat="42.8199" lon="1.4374">
        <ele>1730.99</ele>
        <time>2016-10-30T14:40:39Z</time>
      </trkpt>
      <trkpt lat="42.8199" lon="1.43741">
        <ele>1730.99</ele>
        <time>2016-10-30T14:40:56Z</time>
      </trkpt>
      <trkpt lat="42.8199" lon="1.4374">
        <ele>1730.99</ele>
        <time>2016-10-30T14:41:09Z</time>
      </trkpt>
      <trkpt lat="42.8199" lon="1.4374">
        <ele>1730.99</ele>
        <time>2016-10-30T14:41:23Z</time>
      </trkpt>
      <trkpt lat="42.81992" lon="1.4374">
        <ele>1730.99</ele>
        <time>2016-10-30T14:41:44Z</time>
      </trkpt>
      <trkpt lat="42.81991" lon="1.43742">
        <ele>1730.99</ele>
        <time>2016-10-30T14:42:04Z</time>
      </trkpt>
      <trkpt lat="42.8199" lon="1.4374">
        <ele>1730.99</ele>
        <time>2016-10-30T14:42:28Z</time>
      </trkpt>
      <trkpt lat="42.81991" lon="1.4374">
        <ele>1730.51</ele>
        <time>2016-10-30T14:42:49Z</time>
      </trkpt>
      <trkpt lat="42.81991" lon="1.43739">
        <ele>1730.51</ele>
        <time>2016-10-30T14:43:08Z</time>
      </trkpt>
      <trkpt lat="42.81991" lon="1.4374">
        <ele>1730.51</ele>
        <time>2016-10-30T14:43:29Z</time>
      </trkpt>
      <trkpt lat="42.81991" lon="1.4374">
        <ele>1730.51</ele>
        <time>2016-10-30T14:43:49Z</time>
      </trkpt>
      <trkpt lat="42.8199" lon="1.43741">
        <ele>1730.51</ele>
        <time>2016-10-30T14:44:01Z</time>
      </trkpt>
      <trkpt lat="42.8199" lon="1.4374">
        <ele>1730.51</ele>
        <time>2016-10-30T14:44:14Z</time>
      </trkpt>
      <trkpt lat="42.8199" lon="1.4374">
        <ele>1730.51</ele>
        <time>2016-10-30T14:44:31Z</time>
      </trkpt>
      <trkpt lat="42.8199" lon="1.4374">
        <ele>1730.51</ele>
        <time>2016-10-30T14:44:49Z</time>
      </trkpt>
      <trkpt lat="42.8199" lon="1.43741">
        <ele>1730.51</ele>
        <time>2016-10-30T14:45:11Z</time>
      </trkpt>
      <trkpt lat="42.81991" lon="1.4374">
        <ele>1730.51</ele>
        <time>2016-10-30T14:45:37Z</time>
      </trkpt>
      <trkpt lat="42.8199" lon="1.43739">
        <ele>1730.51</ele>
        <time>2016-10-30T14:45:55Z</time>
      </trkpt>
      <trkpt lat="42.81991" lon="1.43739">
        <ele>1730.03</ele>
        <time>2016-10-30T14:46:16Z</time>
      </trkpt>
      <trkpt lat="42.8199" lon="1.43739">
        <ele>1730.03</ele>
        <time>2016-10-30T14:46:30Z</time>
      </trkpt>
      <trkpt lat="42.8199" lon="1.43739">
        <ele>1730.03</ele>
        <time>2016-10-30T14:46:49Z</time>
      </trkpt>
      <trkpt lat="42.8199" lon="1.4374">
        <ele>1730.03</ele>
        <time>2016-10-30T14:47:12Z</time>
      </trkpt>
      <trkpt lat="42.8199" lon="1.43739">
        <ele>1730.03</ele>
        <time>2016-10-30T14:47:31Z</time>
      </trkpt>
      <trkpt lat="42.8199" lon="1.43739">
        <ele>1730.03</ele>
        <time>2016-10-30T14:47:54Z</time>
      </trkpt>
      <trkpt lat="42.81991" lon="1.43739">
        <ele>1730.03</ele>
        <time>2016-10-30T14:48:18Z</time>
      </trkpt>
      <trkpt lat="42.81991" lon="1.43739">
        <ele>1730.03</ele>
        <time>2016-10-30T14:48:40Z</time>
      </trkpt>
      <trkpt lat="42.81991" lon="1.43739">
        <ele>1730.03</ele>
        <time>2016-10-30T14:48:57Z</time>
      </trkpt>
      <trkpt lat="42.81991" lon="1.4374">
        <ele>1730.03</ele>
        <time>2016-10-30T14:49:21Z</time>
      </trkpt>
      <trkpt lat="42.81991" lon="1.4374">
        <ele>1730.03</ele>
        <time>2016-10-30T14:49:41Z</time>
      </trkpt>
      <trkpt lat="42.81991" lon="1.4374">
        <ele>1730.03</ele>
        <time>2016-10-30T14:49:55Z</time>
      </trkpt>
      <trkpt lat="42.81991" lon="1.4374">
        <ele>1730.03</ele>
        <time>2016-10-30T14:50:16Z</time>
      </trkpt>
      <trkpt lat="42.8199" lon="1.43739">
        <ele>1729.07</ele>
        <time>2016-10-30T14:50:34Z</time>
      </trkpt>
      <trkpt lat="42.8199" lon="1.4374">
        <ele>1729.07</ele>
        <time>2016-10-30T14:50:57Z</time>
      </trkpt>
      <trkpt lat="42.81991" lon="1.4374">
        <ele>1729.07</ele>
        <time>2016-10-30T14:51:08Z</time>
      </trkpt>
      <trkpt lat="42.8199" lon="1.43739">
        <ele>1729.07</ele>
        <time>2016-10-30T14:51:31Z</time>
      </trkpt>
      <trkpt lat="42.81991" lon="1.43738">
        <ele>1729.07</ele>
        <time>2016-10-30T14:51:51Z</time>
      </trkpt>
      <trkpt lat="42.81989" lon="1.43739">
        <ele>1729.07</ele>
        <time>2016-10-30T14:52:09Z</time>
      </trkpt>
      <trkpt lat="42.81988" lon="1.4374">
        <ele>1729.07</ele>
        <time>2016-10-30T14:52:35Z</time>
      </trkpt>
      <trkpt lat="42.81988" lon="1.43739">
        <ele>1728.59</ele>
        <time>2016-10-30T14:53:01Z</time>
      </trkpt>
      <trkpt lat="42.81988" lon="1.4374">
        <ele>1728.59</ele>
        <time>2016-10-30T14:53:28Z</time>
      </trkpt>
      <trkpt lat="42.81988" lon="1.4374">
        <ele>1728.11</ele>
        <time>2016-10-30T14:53:55Z</time>
      </trkpt>
      <trkpt lat="42.81988" lon="1.4374">
        <ele>1728.11</ele>
        <time>2016-10-30T14:54:17Z</time>
      </trkpt>
      <trkpt lat="42.81989" lon="1.4374">
        <ele>1728.11</ele>
        <time>2016-10-30T14:54:44Z</time>
      </trkpt>
      <trkpt lat="42.81989" lon="1.4374">
        <ele>1728.11</ele>
        <time>2016-10-30T14:55:05Z</time>
      </trkpt>
      <trkpt lat="42.81987" lon="1.43739">
        <ele>1728.11</ele>
        <time>2016-10-30T14:55:17Z</time>
      </trkpt>
      <trkpt lat="42.81979" lon="1.43727">
        <ele>1727.63</ele>
        <time>2016-10-30T14:55:27Z</time>
      </trkpt>
      <trkpt lat="42.81979" lon="1.43723">
        <ele>1726.67</ele>
        <time>2016-10-30T14:55:31Z</time>
      </trkpt>
      <trkpt lat="42.81974" lon="1.4372">
        <ele>1727.15</ele>
        <time>2016-10-30T14:55:39Z</time>
      </trkpt>
      <trkpt lat="42.81965" lon="1.43716">
        <ele>1728.11</ele>
        <time>2016-10-30T14:55:49Z</time>
      </trkpt>
      <trkpt lat="42.81957" lon="1.43716">
        <ele>1729.07</ele>
        <time>2016-10-30T14:55:56Z</time>
      </trkpt>
      <trkpt lat="42.81955" lon="1.43716">
        <ele>1729.07</ele>
        <time>2016-10-30T14:55:58Z</time>
      </trkpt>
      <trkpt lat="42.81949" lon="1.43726">
        <ele>1730.03</ele>
        <time>2016-10-30T14:56:06Z</time>
      </trkpt>
      <trkpt lat="42.81945" lon="1.43732">
        <ele>1730.03</ele>
        <time>2016-10-30T14:56:11Z</time>
      </trkpt>
      <trkpt lat="42.81937" lon="1.43734">
        <ele>1730.51</ele>
        <time>2016-10-30T14:56:18Z</time>
      </trkpt>
      <trkpt lat="42.81935" lon="1.43733">
        <ele>1730.51</ele>
        <time>2016-10-30T14:56:20Z</time>
      </trkpt>
      <trkpt lat="42.81932" lon="1.43731">
        <ele>1730.51</ele>
        <time>2016-10-30T14:56:27Z</time>
      </trkpt>
      <trkpt lat="42.81923" lon="1.43719">
        <ele>1730.51</ele>
        <time>2016-10-30T14:56:37Z</time>
      </trkpt>
      <trkpt lat="42.81919" lon="1.43716">
        <ele>1730.51</ele>
        <time>2016-10-30T14:56:42Z</time>
      </trkpt>
      <trkpt lat="42.81907" lon="1.43716">
        <ele>1730.51</ele>
        <time>2016-10-30T14:56:50Z</time>
      </trkpt>
      <trkpt lat="42.81905" lon="1.43714">
        <ele>1730.51</ele>
        <time>2016-10-30T14:56:58Z</time>
      </trkpt>
      <trkpt lat="42.81904" lon="1.43718">
        <ele>1730.51</ele>
        <time>2016-10-30T14:57:01Z</time>
      </trkpt>
      <trkpt lat="42.81903" lon="1.43719">
        <ele>1730.51</ele>
        <time>2016-10-30T14:57:03Z</time>
      </trkpt>
      <trkpt lat="42.81898" lon="1.43728">
        <ele>1729.07</ele>
        <time>2016-10-30T14:57:10Z</time>
      </trkpt>
      <trkpt lat="42.81893" lon="1.4373">
        <ele>1728.11</ele>
        <time>2016-10-30T14:57:15Z</time>
      </trkpt>
      <trkpt lat="42.81892" lon="1.43734">
        <ele>1727.63</ele>
        <time>2016-10-30T14:57:18Z</time>
      </trkpt>
      <trkpt lat="42.81884" lon="1.43744">
        <ele>1727.15</ele>
        <time>2016-10-30T14:57:28Z</time>
      </trkpt>
      <trkpt lat="42.81884" lon="1.43747">
        <ele>1727.15</ele>
        <time>2016-10-30T14:57:30Z</time>
      </trkpt>
      <trkpt lat="42.81875" lon="1.43758">
        <ele>1727.15</ele>
        <time>2016-10-30T14:57:41Z</time>
      </trkpt>
      <trkpt lat="42.81873" lon="1.43763">
        <ele>1726.67</ele>
        <time>2016-10-30T14:57:49Z</time>
      </trkpt>
      <trkpt lat="42.81875" lon="1.43765">
        <ele>1726.67</ele>
        <time>2016-10-30T14:57:51Z</time>
      </trkpt>
      <trkpt lat="42.81873" lon="1.43778">
        <ele>1726.18</ele>
        <time>2016-10-30T14:58:01Z</time>
      </trkpt>
      <trkpt lat="42.81877" lon="1.43785">
        <ele>1726.18</ele>
        <time>2016-10-30T14:58:07Z</time>
      </trkpt>
      <trkpt lat="42.81874" lon="1.43788">
        <ele>1726.18</ele>
        <time>2016-10-30T14:58:20Z</time>
      </trkpt>
      <trkpt lat="42.81877" lon="1.43788">
        <ele>1726.18</ele>
        <time>2016-10-30T14:58:23Z</time>
      </trkpt>
      <trkpt lat="42.81884" lon="1.43787">
        <ele>1725.7</ele>
        <time>2016-10-30T14:58:32Z</time>
      </trkpt>
      <trkpt lat="42.81891" lon="1.43791">
        <ele>1725.7</ele>
        <time>2016-10-30T14:58:42Z</time>
      </trkpt>
      <trkpt lat="42.81891" lon="1.43796">
        <ele>1725.7</ele>
        <time>2016-10-30T14:58:45Z</time>
      </trkpt>
      <trkpt lat="42.8189" lon="1.43802">
        <ele>1725.7</ele>
        <time>2016-10-30T14:58:54Z</time>
      </trkpt>
      <trkpt lat="42.81887" lon="1.43807">
        <ele>1725.7</ele>
        <time>2016-10-30T14:58:58Z</time>
      </trkpt>
      <trkpt lat="42.81881" lon="1.43811">
        <ele>1724.74</ele>
        <time>2016-10-30T14:59:07Z</time>
      </trkpt>
      <trkpt lat="42.81879" lon="1.43812">
        <ele>1724.26</ele>
        <time>2016-10-30T14:59:09Z</time>
      </trkpt>
      <trkpt lat="42.81875" lon="1.43815">
        <ele>1720.9</ele>
        <time>2016-10-30T14:59:14Z</time>
      </trkpt>
      <trkpt lat="42.8187" lon="1.43814">
        <ele>1718.49</ele>
        <time>2016-10-30T14:59:24Z</time>
      </trkpt>
      <trkpt lat="42.81869" lon="1.43816">
        <ele>1718.49</ele>
        <time>2016-10-30T14:59:26Z</time>
      </trkpt>
      <trkpt lat="42.81866" lon="1.43816">
        <ele>1718.01</ele>
        <time>2016-10-30T14:59:29Z</time>
      </trkpt>
      <trkpt lat="42.81864" lon="1.43817">
        <ele>1717.53</ele>
        <time>2016-10-30T14:59:33Z</time>
      </trkpt>
      <trkpt lat="42.81858" lon="1.43819">
        <ele>1717.05</ele>
        <time>2016-10-30T14:59:39Z</time>
      </trkpt>
      <trkpt lat="42.81853" lon="1.43824">
        <ele>1716.09</ele>
        <time>2016-10-30T14:59:45Z</time>
      </trkpt>
      <trkpt lat="42.81851" lon="1.43825">
        <ele>1716.09</ele>
        <time>2016-10-30T14:59:47Z</time>
      </trkpt>
      <trkpt lat="42.8184" lon="1.43827">
        <ele>1715.61</ele>
        <time>2016-10-30T14:59:57Z</time>
      </trkpt>
      <trkpt lat="42.81833" lon="1.43826">
        <ele>1714.65</ele>
        <time>2016-10-30T15:00:05Z</time>
      </trkpt>
      <trkpt lat="42.81831" lon="1.43828">
        <ele>1714.65</ele>
        <time>2016-10-30T15:00:07Z</time>
      </trkpt>
      <trkpt lat="42.81822" lon="1.43829">
        <ele>1714.17</ele>
        <time>2016-10-30T15:00:16Z</time>
      </trkpt>
      <trkpt lat="42.81813" lon="1.43827">
        <ele>1712.73</ele>
        <time>2016-10-30T15:00:27Z</time>
      </trkpt>
      <trkpt lat="42.81811" lon="1.43821">
        <ele>1712.73</ele>
        <time>2016-10-30T15:00:36Z</time>
      </trkpt>
      <trkpt lat="42.81806" lon="1.43816">
        <ele>1711.76</ele>
        <time>2016-10-30T15:00:46Z</time>
      </trkpt>
      <trkpt lat="42.81799" lon="1.43815">
        <ele>1709.84</ele>
        <time>2016-10-30T15:00:54Z</time>
      </trkpt>
      <trkpt lat="42.81794" lon="1.43816">
        <ele>1709.36</ele>
        <time>2016-10-30T15:01:02Z</time>
      </trkpt>
      <trkpt lat="42.81791" lon="1.43817">
        <ele>1708.88</ele>
        <time>2016-10-30T15:01:05Z</time>
      </trkpt>
      <trkpt lat="42.81791" lon="1.43818">
        <ele>1708.88</ele>
        <time>2016-10-30T15:01:06Z</time>
      </trkpt>
      <trkpt lat="42.8179" lon="1.4382">
        <ele>1707.92</ele>
        <time>2016-10-30T15:01:07Z</time>
      </trkpt>
      <trkpt lat="42.81788" lon="1.43825">
        <ele>1704.55</ele>
        <time>2016-10-30T15:01:14Z</time>
      </trkpt>
      <trkpt lat="42.81787" lon="1.43825">
        <ele>1703.59</ele>
        <time>2016-10-30T15:01:15Z</time>
      </trkpt>
      <trkpt lat="42.81785" lon="1.43825">
        <ele>1701.19</ele>
        <time>2016-10-30T15:01:18Z</time>
      </trkpt>
      <trkpt lat="42.81784" lon="1.43826">
        <ele>1700.23</ele>
        <time>2016-10-30T15:01:19Z</time>
      </trkpt>
      <trkpt lat="42.81783" lon="1.43825">
        <ele>1700.23</ele>
        <time>2016-10-30T15:01:20Z</time>
      </trkpt>
      <trkpt lat="42.8178" lon="1.43826">
        <ele>1700.71</ele>
        <time>2016-10-30T15:01:22Z</time>
      </trkpt>
      <trkpt lat="42.81775" lon="1.43833">
        <ele>1702.15</ele>
        <time>2016-10-30T15:01:30Z</time>
      </trkpt>
      <trkpt lat="42.81774" lon="1.43834">
        <ele>1702.15</ele>
        <time>2016-10-30T15:01:32Z</time>
      </trkpt>
      <trkpt lat="42.81765" lon="1.43835">
        <ele>1705.04</ele>
        <time>2016-10-30T15:01:41Z</time>
      </trkpt>
      <trkpt lat="42.81764" lon="1.43834">
        <ele>1706</ele>
        <time>2016-10-30T15:01:42Z</time>
      </trkpt>
      <trkpt lat="42.81763" lon="1.43833">
        <ele>1706.48</ele>
        <time>2016-10-30T15:01:43Z</time>
      </trkpt>
      <trkpt lat="42.81758" lon="1.43831">
        <ele>1707.92</ele>
        <time>2016-10-30T15:01:47Z</time>
      </trkpt>
      <trkpt lat="42.81754" lon="1.43833">
        <ele>1707.92</ele>
        <time>2016-10-30T15:01:52Z</time>
      </trkpt>
      <trkpt lat="42.8175" lon="1.43832">
        <ele>1707.92</ele>
        <time>2016-10-30T15:01:58Z</time>
      </trkpt>
      <trkpt lat="42.81747" lon="1.43832">
        <ele>1707.92</ele>
        <time>2016-10-30T15:02:01Z</time>
      </trkpt>
      <trkpt lat="42.81745" lon="1.43831">
        <ele>1707.92</ele>
        <time>2016-10-30T15:02:04Z</time>
      </trkpt>
      <trkpt lat="42.81744" lon="1.4383">
        <ele>1707.92</ele>
        <time>2016-10-30T15:02:05Z</time>
      </trkpt>
      <trkpt lat="42.81743" lon="1.43829">
        <ele>1707.92</ele>
        <time>2016-10-30T15:02:06Z</time>
      </trkpt>
      <trkpt lat="42.81741" lon="1.43827">
        <ele>1707.92</ele>
        <time>2016-10-30T15:02:08Z</time>
      </trkpt>
      <trkpt lat="42.81739" lon="1.43826">
        <ele>1707.92</ele>
        <time>2016-10-30T15:02:11Z</time>
      </trkpt>
      <trkpt lat="42.81735" lon="1.43825">
        <ele>1707.92</ele>
        <time>2016-10-30T15:02:17Z</time>
      </trkpt>
      <trkpt lat="42.81734" lon="1.43823">
        <ele>1708.88</ele>
        <time>2016-10-30T15:02:21Z</time>
      </trkpt>
      <trkpt lat="42.81729" lon="1.43824">
        <ele>1709.84</ele>
        <time>2016-10-30T15:02:25Z</time>
      </trkpt>
      <trkpt lat="42.81728" lon="1.43823">
        <ele>1709.84</ele>
        <time>2016-10-30T15:02:26Z</time>
      </trkpt>
      <trkpt lat="42.81727" lon="1.43823">
        <ele>1709.36</ele>
        <time>2016-10-30T15:02:27Z</time>
      </trkpt>
      <trkpt lat="42.81725" lon="1.43822">
        <ele>1710.32</ele>
        <time>2016-10-30T15:02:28Z</time>
      </trkpt>
      <trkpt lat="42.81724" lon="1.43822">
        <ele>1709.84</ele>
        <time>2016-10-30T15:02:29Z</time>
      </trkpt>
      <trkpt lat="42.81722" lon="1.43821">
        <ele>1710.8</ele>
        <time>2016-10-30T15:02:37Z</time>
      </trkpt>
      <trkpt lat="42.81716" lon="1.4382">
        <ele>1711.28</ele>
        <time>2016-10-30T15:02:46Z</time>
      </trkpt>
      <trkpt lat="42.81714" lon="1.43819">
        <ele>1711.28</ele>
        <time>2016-10-30T15:02:47Z</time>
      </trkpt>
      <trkpt lat="42.81714" lon="1.43818">
        <ele>1711.28</ele>
        <time>2016-10-30T15:02:48Z</time>
      </trkpt>
      <trkpt lat="42.81709" lon="1.4381">
        <ele>1712.73</ele>
        <time>2016-10-30T15:02:58Z</time>
      </trkpt>
      <trkpt lat="42.81708" lon="1.43811">
        <ele>1715.13</ele>
        <time>2016-10-30T15:03:02Z</time>
      </trkpt>
      <trkpt lat="42.81705" lon="1.43811">
        <ele>1718.01</ele>
        <time>2016-10-30T15:03:06Z</time>
      </trkpt>
      <trkpt lat="42.81701" lon="1.43808">
        <ele>1718.97</ele>
        <time>2016-10-30T15:03:10Z</time>
      </trkpt>
      <trkpt lat="42.81701" lon="1.43807">
        <ele>1719.46</ele>
        <time>2016-10-30T15:03:11Z</time>
      </trkpt>
      <trkpt lat="42.81697" lon="1.43804">
        <ele>1718.97</ele>
        <time>2016-10-30T15:03:16Z</time>
      </trkpt>
      <trkpt lat="42.81693" lon="1.43807">
        <ele>1718.97</ele>
        <time>2016-10-30T15:03:20Z</time>
      </trkpt>
      <trkpt lat="42.81691" lon="1.43807">
        <ele>1718.97</ele>
        <time>2016-10-30T15:03:21Z</time>
      </trkpt>
      <trkpt lat="42.81687" lon="1.43806">
        <ele>1718.97</ele>
        <time>2016-10-30T15:03:25Z</time>
      </trkpt>
      <trkpt lat="42.81685" lon="1.43806">
        <ele>1718.97</ele>
        <time>2016-10-30T15:03:26Z</time>
      </trkpt>
      <trkpt lat="42.81684" lon="1.43806">
        <ele>1718.97</ele>
        <time>2016-10-30T15:03:27Z</time>
      </trkpt>
      <trkpt lat="42.81683" lon="1.43805">
        <ele>1718.97</ele>
        <time>2016-10-30T15:03:28Z</time>
      </trkpt>
      <trkpt lat="42.81682" lon="1.43804">
        <ele>1718.97</ele>
        <time>2016-10-30T15:03:29Z</time>
      </trkpt>
      <trkpt lat="42.81681" lon="1.43803">
        <ele>1718.97</ele>
        <time>2016-10-30T15:03:30Z</time>
      </trkpt>
      <trkpt lat="42.81675" lon="1.43803">
        <ele>1718.97</ele>
        <time>2016-10-30T15:03:39Z</time>
      </trkpt>
      <trkpt lat="42.81674" lon="1.43808">
        <ele>1718.97</ele>
        <time>2016-10-30T15:03:43Z</time>
      </trkpt>
      <trkpt lat="42.81665" lon="1.43799">
        <ele>1717.53</ele>
        <time>2016-10-30T15:03:54Z</time>
      </trkpt>
      <trkpt lat="42.81663" lon="1.43799">
        <ele>1717.05</ele>
        <time>2016-10-30T15:03:59Z</time>
      </trkpt>
      <trkpt lat="42.81661" lon="1.43798">
        <ele>1715.61</ele>
        <time>2016-10-30T15:04:03Z</time>
      </trkpt>
      <trkpt lat="42.8166" lon="1.43798">
        <ele>1715.13</ele>
        <time>2016-10-30T15:04:06Z</time>
      </trkpt>
      <trkpt lat="42.81656" lon="1.438">
        <ele>1712.25</ele>
        <time>2016-10-30T15:04:11Z</time>
      </trkpt>
      <trkpt lat="42.81655" lon="1.43801">
        <ele>1711.28</ele>
        <time>2016-10-30T15:04:12Z</time>
      </trkpt>
      <trkpt lat="42.81653" lon="1.43801">
        <ele>1709.36</ele>
        <time>2016-10-30T15:04:15Z</time>
      </trkpt>
      <trkpt lat="42.8165" lon="1.43799">
        <ele>1707.44</ele>
        <time>2016-10-30T15:04:18Z</time>
      </trkpt>
      <trkpt lat="42.81643" lon="1.43796">
        <ele>1706.48</ele>
        <time>2016-10-30T15:04:29Z</time>
      </trkpt>
      <trkpt lat="42.81643" lon="1.43798">
        <ele>1706.48</ele>
        <time>2016-10-30T15:04:32Z</time>
      </trkpt>
      <trkpt lat="42.81643" lon="1.43805">
        <ele>1706</ele>
        <time>2016-10-30T15:04:36Z</time>
      </trkpt>
      <trkpt lat="42.8164" lon="1.43811">
        <ele>1704.55</ele>
        <time>2016-10-30T15:04:41Z</time>
      </trkpt>
      <trkpt lat="42.81637" lon="1.4381">
        <ele>1704.07</ele>
        <time>2016-10-30T15:04:44Z</time>
      </trkpt>
      <trkpt lat="42.81634" lon="1.43805">
        <ele>1702.15</ele>
        <time>2016-10-30T15:04:48Z</time>
      </trkpt>
      <trkpt lat="42.81633" lon="1.43801">
        <ele>1700.23</ele>
        <time>2016-10-30T15:04:50Z</time>
      </trkpt>
      <trkpt lat="42.81632" lon="1.43797">
        <ele>1697.34</ele>
        <time>2016-10-30T15:04:53Z</time>
      </trkpt>
      <trkpt lat="42.81631" lon="1.43795">
        <ele>1696.38</ele>
        <time>2016-10-30T15:04:55Z</time>
      </trkpt>
      <trkpt lat="42.81628" lon="1.4379">
        <ele>1696.38</ele>
        <time>2016-10-30T15:04:59Z</time>
      </trkpt>
      <trkpt lat="42.81624" lon="1.43786">
        <ele>1696.38</ele>
        <time>2016-10-30T15:05:08Z</time>
      </trkpt>
      <trkpt lat="42.81623" lon="1.43781">
        <ele>1696.38</ele>
        <time>2016-10-30T15:05:12Z</time>
      </trkpt>
      <trkpt lat="42.81619" lon="1.43776">
        <ele>1696.38</ele>
        <time>2016-10-30T15:05:20Z</time>
      </trkpt>
      <trkpt lat="42.81618" lon="1.43772">
        <ele>1695.42</ele>
        <time>2016-10-30T15:05:28Z</time>
      </trkpt>
      <trkpt lat="42.81614" lon="1.4377">
        <ele>1693.98</ele>
        <time>2016-10-30T15:05:36Z</time>
      </trkpt>
      <trkpt lat="42.81613" lon="1.43775">
        <ele>1690.14</ele>
        <time>2016-10-30T15:05:42Z</time>
      </trkpt>
      <trkpt lat="42.81613" lon="1.43779">
        <ele>1689.17</ele>
        <time>2016-10-30T15:05:44Z</time>
      </trkpt>
      <trkpt lat="42.81609" lon="1.4378">
        <ele>1687.25</ele>
        <time>2016-10-30T15:05:48Z</time>
      </trkpt>
      <trkpt lat="42.81604" lon="1.43778">
        <ele>1687.25</ele>
        <time>2016-10-30T15:05:53Z</time>
      </trkpt>
      <trkpt lat="42.81601" lon="1.43778">
        <ele>1687.25</ele>
        <time>2016-10-30T15:05:57Z</time>
      </trkpt>
      <trkpt lat="42.81592" lon="1.43778">
        <ele>1685.81</ele>
        <time>2016-10-30T15:06:08Z</time>
      </trkpt>
      <trkpt lat="42.81587" lon="1.4378">
        <ele>1683.41</ele>
        <time>2016-10-30T15:06:19Z</time>
      </trkpt>
      <trkpt lat="42.81584" lon="1.43782">
        <ele>1680.04</ele>
        <time>2016-10-30T15:06:25Z</time>
      </trkpt>
      <trkpt lat="42.81579" lon="1.43784">
        <ele>1677.16</ele>
        <time>2016-10-30T15:06:31Z</time>
      </trkpt>
      <trkpt lat="42.81574" lon="1.43785">
        <ele>1677.16</ele>
        <time>2016-10-30T15:06:36Z</time>
      </trkpt>
      <trkpt lat="42.8157" lon="1.43784">
        <ele>1677.16</ele>
        <time>2016-10-30T15:06:40Z</time>
      </trkpt>
      <trkpt lat="42.81564" lon="1.43787">
        <ele>1676.68</ele>
        <time>2016-10-30T15:06:47Z</time>
      </trkpt>
      <trkpt lat="42.81561" lon="1.43792">
        <ele>1675.72</ele>
        <time>2016-10-30T15:06:54Z</time>
      </trkpt>
      <trkpt lat="42.81555" lon="1.43792">
        <ele>1675.23</ele>
        <time>2016-10-30T15:06:59Z</time>
      </trkpt>
      <trkpt lat="42.81544" lon="1.4379">
        <ele>1671.87</ele>
        <time>2016-10-30T15:07:10Z</time>
      </trkpt>
      <trkpt lat="42.81543" lon="1.43789">
        <ele>1671.87</ele>
        <time>2016-10-30T15:07:12Z</time>
      </trkpt>
      <trkpt lat="42.8154" lon="1.43787">
        <ele>1669.47</ele>
        <time>2016-10-30T15:07:15Z</time>
      </trkpt>
      <trkpt lat="42.81537" lon="1.43787">
        <ele>1667.54</ele>
        <time>2016-10-30T15:07:18Z</time>
      </trkpt>
      <trkpt lat="42.81533" lon="1.43783">
        <ele>1667.06</ele>
        <time>2016-10-30T15:07:22Z</time>
      </trkpt>
      <trkpt lat="42.81526" lon="1.43779">
        <ele>1666.58</ele>
        <time>2016-10-30T15:07:31Z</time>
      </trkpt>
      <trkpt lat="42.81521" lon="1.43771">
        <ele>1665.62</ele>
        <time>2016-10-30T15:07:38Z</time>
      </trkpt>
      <trkpt lat="42.8151" lon="1.4377">
        <ele>1663.7</ele>
        <time>2016-10-30T15:07:49Z</time>
      </trkpt>
      <trkpt lat="42.81505" lon="1.43771">
        <ele>1661.3</ele>
        <time>2016-10-30T15:08:01Z</time>
      </trkpt>
      <trkpt lat="42.81505" lon="1.43771">
        <ele>1660.33</ele>
        <time>2016-10-30T15:08:17Z</time>
      </trkpt>
      <trkpt lat="42.81505" lon="1.43771">
        <ele>1659.85</ele>
        <time>2016-10-30T15:08:21Z</time>
      </trkpt>
      <trkpt lat="42.81502" lon="1.4377">
        <ele>1659.37</ele>
        <time>2016-10-30T15:08:30Z</time>
      </trkpt>
      <trkpt lat="42.81499" lon="1.43775">
        <ele>1658.41</ele>
        <time>2016-10-30T15:08:34Z</time>
      </trkpt>
      <trkpt lat="42.81497" lon="1.43779">
        <ele>1657.93</ele>
        <time>2016-10-30T15:08:37Z</time>
      </trkpt>
      <trkpt lat="42.81496" lon="1.43783">
        <ele>1657.45</ele>
        <time>2016-10-30T15:08:40Z</time>
      </trkpt>
      <trkpt lat="42.81493" lon="1.43783">
        <ele>1656.97</ele>
        <time>2016-10-30T15:08:46Z</time>
      </trkpt>
      <trkpt lat="42.81491" lon="1.43781">
        <ele>1656.49</ele>
        <time>2016-10-30T15:08:48Z</time>
      </trkpt>
      <trkpt lat="42.81488" lon="1.43783">
        <ele>1656.01</ele>
        <time>2016-10-30T15:08:52Z</time>
      </trkpt>
      <trkpt lat="42.81485" lon="1.43783">
        <ele>1655.53</ele>
        <time>2016-10-30T15:08:54Z</time>
      </trkpt>
      <trkpt lat="42.81481" lon="1.43789">
        <ele>1654.09</ele>
        <time>2016-10-30T15:09:02Z</time>
      </trkpt>
      <trkpt lat="42.81476" lon="1.43794">
        <ele>1653.6</ele>
        <time>2016-10-30T15:09:09Z</time>
      </trkpt>
      <trkpt lat="42.81471" lon="1.43792">
        <ele>1650.72</ele>
        <time>2016-10-30T15:09:16Z</time>
      </trkpt>
      <trkpt lat="42.81472" lon="1.43787">
        <ele>1646.4</ele>
        <time>2016-10-30T15:09:21Z</time>
      </trkpt>
      <trkpt lat="42.81473" lon="1.43785">
        <ele>1645.43</ele>
        <time>2016-10-30T15:09:23Z</time>
      </trkpt>
      <trkpt lat="42.81474" lon="1.43776">
        <ele>1644.47</ele>
        <time>2016-10-30T15:09:34Z</time>
      </trkpt>
      <trkpt lat="42.81473" lon="1.43775">
        <ele>1644.47</ele>
        <time>2016-10-30T15:09:35Z</time>
      </trkpt>
      <trkpt lat="42.81467" lon="1.43772">
        <ele>1643.03</ele>
        <time>2016-10-30T15:09:46Z</time>
      </trkpt>
      <trkpt lat="42.81464" lon="1.43772">
        <ele>1642.55</ele>
        <time>2016-10-30T15:09:49Z</time>
      </trkpt>
      <trkpt lat="42.81457" lon="1.43773">
        <ele>1639.67</ele>
        <time>2016-10-30T15:09:58Z</time>
      </trkpt>
      <trkpt lat="42.81453" lon="1.43773">
        <ele>1635.82</ele>
        <time>2016-10-30T15:10:02Z</time>
      </trkpt>
      <trkpt lat="42.8145" lon="1.43772">
        <ele>1632.46</ele>
        <time>2016-10-30T15:10:06Z</time>
      </trkpt>
      <trkpt lat="42.81445" lon="1.43769">
        <ele>1632.46</ele>
        <time>2016-10-30T15:10:16Z</time>
      </trkpt>
      <trkpt lat="42.81444" lon="1.43769">
        <ele>1632.46</ele>
        <time>2016-10-30T15:10:17Z</time>
      </trkpt>
      <trkpt lat="42.8144" lon="1.43765">
        <ele>1629.57</ele>
        <time>2016-10-30T15:10:25Z</time>
      </trkpt>
      <trkpt lat="42.81438" lon="1.4377">
        <ele>1626.69</ele>
        <time>2016-10-30T15:10:31Z</time>
      </trkpt>
      <trkpt lat="42.81435" lon="1.43777">
        <ele>1630.05</ele>
        <time>2016-10-30T15:10:39Z</time>
      </trkpt>
      <trkpt lat="42.81431" lon="1.43781">
        <ele>1631.98</ele>
        <time>2016-10-30T15:10:45Z</time>
      </trkpt>
      <trkpt lat="42.81425" lon="1.43782">
        <ele>1630.53</ele>
        <time>2016-10-30T15:10:50Z</time>
      </trkpt>
      <trkpt lat="42.81418" lon="1.43781">
        <ele>1626.69</ele>
        <time>2016-10-30T15:10:56Z</time>
      </trkpt>
      <trkpt lat="42.81413" lon="1.43782">
        <ele>1624.28</ele>
        <time>2016-10-30T15:11:01Z</time>
      </trkpt>
      <trkpt lat="42.81406" lon="1.43782">
        <ele>1623.8</ele>
        <time>2016-10-30T15:11:08Z</time>
      </trkpt>
      <trkpt lat="42.81399" lon="1.43785">
        <ele>1623.8</ele>
        <time>2016-10-30T15:11:14Z</time>
      </trkpt>
      <trkpt lat="42.81393" lon="1.43788">
        <ele>1623.8</ele>
        <time>2016-10-30T15:11:19Z</time>
      </trkpt>
      <trkpt lat="42.81387" lon="1.43791">
        <ele>1623.32</ele>
        <time>2016-10-30T15:11:24Z</time>
      </trkpt>
      <trkpt lat="42.81385" lon="1.43791">
        <ele>1623.32</ele>
        <time>2016-10-30T15:11:26Z</time>
      </trkpt>
      <trkpt lat="42.81378" lon="1.43797">
        <ele>1622.84</ele>
        <time>2016-10-30T15:11:33Z</time>
      </trkpt>
      <trkpt lat="42.81377" lon="1.43801">
        <ele>1622.84</ele>
        <time>2016-10-30T15:11:36Z</time>
      </trkpt>
      <trkpt lat="42.81372" lon="1.43801">
        <ele>1622.84</ele>
        <time>2016-10-30T15:11:41Z</time>
      </trkpt>
      <trkpt lat="42.8137" lon="1.43799">
        <ele>1622.84</ele>
        <time>2016-10-30T15:11:43Z</time>
      </trkpt>
      <trkpt lat="42.81361" lon="1.43802">
        <ele>1621.4</ele>
        <time>2016-10-30T15:11:50Z</time>
      </trkpt>
      <trkpt lat="42.81355" lon="1.43806">
        <ele>1620.92</ele>
        <time>2016-10-30T15:11:56Z</time>
      </trkpt>
      <trkpt lat="42.81352" lon="1.43814">
        <ele>1620.44</ele>
        <time>2016-10-30T15:12:03Z</time>
      </trkpt>
      <trkpt lat="42.81347" lon="1.43821">
        <ele>1619</ele>
        <time>2016-10-30T15:12:14Z</time>
      </trkpt>
      <trkpt lat="42.81347" lon="1.43821">
        <ele>1619</ele>
        <time>2016-10-30T15:12:15Z</time>
      </trkpt>
      <trkpt lat="42.81343" lon="1.43818">
        <ele>1616.11</ele>
        <time>2016-10-30T15:12:22Z</time>
      </trkpt>
      <trkpt lat="42.81342" lon="1.43817">
        <ele>1614.67</ele>
        <time>2016-10-30T15:12:24Z</time>
      </trkpt>
      <trkpt lat="42.81339" lon="1.43813">
        <ele>1610.35</ele>
        <time>2016-10-30T15:12:32Z</time>
      </trkpt>
      <trkpt lat="42.81339" lon="1.43812">
        <ele>1610.83</ele>
        <time>2016-10-30T15:12:33Z</time>
      </trkpt>
      <trkpt lat="42.81332" lon="1.43807">
        <ele>1609.86</ele>
        <time>2016-10-30T15:12:46Z</time>
      </trkpt>
      <trkpt lat="42.81333" lon="1.43806">
        <ele>1609.38</ele>
        <time>2016-10-30T15:12:49Z</time>
      </trkpt>
      <trkpt lat="42.8133" lon="1.43801">
        <ele>1605.54</ele>
        <time>2016-10-30T15:12:58Z</time>
      </trkpt>
      <trkpt lat="42.81329" lon="1.438">
        <ele>1602.17</ele>
        <time>2016-10-30T15:13:02Z</time>
      </trkpt>
      <trkpt lat="42.81327" lon="1.43799">
        <ele>1600.73</ele>
        <time>2016-10-30T15:13:04Z</time>
      </trkpt>
      <trkpt lat="42.81326" lon="1.43794">
        <ele>1599.77</ele>
        <time>2016-10-30T15:13:16Z</time>
      </trkpt>
      <trkpt lat="42.81326" lon="1.43795">
        <ele>1599.77</ele>
        <time>2016-10-30T15:13:17Z</time>
      </trkpt>
      <trkpt lat="42.81319" lon="1.43792">
        <ele>1599.77</ele>
        <time>2016-10-30T15:13:27Z</time>
      </trkpt>
      <trkpt lat="42.81317" lon="1.43791">
        <ele>1598.81</ele>
        <time>2016-10-30T15:13:29Z</time>
      </trkpt>
      <trkpt lat="42.81313" lon="1.43786">
        <ele>1597.37</ele>
        <time>2016-10-30T15:13:39Z</time>
      </trkpt>
      <trkpt lat="42.81306" lon="1.43783">
        <ele>1594</ele>
        <time>2016-10-30T15:13:47Z</time>
      </trkpt>
      <trkpt lat="42.81303" lon="1.4378">
        <ele>1590.64</ele>
        <time>2016-10-30T15:13:51Z</time>
      </trkpt>
      <trkpt lat="42.81299" lon="1.43774">
        <ele>1588.24</ele>
        <time>2016-10-30T15:14:02Z</time>
      </trkpt>
      <trkpt lat="42.81297" lon="1.43772">
        <ele>1587.27</ele>
        <time>2016-10-30T15:14:12Z</time>
      </trkpt>
      <trkpt lat="42.81296" lon="1.43769">
        <ele>1586.31</ele>
        <time>2016-10-30T15:14:17Z</time>
      </trkpt>
      <trkpt lat="42.81297" lon="1.43767">
        <ele>1581.99</ele>
        <time>2016-10-30T15:14:25Z</time>
      </trkpt>
      <trkpt lat="42.81297" lon="1.43766">
        <ele>1580.06</ele>
        <time>2016-10-30T15:14:29Z</time>
      </trkpt>
      <trkpt lat="42.81296" lon="1.43761">
        <ele>1580.54</ele>
        <time>2016-10-30T15:14:34Z</time>
      </trkpt>
      <trkpt lat="42.81294" lon="1.43759">
        <ele>1580.06</ele>
        <time>2016-10-30T15:14:37Z</time>
      </trkpt>
      <trkpt lat="42.81295" lon="1.43756">
        <ele>1579.58</ele>
        <time>2016-10-30T15:14:41Z</time>
      </trkpt>
      <trkpt lat="42.81296" lon="1.43753">
        <ele>1579.1</ele>
        <time>2016-10-30T15:14:44Z</time>
      </trkpt>
      <trkpt lat="42.81294" lon="1.43748">
        <ele>1575.74</ele>
        <time>2016-10-30T15:14:51Z</time>
      </trkpt>
      <trkpt lat="42.81295" lon="1.43747">
        <ele>1573.33</ele>
        <time>2016-10-30T15:14:56Z</time>
      </trkpt>
      <trkpt lat="42.81295" lon="1.43744">
        <ele>1572.85</ele>
        <time>2016-10-30T15:14:59Z</time>
      </trkpt>
      <trkpt lat="42.81293" lon="1.43741">
        <ele>1572.37</ele>
        <time>2016-10-30T15:15:02Z</time>
      </trkpt>
      <trkpt lat="42.81292" lon="1.43737">
        <ele>1572.37</ele>
        <time>2016-10-30T15:15:05Z</time>
      </trkpt>
      <trkpt lat="42.81292" lon="1.43732">
        <ele>1571.89</ele>
        <time>2016-10-30T15:15:08Z</time>
      </trkpt>
      <trkpt lat="42.81289" lon="1.43722">
        <ele>1569.01</ele>
        <time>2016-10-30T15:15:15Z</time>
      </trkpt>
      <trkpt lat="42.81287" lon="1.43722">
        <ele>1565.64</ele>
        <time>2016-10-30T15:15:21Z</time>
      </trkpt>
      <trkpt lat="42.81287" lon="1.43712">
        <ele>1565.64</ele>
        <time>2016-10-30T15:15:34Z</time>
      </trkpt>
      <trkpt lat="42.81287" lon="1.43712">
        <ele>1567.09</ele>
        <time>2016-10-30T15:15:57Z</time>
      </trkpt>
      <trkpt lat="42.81287" lon="1.43712">
        <ele>1567.09</ele>
        <time>2016-10-30T15:16:09Z</time>
      </trkpt>
      <trkpt lat="42.81287" lon="1.43712">
        <ele>1567.09</ele>
        <time>2016-10-30T15:16:25Z</time>
      </trkpt>
      <trkpt lat="42.81287" lon="1.43717">
        <ele>1567.09</ele>
        <time>2016-10-30T15:16:31Z</time>
      </trkpt>
      <trkpt lat="42.81287" lon="1.4372">
        <ele>1567.09</ele>
        <time>2016-10-30T15:16:45Z</time>
      </trkpt>
      <trkpt lat="42.81284" lon="1.43724">
        <ele>1566.61</ele>
        <time>2016-10-30T15:17:04Z</time>
      </trkpt>
      <trkpt lat="42.81283" lon="1.43725">
        <ele>1566.61</ele>
        <time>2016-10-30T15:17:06Z</time>
      </trkpt>
      <trkpt lat="42.81276" lon="1.43732">
        <ele>1563.24</ele>
        <time>2016-10-30T15:17:16Z</time>
      </trkpt>
      <trkpt lat="42.81274" lon="1.43732">
        <ele>1559.88</ele>
        <time>2016-10-30T15:17:21Z</time>
      </trkpt>
      <trkpt lat="42.81272" lon="1.43731">
        <ele>1558.43</ele>
        <time>2016-10-30T15:17:23Z</time>
      </trkpt>
      <trkpt lat="42.81271" lon="1.43729">
        <ele>1557.47</ele>
        <time>2016-10-30T15:17:25Z</time>
      </trkpt>
      <trkpt lat="42.81269" lon="1.43731">
        <ele>1556.03</ele>
        <time>2016-10-30T15:17:34Z</time>
      </trkpt>
      <trkpt lat="42.81268" lon="1.43732">
        <ele>1556.03</ele>
        <time>2016-10-30T15:17:35Z</time>
      </trkpt>
      <trkpt lat="42.81264" lon="1.43732">
        <ele>1554.59</ele>
        <time>2016-10-30T15:17:43Z</time>
      </trkpt>
      <trkpt lat="42.81258" lon="1.43732">
        <ele>1553.15</ele>
        <time>2016-10-30T15:17:53Z</time>
      </trkpt>
      <trkpt lat="42.81253" lon="1.43731">
        <ele>1551.22</ele>
        <time>2016-10-30T15:18:02Z</time>
      </trkpt>
      <trkpt lat="42.8125" lon="1.4373">
        <ele>1548.34</ele>
        <time>2016-10-30T15:18:09Z</time>
      </trkpt>
      <trkpt lat="42.81248" lon="1.4373">
        <ele>1544.98</ele>
        <time>2016-10-30T15:18:13Z</time>
      </trkpt>
      <trkpt lat="42.81246" lon="1.43726">
        <ele>1542.57</ele>
        <time>2016-10-30T15:18:20Z</time>
      </trkpt>
      <trkpt lat="42.81244" lon="1.43721">
        <ele>1542.57</ele>
        <time>2016-10-30T15:18:29Z</time>
      </trkpt>
      <trkpt lat="42.81246" lon="1.4371">
        <ele>1539.21</ele>
        <time>2016-10-30T15:18:41Z</time>
      </trkpt>
      <trkpt lat="42.81249" lon="1.437">
        <ele>1537.29</ele>
        <time>2016-10-30T15:18:52Z</time>
      </trkpt>
      <trkpt lat="42.81248" lon="1.43699">
        <ele>1535.36</ele>
        <time>2016-10-30T15:18:54Z</time>
      </trkpt>
      <trkpt lat="42.81243" lon="1.437">
        <ele>1531.52</ele>
        <time>2016-10-30T15:18:59Z</time>
      </trkpt>
      <trkpt lat="42.81234" lon="1.43699">
        <ele>1529.11</ele>
        <time>2016-10-30T15:19:11Z</time>
      </trkpt>
      <trkpt lat="42.81232" lon="1.43689">
        <ele>1527.67</ele>
        <time>2016-10-30T15:19:22Z</time>
      </trkpt>
      <trkpt lat="42.81235" lon="1.43681">
        <ele>1524.31</ele>
        <time>2016-10-30T15:19:33Z</time>
      </trkpt>
      <trkpt lat="42.81235" lon="1.43679">
        <ele>1520.46</ele>
        <time>2016-10-30T15:19:38Z</time>
      </trkpt>
      <trkpt lat="42.81234" lon="1.43675">
        <ele>1519.02</ele>
        <time>2016-10-30T15:19:49Z</time>
      </trkpt>
      <trkpt lat="42.81233" lon="1.43674">
        <ele>1519.02</ele>
        <time>2016-10-30T15:19:51Z</time>
      </trkpt>
      <trkpt lat="42.81231" lon="1.43666">
        <ele>1517.58</ele>
        <time>2016-10-30T15:20:01Z</time>
      </trkpt>
      <trkpt lat="42.81231" lon="1.43661">
        <ele>1517.1</ele>
        <time>2016-10-30T15:20:05Z</time>
      </trkpt>
      <trkpt lat="42.81231" lon="1.43659">
        <ele>1515.66</ele>
        <time>2016-10-30T15:20:07Z</time>
      </trkpt>
      <trkpt lat="42.81233" lon="1.43656">
        <ele>1511.81</ele>
        <time>2016-10-30T15:20:12Z</time>
      </trkpt>
      <trkpt lat="42.8123" lon="1.43655">
        <ele>1509.41</ele>
        <time>2016-10-30T15:20:17Z</time>
      </trkpt>
      <trkpt lat="42.81228" lon="1.4365">
        <ele>1508.45</ele>
        <time>2016-10-30T15:20:24Z</time>
      </trkpt>
      <trkpt lat="42.81226" lon="1.43647">
        <ele>1508.45</ele>
        <time>2016-10-30T15:20:26Z</time>
      </trkpt>
      <trkpt lat="42.81221" lon="1.43641">
        <ele>1506.04</ele>
        <time>2016-10-30T15:20:37Z</time>
      </trkpt>
      <trkpt lat="42.81218" lon="1.43638">
        <ele>1503.16</ele>
        <time>2016-10-30T15:20:42Z</time>
      </trkpt>
      <trkpt lat="42.81214" lon="1.43634">
        <ele>1499.79</ele>
        <time>2016-10-30T15:20:46Z</time>
      </trkpt>
      <trkpt lat="42.81215" lon="1.43629">
        <ele>1498.35</ele>
        <time>2016-10-30T15:20:50Z</time>
      </trkpt>
      <trkpt lat="42.81222" lon="1.43623">
        <ele>1498.35</ele>
        <time>2016-10-30T15:21:01Z</time>
      </trkpt>
      <trkpt lat="42.81224" lon="1.43614">
        <ele>1496.43</ele>
        <time>2016-10-30T15:21:10Z</time>
      </trkpt>
      <trkpt lat="42.81225" lon="1.43611">
        <ele>1495.95</ele>
        <time>2016-10-30T15:21:13Z</time>
      </trkpt>
      <trkpt lat="42.81226" lon="1.43609">
        <ele>1495.47</ele>
        <time>2016-10-30T15:21:16Z</time>
      </trkpt>
      <trkpt lat="42.81226" lon="1.43607">
        <ele>1495.47</ele>
        <time>2016-10-30T15:21:18Z</time>
      </trkpt>
      <trkpt lat="42.81225" lon="1.43604">
        <ele>1491.62</ele>
        <time>2016-10-30T15:21:25Z</time>
      </trkpt>
      <trkpt lat="42.81222" lon="1.43599">
        <ele>1488.74</ele>
        <time>2016-10-30T15:21:33Z</time>
      </trkpt>
      <trkpt lat="42.8122" lon="1.43597">
        <ele>1488.74</ele>
        <time>2016-10-30T15:21:37Z</time>
      </trkpt>
      <trkpt lat="42.81218" lon="1.43591">
        <ele>1487.78</ele>
        <time>2016-10-30T15:21:44Z</time>
      </trkpt>
      <trkpt lat="42.81215" lon="1.43588">
        <ele>1487.3</ele>
        <time>2016-10-30T15:21:48Z</time>
      </trkpt>
      <trkpt lat="42.81215" lon="1.43583">
        <ele>1485.85</ele>
        <time>2016-10-30T15:21:54Z</time>
      </trkpt>
      <trkpt lat="42.81214" lon="1.43575">
        <ele>1481.53</ele>
        <time>2016-10-30T15:22:02Z</time>
      </trkpt>
      <trkpt lat="42.81213" lon="1.43575">
        <ele>1479.61</ele>
        <time>2016-10-30T15:22:05Z</time>
      </trkpt>
      <trkpt lat="42.81208" lon="1.43566">
        <ele>1477.68</ele>
        <time>2016-10-30T15:22:16Z</time>
      </trkpt>
      <trkpt lat="42.81207" lon="1.43565">
        <ele>1477.68</ele>
        <time>2016-10-30T15:22:18Z</time>
      </trkpt>
      <trkpt lat="42.81214" lon="1.43553">
        <ele>1476.24</ele>
        <time>2016-10-30T15:22:28Z</time>
      </trkpt>
      <trkpt lat="42.81224" lon="1.43541">
        <ele>1473.84</ele>
        <time>2016-10-30T15:22:39Z</time>
      </trkpt>
      <trkpt lat="42.81227" lon="1.43536">
        <ele>1473.36</ele>
        <time>2016-10-30T15:22:43Z</time>
      </trkpt>
      <trkpt lat="42.81228" lon="1.43533">
        <ele>1472.88</ele>
        <time>2016-10-30T15:22:46Z</time>
      </trkpt>
      <trkpt lat="42.81229" lon="1.43529">
        <ele>1472.4</ele>
        <time>2016-10-30T15:22:49Z</time>
      </trkpt>
      <trkpt lat="42.8123" lon="1.43519">
        <ele>1471.92</ele>
        <time>2016-10-30T15:22:54Z</time>
      </trkpt>
      <trkpt lat="42.81231" lon="1.43517">
        <ele>1470.95</ele>
        <time>2016-10-30T15:22:56Z</time>
      </trkpt>
      <trkpt lat="42.81233" lon="1.43513">
        <ele>1470.47</ele>
        <time>2016-10-30T15:23:00Z</time>
      </trkpt>
      <trkpt lat="42.81233" lon="1.43498">
        <ele>1466.15</ele>
        <time>2016-10-30T15:23:10Z</time>
      </trkpt>
      <trkpt lat="42.81233" lon="1.43491">
        <ele>1463.74</ele>
        <time>2016-10-30T15:23:15Z</time>
      </trkpt>
      <trkpt lat="42.81234" lon="1.43477">
        <ele>1463.26</ele>
        <time>2016-10-30T15:23:25Z</time>
      </trkpt>
      <trkpt lat="42.81238" lon="1.43462">
        <ele>1461.34</ele>
        <time>2016-10-30T15:23:36Z</time>
      </trkpt>
      <trkpt lat="42.81238" lon="1.43455">
        <ele>1459.42</ele>
        <time>2016-10-30T15:23:41Z</time>
      </trkpt>
      <trkpt lat="42.81237" lon="1.43451">
        <ele>1455.09</ele>
        <time>2016-10-30T15:23:47Z</time>
      </trkpt>
      <trkpt lat="42.81237" lon="1.4345">
        <ele>1454.61</ele>
        <time>2016-10-30T15:23:59Z</time>
      </trkpt>
      <trkpt lat="42.81239" lon="1.43442">
        <ele>1454.61</ele>
        <time>2016-10-30T15:24:05Z</time>
      </trkpt>
      <trkpt lat="42.81236" lon="1.43434">
        <ele>1454.61</ele>
        <time>2016-10-30T15:24:16Z</time>
      </trkpt>
      <trkpt lat="42.81235" lon="1.43434">
        <ele>1454.13</ele>
        <time>2016-10-30T15:24:17Z</time>
      </trkpt>
      <trkpt lat="42.81234" lon="1.43432">
        <ele>1453.17</ele>
        <time>2016-10-30T15:24:21Z</time>
      </trkpt>
      <trkpt lat="42.81232" lon="1.43431">
        <ele>1449.81</ele>
        <time>2016-10-30T15:24:25Z</time>
      </trkpt>
      <trkpt lat="42.81229" lon="1.43433">
        <ele>1445.96</ele>
        <time>2016-10-30T15:24:32Z</time>
      </trkpt>
      <trkpt lat="42.81228" lon="1.43431">
        <ele>1445.96</ele>
        <time>2016-10-30T15:24:34Z</time>
      </trkpt>
      <trkpt lat="42.81226" lon="1.43431">
        <ele>1445.96</ele>
        <time>2016-10-30T15:24:36Z</time>
      </trkpt>
      <trkpt lat="42.81222" lon="1.43433">
        <ele>1445.96</ele>
        <time>2016-10-30T15:24:43Z</time>
      </trkpt>
      <trkpt lat="42.81215" lon="1.43436">
        <ele>1445</ele>
        <time>2016-10-30T15:24:52Z</time>
      </trkpt>
      <trkpt lat="42.8121" lon="1.43433">
        <ele>1442.6</ele>
        <time>2016-10-30T15:24:57Z</time>
      </trkpt>
      <trkpt lat="42.8121" lon="1.43427">
        <ele>1438.27</ele>
        <time>2016-10-30T15:25:02Z</time>
      </trkpt>
      <trkpt lat="42.81211" lon="1.43416">
        <ele>1436.35</ele>
        <time>2016-10-30T15:25:11Z</time>
      </trkpt>
      <trkpt lat="42.81205" lon="1.43406">
        <ele>1435.87</ele>
        <time>2016-10-30T15:25:22Z</time>
      </trkpt>
      <trkpt lat="42.81202" lon="1.43402">
        <ele>1435.87</ele>
        <time>2016-10-30T15:25:25Z</time>
      </trkpt>
      <trkpt lat="42.81189" lon="1.43389">
        <ele>1434.42</ele>
        <time>2016-10-30T15:25:38Z</time>
      </trkpt>
      <trkpt lat="42.81177" lon="1.43376">
        <ele>1431.06</ele>
        <time>2016-10-30T15:25:50Z</time>
      </trkpt>
      <trkpt lat="42.81177" lon="1.43371">
        <ele>1428.66</ele>
        <time>2016-10-30T15:25:54Z</time>
      </trkpt>
      <trkpt lat="42.81172" lon="1.43366">
        <ele>1426.73</ele>
        <time>2016-10-30T15:26:00Z</time>
      </trkpt>
      <trkpt lat="42.81168" lon="1.43358">
        <ele>1426.73</ele>
        <time>2016-10-30T15:26:06Z</time>
      </trkpt>
      <trkpt lat="42.81165" lon="1.43343">
        <ele>1426.73</ele>
        <time>2016-10-30T15:26:15Z</time>
      </trkpt>
      <trkpt lat="42.81162" lon="1.43337">
        <ele>1425.29</ele>
        <time>2016-10-30T15:26:25Z</time>
      </trkpt>
      <trkpt lat="42.81165" lon="1.43329">
        <ele>1425.29</ele>
        <time>2016-10-30T15:26:30Z</time>
      </trkpt>
      <trkpt lat="42.81169" lon="1.43321">
        <ele>1424.81</ele>
        <time>2016-10-30T15:26:36Z</time>
      </trkpt>
      <trkpt lat="42.81167" lon="1.43314">
        <ele>1424.33</ele>
        <time>2016-10-30T15:26:41Z</time>
      </trkpt>
      <trkpt lat="42.81162" lon="1.43308">
        <ele>1423.37</ele>
        <time>2016-10-30T15:26:48Z</time>
      </trkpt>
      <trkpt lat="42.81157" lon="1.43286">
        <ele>1421.93</ele>
        <time>2016-10-30T15:27:02Z</time>
      </trkpt>
      <trkpt lat="42.81156" lon="1.43284">
        <ele>1421.93</ele>
        <time>2016-10-30T15:27:05Z</time>
      </trkpt>
      <trkpt lat="42.81155" lon="1.43273">
        <ele>1420.49</ele>
        <time>2016-10-30T15:27:14Z</time>
      </trkpt>
      <trkpt lat="42.81145" lon="1.43255">
        <ele>1420</ele>
        <time>2016-10-30T15:27:26Z</time>
      </trkpt>
      <trkpt lat="42.81133" lon="1.43232">
        <ele>1419.04</ele>
        <time>2016-10-30T15:27:38Z</time>
      </trkpt>
      <trkpt lat="42.81126" lon="1.43223">
        <ele>1418.08</ele>
        <time>2016-10-30T15:27:45Z</time>
      </trkpt>
      <trkpt lat="42.81121" lon="1.43202">
        <ele>1417.6</ele>
        <time>2016-10-30T15:27:57Z</time>
      </trkpt>
      <trkpt lat="42.8112" lon="1.43199">
        <ele>1417.6</ele>
        <time>2016-10-30T15:27:59Z</time>
      </trkpt>
      <trkpt lat="42.81115" lon="1.43182">
        <ele>1415.68</ele>
        <time>2016-10-30T15:28:09Z</time>
      </trkpt>
      <trkpt lat="42.81113" lon="1.43167">
        <ele>1414.72</ele>
        <time>2016-10-30T15:28:17Z</time>
      </trkpt>
      <trkpt lat="42.81112" lon="1.43162">
        <ele>1414.72</ele>
        <time>2016-10-30T15:28:21Z</time>
      </trkpt>
      <trkpt lat="42.81108" lon="1.43148">
        <ele>1414.72</ele>
        <time>2016-10-30T15:28:29Z</time>
      </trkpt>
      <trkpt lat="42.81107" lon="1.43144">
        <ele>1414.72</ele>
        <time>2016-10-30T15:28:32Z</time>
      </trkpt>
      <trkpt lat="42.81108" lon="1.43141">
        <ele>1414.72</ele>
        <time>2016-10-30T15:28:35Z</time>
      </trkpt>
      <trkpt lat="42.81106" lon="1.43136">
        <ele>1414.72</ele>
        <time>2016-10-30T15:28:39Z</time>
      </trkpt>
      <trkpt lat="42.81103" lon="1.43119">
        <ele>1414.72</ele>
        <time>2016-10-30T15:28:48Z</time>
      </trkpt>
      <trkpt lat="42.81104" lon="1.43114">
        <ele>1414.72</ele>
        <time>2016-10-30T15:28:51Z</time>
      </trkpt>
      <trkpt lat="42.81104" lon="1.43112">
        <ele>1414.72</ele>
        <time>2016-10-30T15:28:53Z</time>
      </trkpt>
      <trkpt lat="42.81097" lon="1.43096">
        <ele>1414.72</ele>
        <time>2016-10-30T15:29:04Z</time>
      </trkpt>
      <trkpt lat="42.81097" lon="1.43093">
        <ele>1414.72</ele>
        <time>2016-10-30T15:29:05Z</time>
      </trkpt>
      <trkpt lat="42.81096" lon="1.43081">
        <ele>1414.72</ele>
        <time>2016-10-30T15:29:12Z</time>
      </trkpt>
      <trkpt lat="42.81096" lon="1.43073">
        <ele>1414.24</ele>
        <time>2016-10-30T15:29:18Z</time>
      </trkpt>
      <trkpt lat="42.81094" lon="1.43058">
        <ele>1414.24</ele>
        <time>2016-10-30T15:29:28Z</time>
      </trkpt>
      <trkpt lat="42.81095" lon="1.43045">
        <ele>1415.68</ele>
        <time>2016-10-30T15:29:38Z</time>
      </trkpt>
      <trkpt lat="42.81096" lon="1.43041">
        <ele>1415.68</ele>
        <time>2016-10-30T15:29:42Z</time>
      </trkpt>
      <trkpt lat="42.81096" lon="1.43039">
        <ele>1415.68</ele>
        <time>2016-10-30T15:29:44Z</time>
      </trkpt>
      <trkpt lat="42.81094" lon="1.43032">
        <ele>1416.16</ele>
        <time>2016-10-30T15:29:49Z</time>
      </trkpt>
      <trkpt lat="42.81094" lon="1.43027">
        <ele>1416.16</ele>
        <time>2016-10-30T15:29:52Z</time>
      </trkpt>
      <trkpt lat="42.81092" lon="1.43021">
        <ele>1416.64</ele>
        <time>2016-10-30T15:29:56Z</time>
      </trkpt>
      <trkpt lat="42.81091" lon="1.43017">
        <ele>1416.64</ele>
        <time>2016-10-30T15:29:59Z</time>
      </trkpt>
      <trkpt lat="42.8109" lon="1.43015">
        <ele>1416.64</ele>
        <time>2016-10-30T15:30:01Z</time>
      </trkpt>
      <trkpt lat="42.81079" lon="1.42991">
        <ele>1415.2</ele>
        <time>2016-10-30T15:30:17Z</time>
      </trkpt>
      <trkpt lat="42.81077" lon="1.42988">
        <ele>1415.2</ele>
        <time>2016-10-30T15:30:18Z</time>
      </trkpt>
      <trkpt lat="42.81076" lon="1.42973">
        <ele>1415.2</ele>
        <time>2016-10-30T15:30:28Z</time>
      </trkpt>
      <trkpt lat="42.81072" lon="1.42958">
        <ele>1415.2</ele>
        <time>2016-10-30T15:30:36Z</time>
      </trkpt>
      <trkpt lat="42.8107" lon="1.42941">
        <ele>1415.2</ele>
        <time>2016-10-30T15:30:47Z</time>
      </trkpt>
      <trkpt lat="42.81069" lon="1.42936">
        <ele>1415.2</ele>
        <time>2016-10-30T15:30:50Z</time>
      </trkpt>
      <trkpt lat="42.81065" lon="1.42923">
        <ele>1415.2</ele>
        <time>2016-10-30T15:31:01Z</time>
      </trkpt>
      <trkpt lat="42.81066" lon="1.42917">
        <ele>1415.2</ele>
        <time>2016-10-30T15:31:05Z</time>
      </trkpt>
      <trkpt lat="42.81065" lon="1.42906">
        <ele>1415.2</ele>
        <time>2016-10-30T15:31:12Z</time>
      </trkpt>
      <trkpt lat="42.81064" lon="1.42901">
        <ele>1415.2</ele>
        <time>2016-10-30T15:31:16Z</time>
      </trkpt>
      <trkpt lat="42.81062" lon="1.42891">
        <ele>1415.2</ele>
        <time>2016-10-30T15:31:22Z</time>
      </trkpt>
      <trkpt lat="42.8106" lon="1.42883">
        <ele>1415.2</ele>
        <time>2016-10-30T15:31:27Z</time>
      </trkpt>
      <trkpt lat="42.81055" lon="1.42867">
        <ele>1414.24</ele>
        <time>2016-10-30T15:31:38Z</time>
      </trkpt>
      <trkpt lat="42.8105" lon="1.4285">
        <ele>1415.68</ele>
        <time>2016-10-30T15:31:51Z</time>
      </trkpt>
      <trkpt lat="42.81048" lon="1.42848">
        <ele>1415.68</ele>
        <time>2016-10-30T15:31:53Z</time>
      </trkpt>
      <trkpt lat="42.81046" lon="1.42843">
        <ele>1415.68</ele>
        <time>2016-10-30T15:31:57Z</time>
      </trkpt>
      <trkpt lat="42.81045" lon="1.42837">
        <ele>1416.64</ele>
        <time>2016-10-30T15:32:03Z</time>
      </trkpt>
      <trkpt lat="42.81037" lon="1.42829">
        <ele>1417.6</ele>
        <time>2016-10-30T15:32:14Z</time>
      </trkpt>
      <trkpt lat="42.81036" lon="1.42828">
        <ele>1417.6</ele>
        <time>2016-10-30T15:32:16Z</time>
      </trkpt>
      <trkpt lat="42.81033" lon="1.42826">
        <ele>1418.56</ele>
        <time>2016-10-30T15:32:20Z</time>
      </trkpt>
      <trkpt lat="42.81031" lon="1.42824">
        <ele>1419.04</ele>
        <time>2016-10-30T15:32:22Z</time>
      </trkpt>
      <trkpt lat="42.8103" lon="1.42822">
        <ele>1419.04</ele>
        <time>2016-10-30T15:32:24Z</time>
      </trkpt>
      <trkpt lat="42.81026" lon="1.42819">
        <ele>1418.56</ele>
        <time>2016-10-30T15:32:28Z</time>
      </trkpt>
      <trkpt lat="42.81025" lon="1.42815">
        <ele>1419.52</ele>
        <time>2016-10-30T15:32:32Z</time>
      </trkpt>
      <trkpt lat="42.81024" lon="1.4281">
        <ele>1420.49</ele>
        <time>2016-10-30T15:32:42Z</time>
      </trkpt>
      <trkpt lat="42.81021" lon="1.42807">
        <ele>1420.49</ele>
        <time>2016-10-30T15:32:46Z</time>
      </trkpt>
      <trkpt lat="42.81017" lon="1.42804">
        <ele>1420</ele>
        <time>2016-10-30T15:32:51Z</time>
      </trkpt>
      <trkpt lat="42.81014" lon="1.42799">
        <ele>1420.49</ele>
        <time>2016-10-30T15:32:57Z</time>
      </trkpt>
      <trkpt lat="42.81009" lon="1.42794">
        <ele>1420.97</ele>
        <time>2016-10-30T15:33:04Z</time>
      </trkpt>
      <trkpt lat="42.81004" lon="1.4279">
        <ele>1420.97</ele>
        <time>2016-10-30T15:33:08Z</time>
      </trkpt>
      <trkpt lat="42.80991" lon="1.4279">
        <ele>1421.45</ele>
        <time>2016-10-30T15:33:18Z</time>
      </trkpt>
      <trkpt lat="42.80983" lon="1.42788">
        <ele>1421.45</ele>
        <time>2016-10-30T15:33:25Z</time>
      </trkpt>
      <trkpt lat="42.80969" lon="1.42792">
        <ele>1420.49</ele>
        <time>2016-10-30T15:33:36Z</time>
      </trkpt>
      <trkpt lat="42.8096" lon="1.42795">
        <ele>1419.52</ele>
        <time>2016-10-30T15:33:43Z</time>
      </trkpt>
      <trkpt lat="42.80947" lon="1.42795">
        <ele>1418.56</ele>
        <time>2016-10-30T15:33:55Z</time>
      </trkpt>
      <trkpt lat="42.80937" lon="1.42798">
        <ele>1418.56</ele>
        <time>2016-10-30T15:34:02Z</time>
      </trkpt>
      <trkpt lat="42.80933" lon="1.42801">
        <ele>1418.56</ele>
        <time>2016-10-30T15:34:05Z</time>
      </trkpt>
      <trkpt lat="42.80922" lon="1.42807">
        <ele>1417.6</ele>
        <time>2016-10-30T15:34:13Z</time>
      </trkpt>
      <trkpt lat="42.80912" lon="1.42815">
        <ele>1414.24</ele>
        <time>2016-10-30T15:34:23Z</time>
      </trkpt>
      <trkpt lat="42.80909" lon="1.42817">
        <ele>1411.83</ele>
        <time>2016-10-30T15:34:26Z</time>
      </trkpt>
      <trkpt lat="42.80897" lon="1.4282">
        <ele>1409.91</ele>
        <time>2016-10-30T15:34:37Z</time>
      </trkpt>
      <trkpt lat="42.80895" lon="1.4282">
        <ele>1409.91</ele>
        <time>2016-10-30T15:34:39Z</time>
      </trkpt>
      <trkpt lat="42.80885" lon="1.42823">
        <ele>1409.43</ele>
        <time>2016-10-30T15:34:49Z</time>
      </trkpt>
      <trkpt lat="42.80883" lon="1.42823">
        <ele>1409.43</ele>
        <time>2016-10-30T15:34:52Z</time>
      </trkpt>
      <trkpt lat="42.80876" lon="1.42825">
        <ele>1409.43</ele>
        <time>2016-10-30T15:34:58Z</time>
      </trkpt>
      <trkpt lat="42.80866" lon="1.42825">
        <ele>1409.43</ele>
        <time>2016-10-30T15:35:06Z</time>
      </trkpt>
      <trkpt lat="42.80862" lon="1.42827">
        <ele>1409.43</ele>
        <time>2016-10-30T15:35:10Z</time>
      </trkpt>
      <trkpt lat="42.80859" lon="1.42827">
        <ele>1409.43</ele>
        <time>2016-10-30T15:35:12Z</time>
      </trkpt>
      <trkpt lat="42.80854" lon="1.42828">
        <ele>1409.43</ele>
        <time>2016-10-30T15:35:17Z</time>
      </trkpt>
      <trkpt lat="42.80851" lon="1.42829">
        <ele>1409.43</ele>
        <time>2016-10-30T15:35:20Z</time>
      </trkpt>
      <trkpt lat="42.80845" lon="1.4283">
        <ele>1409.43</ele>
        <time>2016-10-30T15:35:24Z</time>
      </trkpt>
      <trkpt lat="42.8084" lon="1.42827">
        <ele>1408.95</ele>
        <time>2016-10-30T15:35:29Z</time>
      </trkpt>
      <trkpt lat="42.80833" lon="1.42828">
        <ele>1408.95</ele>
        <time>2016-10-30T15:35:34Z</time>
      </trkpt>
      <trkpt lat="42.80814" lon="1.4282">
        <ele>1407.99</ele>
        <time>2016-10-30T15:35:48Z</time>
      </trkpt>
      <trkpt lat="42.80791" lon="1.42815">
        <ele>1406.07</ele>
        <time>2016-10-30T15:36:03Z</time>
      </trkpt>
      <trkpt lat="42.80789" lon="1.42812">
        <ele>1405.58</ele>
        <time>2016-10-30T15:36:07Z</time>
      </trkpt>
      <trkpt lat="42.80779" lon="1.428">
        <ele>1405.1</ele>
        <time>2016-10-30T15:36:17Z</time>
      </trkpt>
      <trkpt lat="42.80776" lon="1.42793">
        <ele>1404.62</ele>
        <time>2016-10-30T15:36:22Z</time>
      </trkpt>
      <trkpt lat="42.80766" lon="1.4277">
        <ele>1403.18</ele>
        <time>2016-10-30T15:36:34Z</time>
      </trkpt>
      <trkpt lat="42.80761" lon="1.42755">
        <ele>1402.22</ele>
        <time>2016-10-30T15:36:42Z</time>
      </trkpt>
      <trkpt lat="42.80762" lon="1.42746">
        <ele>1401.74</ele>
        <time>2016-10-30T15:36:47Z</time>
      </trkpt>
      <trkpt lat="42.80761" lon="1.42724">
        <ele>1400.78</ele>
        <time>2016-10-30T15:36:58Z</time>
      </trkpt>
      <trkpt lat="42.80761" lon="1.42707">
        <ele>1400.3</ele>
        <time>2016-10-30T15:37:06Z</time>
      </trkpt>
      <trkpt lat="42.80762" lon="1.427">
        <ele>1399.34</ele>
        <time>2016-10-30T15:37:10Z</time>
      </trkpt>
      <trkpt lat="42.80762" lon="1.42695">
        <ele>1398.86</ele>
        <time>2016-10-30T15:37:12Z</time>
      </trkpt>
      <trkpt lat="42.80764" lon="1.42677">
        <ele>1398.37</ele>
        <time>2016-10-30T15:37:22Z</time>
      </trkpt>
      <trkpt lat="42.80764" lon="1.42674">
        <ele>1398.37</ele>
        <time>2016-10-30T15:37:24Z</time>
      </trkpt>
      <trkpt lat="42.80767" lon="1.42651">
        <ele>1396.93</ele>
        <time>2016-10-30T15:37:36Z</time>
      </trkpt>
      <trkpt lat="42.80768" lon="1.42649">
        <ele>1396.93</ele>
        <time>2016-10-30T15:37:37Z</time>
      </trkpt>
      <trkpt lat="42.80768" lon="1.42644">
        <ele>1396.93</ele>
        <time>2016-10-30T15:37:40Z</time>
      </trkpt>
      <trkpt lat="42.80769" lon="1.42643">
        <ele>1395.97</ele>
        <time>2016-10-30T15:37:57Z</time>
      </trkpt>
      <trkpt lat="42.8077" lon="1.42638">
        <ele>1395.49</ele>
        <time>2016-10-30T15:38:07Z</time>
      </trkpt>
      <trkpt lat="42.80771" lon="1.42625">
        <ele>1394.53</ele>
        <time>2016-10-30T15:38:16Z</time>
      </trkpt>
      <trkpt lat="42.80777" lon="1.42599">
        <ele>1393.57</ele>
        <time>2016-10-30T15:38:30Z</time>
      </trkpt>
      <trkpt lat="42.8078" lon="1.4258">
        <ele>1393.09</ele>
        <time>2016-10-30T15:38:40Z</time>
      </trkpt>
      <trkpt lat="42.80784" lon="1.42562">
        <ele>1392.61</ele>
        <time>2016-10-30T15:38:50Z</time>
      </trkpt>
      <trkpt lat="42.80785" lon="1.4256">
        <ele>1392.61</ele>
        <time>2016-10-30T15:38:51Z</time>
      </trkpt>
      <trkpt lat="42.80785" lon="1.42551">
        <ele>1392.61</ele>
        <time>2016-10-30T15:38:56Z</time>
      </trkpt>
      <trkpt lat="42.80785" lon="1.42549">
        <ele>1392.61</ele>
        <time>2016-10-30T15:38:57Z</time>
      </trkpt>
      <trkpt lat="42.80788" lon="1.42545">
        <ele>1392.13</ele>
        <time>2016-10-30T15:39:00Z</time>
      </trkpt>
      <trkpt lat="42.80793" lon="1.4253">
        <ele>1392.13</ele>
        <time>2016-10-30T15:39:09Z</time>
      </trkpt>
      <trkpt lat="42.80795" lon="1.42526">
        <ele>1391.17</ele>
        <time>2016-10-30T15:39:11Z</time>
      </trkpt>
      <trkpt lat="42.80795" lon="1.42524">
        <ele>1391.17</ele>
        <time>2016-10-30T15:39:13Z</time>
      </trkpt>
      <trkpt lat="42.80796" lon="1.4251">
        <ele>1390.68</ele>
        <time>2016-10-30T15:39:23Z</time>
      </trkpt>
      <trkpt lat="42.80798" lon="1.42503">
        <ele>1390.68</ele>
        <time>2016-10-30T15:39:27Z</time>
      </trkpt>
      <trkpt lat="42.808" lon="1.42492">
        <ele>1390.2</ele>
        <time>2016-10-30T15:39:34Z</time>
      </trkpt>
      <trkpt lat="42.808" lon="1.42484">
        <ele>1389.72</ele>
        <time>2016-10-30T15:39:38Z</time>
      </trkpt>
      <trkpt lat="42.80803" lon="1.4248">
        <ele>1389.72</ele>
        <time>2016-10-30T15:39:41Z</time>
      </trkpt>
      <trkpt lat="42.80809" lon="1.42467">
        <ele>1388.28</ele>
        <time>2016-10-30T15:39:53Z</time>
      </trkpt>
      <trkpt lat="42.80809" lon="1.42465">
        <ele>1388.28</ele>
        <time>2016-10-30T15:39:54Z</time>
      </trkpt>
      <trkpt lat="42.80795" lon="1.42457">
        <ele>1388.28</ele>
        <time>2016-10-30T15:40:05Z</time>
      </trkpt>
      <trkpt lat="42.80793" lon="1.42455">
        <ele>1388.28</ele>
        <time>2016-10-30T15:40:07Z</time>
      </trkpt>
      <trkpt lat="42.80791" lon="1.42439">
        <ele>1388.28</ele>
        <time>2016-10-30T15:40:16Z</time>
      </trkpt>
      <trkpt lat="42.80788" lon="1.42434">
        <ele>1388.28</ele>
        <time>2016-10-30T15:40:20Z</time>
      </trkpt>
      <trkpt lat="42.80779" lon="1.42415">
        <ele>1388.28</ele>
        <time>2016-10-30T15:40:32Z</time>
      </trkpt>
      <trkpt lat="42.80778" lon="1.42411">
        <ele>1389.24</ele>
        <time>2016-10-30T15:40:35Z</time>
      </trkpt>
      <trkpt lat="42.80771" lon="1.42407">
        <ele>1389.72</ele>
        <time>2016-10-30T15:40:42Z</time>
      </trkpt>
      <trkpt lat="42.80762" lon="1.42394">
        <ele>1389.72</ele>
        <time>2016-10-30T15:40:51Z</time>
      </trkpt>
      <trkpt lat="42.8076" lon="1.4239">
        <ele>1389.24</ele>
        <time>2016-10-30T15:41:00Z</time>
      </trkpt>
      <trkpt lat="42.80755" lon="1.42381">
        <ele>1389.24</ele>
        <time>2016-10-30T15:41:16Z</time>
      </trkpt>
      <trkpt lat="42.80746" lon="1.42365">
        <ele>1389.24</ele>
        <time>2016-10-30T15:41:27Z</time>
      </trkpt>
      <trkpt lat="42.80745" lon="1.4236">
        <ele>1389.24</ele>
        <time>2016-10-30T15:41:32Z</time>
      </trkpt>
      <trkpt lat="42.80738" lon="1.42348">
        <ele>1389.72</ele>
        <time>2016-10-30T15:41:40Z</time>
      </trkpt>
      <trkpt lat="42.80731" lon="1.42336">
        <ele>1389.72</ele>
        <time>2016-10-30T15:41:48Z</time>
      </trkpt>
      <trkpt lat="42.80727" lon="1.42325">
        <ele>1390.2</ele>
        <time>2016-10-30T15:41:56Z</time>
      </trkpt>
      <trkpt lat="42.80725" lon="1.42316">
        <ele>1390.2</ele>
        <time>2016-10-30T15:42:02Z</time>
      </trkpt>
      <trkpt lat="42.80723" lon="1.42311">
        <ele>1390.2</ele>
        <time>2016-10-30T15:42:05Z</time>
      </trkpt>
      <trkpt lat="42.80719" lon="1.4229">
        <ele>1390.2</ele>
        <time>2016-10-30T15:42:17Z</time>
      </trkpt>
      <trkpt lat="42.80718" lon="1.42284">
        <ele>1390.2</ele>
        <time>2016-10-30T15:42:21Z</time>
      </trkpt>
      <trkpt lat="42.80718" lon="1.42276">
        <ele>1390.2</ele>
        <time>2016-10-30T15:42:26Z</time>
      </trkpt>
      <trkpt lat="42.80715" lon="1.42259">
        <ele>1390.2</ele>
        <time>2016-10-30T15:42:35Z</time>
      </trkpt>
      <trkpt lat="42.80716" lon="1.42256">
        <ele>1390.68</ele>
        <time>2016-10-30T15:42:38Z</time>
      </trkpt>
      <trkpt lat="42.80717" lon="1.42252">
        <ele>1391.17</ele>
        <time>2016-10-30T15:42:41Z</time>
      </trkpt>
      <trkpt lat="42.80713" lon="1.42236">
        <ele>1392.13</ele>
        <time>2016-10-30T15:42:53Z</time>
      </trkpt>
      <trkpt lat="42.8071" lon="1.42225">
        <ele>1392.13</ele>
        <time>2016-10-30T15:43:01Z</time>
      </trkpt>
      <trkpt lat="42.80708" lon="1.42218">
        <ele>1392.13</ele>
        <time>2016-10-30T15:43:06Z</time>
      </trkpt>
      <trkpt lat="42.80707" lon="1.42215">
        <ele>1392.61</ele>
        <time>2016-10-30T15:43:08Z</time>
      </trkpt>
      <trkpt lat="42.80707" lon="1.42205">
        <ele>1393.57</ele>
        <time>2016-10-30T15:43:18Z</time>
      </trkpt>
      <trkpt lat="42.80705" lon="1.42203">
        <ele>1394.05</ele>
        <time>2016-10-30T15:43:20Z</time>
      </trkpt>
      <trkpt lat="42.80705" lon="1.42195">
        <ele>1395.49</ele>
        <time>2016-10-30T15:43:26Z</time>
      </trkpt>
      <trkpt lat="42.80704" lon="1.42193">
        <ele>1395.49</ele>
        <time>2016-10-30T15:43:28Z</time>
      </trkpt>
      <trkpt lat="42.80702" lon="1.42188">
        <ele>1397.41</ele>
        <time>2016-10-30T15:43:34Z</time>
      </trkpt>
      <trkpt lat="42.80696" lon="1.42183">
        <ele>1399.34</ele>
        <time>2016-10-30T15:43:39Z</time>
      </trkpt>
      <trkpt lat="42.8069" lon="1.42167">
        <ele>1399.34</ele>
        <time>2016-10-30T15:43:52Z</time>
      </trkpt>
      <trkpt lat="42.8069" lon="1.42167">
        <ele>1399.34</ele>
        <time>2016-10-30T15:43:53Z</time>
      </trkpt>
      <trkpt lat="42.80679" lon="1.42154">
        <ele>1398.37</ele>
        <time>2016-10-30T15:44:05Z</time>
      </trkpt>
      <trkpt lat="42.80673" lon="1.42147">
        <ele>1399.82</ele>
        <time>2016-10-30T15:44:14Z</time>
      </trkpt>
      <trkpt lat="42.80667" lon="1.42133">
        <ele>1401.74</ele>
        <time>2016-10-30T15:44:25Z</time>
      </trkpt>
      <trkpt lat="42.80663" lon="1.42121">
        <ele>1403.66</ele>
        <time>2016-10-30T15:44:37Z</time>
      </trkpt>
      <trkpt lat="42.80662" lon="1.42119">
        <ele>1403.66</ele>
        <time>2016-10-30T15:44:39Z</time>
      </trkpt>
      <trkpt lat="42.80661" lon="1.42116">
        <ele>1404.62</ele>
        <time>2016-10-30T15:44:41Z</time>
      </trkpt>
      <trkpt lat="42.8066" lon="1.42113">
        <ele>1404.62</ele>
        <time>2016-10-30T15:44:45Z</time>
      </trkpt>
      <trkpt lat="42.80657" lon="1.42097">
        <ele>1406.55</ele>
        <time>2016-10-30T15:44:55Z</time>
      </trkpt>
      <trkpt lat="42.80658" lon="1.42095">
        <ele>1406.55</ele>
        <time>2016-10-30T15:44:57Z</time>
      </trkpt>
      <trkpt lat="42.8066" lon="1.4208">
        <ele>1407.99</ele>
        <time>2016-10-30T15:45:10Z</time>
      </trkpt>
      <trkpt lat="42.80659" lon="1.42065">
        <ele>1409.43</ele>
        <time>2016-10-30T15:45:22Z</time>
      </trkpt>
      <trkpt lat="42.80655" lon="1.42063">
        <ele>1409.91</ele>
        <time>2016-10-30T15:45:34Z</time>
      </trkpt>
      <trkpt lat="42.80655" lon="1.42063">
        <ele>1409.91</ele>
        <time>2016-10-30T15:45:40Z</time>
      </trkpt>
      <trkpt lat="42.80654" lon="1.4206">
        <ele>1410.39</ele>
        <time>2016-10-30T15:45:42Z</time>
      </trkpt>
      <trkpt lat="42.80644" lon="1.42043">
        <ele>1410.87</ele>
        <time>2016-10-30T15:45:54Z</time>
      </trkpt>
      <trkpt lat="42.80631" lon="1.42036">
        <ele>1411.35</ele>
        <time>2016-10-30T15:46:05Z</time>
      </trkpt>
      <trkpt lat="42.80624" lon="1.42031">
        <ele>1412.31</ele>
        <time>2016-10-30T15:46:12Z</time>
      </trkpt>
      <trkpt lat="42.80622" lon="1.42024">
        <ele>1412.79</ele>
        <time>2016-10-30T15:46:17Z</time>
      </trkpt>
      <trkpt lat="42.8062" lon="1.4202">
        <ele>1412.79</ele>
        <time>2016-10-30T15:46:20Z</time>
      </trkpt>
      <trkpt lat="42.80618" lon="1.42007">
        <ele>1413.76</ele>
        <time>2016-10-30T15:46:28Z</time>
      </trkpt>
      <trkpt lat="42.80617" lon="1.41995">
        <ele>1414.72</ele>
        <time>2016-10-30T15:46:36Z</time>
      </trkpt>
      <trkpt lat="42.80618" lon="1.41992">
        <ele>1414.72</ele>
        <time>2016-10-30T15:46:38Z</time>
      </trkpt>
      <trkpt lat="42.80616" lon="1.41985">
        <ele>1415.2</ele>
        <time>2016-10-30T15:46:43Z</time>
      </trkpt>
      <trkpt lat="42.80614" lon="1.41976">
        <ele>1415.68</ele>
        <time>2016-10-30T15:46:48Z</time>
      </trkpt>
      <trkpt lat="42.80609" lon="1.41964">
        <ele>1416.64</ele>
        <time>2016-10-30T15:46:56Z</time>
      </trkpt>
      <trkpt lat="42.80609" lon="1.41958">
        <ele>1416.64</ele>
        <time>2016-10-30T15:47:00Z</time>
      </trkpt>
      <trkpt lat="42.80604" lon="1.41943">
        <ele>1418.08</ele>
        <time>2016-10-30T15:47:10Z</time>
      </trkpt>
      <trkpt lat="42.80603" lon="1.41939">
        <ele>1418.56</ele>
        <time>2016-10-30T15:47:13Z</time>
      </trkpt>
      <trkpt lat="42.80595" lon="1.41919">
        <ele>1420</ele>
        <time>2016-10-30T15:47:26Z</time>
      </trkpt>
      <trkpt lat="42.80593" lon="1.41912">
        <ele>1420.97</ele>
        <time>2016-10-30T15:47:30Z</time>
      </trkpt>
      <trkpt lat="42.80591" lon="1.41908">
        <ele>1421.45</ele>
        <time>2016-10-30T15:47:33Z</time>
      </trkpt>
      <trkpt lat="42.80588" lon="1.41896">
        <ele>1421.93</ele>
        <time>2016-10-30T15:47:40Z</time>
      </trkpt>
      <trkpt lat="42.80588" lon="1.4189">
        <ele>1422.41</ele>
        <time>2016-10-30T15:47:44Z</time>
      </trkpt>
      <trkpt lat="42.80586" lon="1.41878">
        <ele>1423.37</ele>
        <time>2016-10-30T15:47:51Z</time>
      </trkpt>
      <trkpt lat="42.80586" lon="1.41874">
        <ele>1423.37</ele>
        <time>2016-10-30T15:47:54Z</time>
      </trkpt>
      <trkpt lat="42.80586" lon="1.41867">
        <ele>1423.85</ele>
        <time>2016-10-30T15:47:58Z</time>
      </trkpt>
      <trkpt lat="42.80586" lon="1.41862">
        <ele>1424.33</ele>
        <time>2016-10-30T15:48:01Z</time>
      </trkpt>
      <trkpt lat="42.80587" lon="1.41843">
        <ele>1425.77</ele>
        <time>2016-10-30T15:48:12Z</time>
      </trkpt>
      <trkpt lat="42.80587" lon="1.4183">
        <ele>1426.73</ele>
        <time>2016-10-30T15:48:20Z</time>
      </trkpt>
      <trkpt lat="42.80588" lon="1.41812">
        <ele>1428.18</ele>
        <time>2016-10-30T15:48:31Z</time>
      </trkpt>
      <trkpt lat="42.80589" lon="1.41794">
        <ele>1429.62</ele>
        <time>2016-10-30T15:48:41Z</time>
      </trkpt>
      <trkpt lat="42.80591" lon="1.41777">
        <ele>1430.58</ele>
        <time>2016-10-30T15:48:51Z</time>
      </trkpt>
      <trkpt lat="42.80591" lon="1.41772">
        <ele>1431.06</ele>
        <time>2016-10-30T15:48:54Z</time>
      </trkpt>
      <trkpt lat="42.80591" lon="1.4177">
        <ele>1431.06</ele>
        <time>2016-10-30T15:48:55Z</time>
      </trkpt>
      <trkpt lat="42.80591" lon="1.41769">
        <ele>1431.54</ele>
        <time>2016-10-30T15:48:56Z</time>
      </trkpt>
      <trkpt lat="42.80591" lon="1.41767">
        <ele>1431.54</ele>
        <time>2016-10-30T15:48:57Z</time>
      </trkpt>
      <trkpt lat="42.80591" lon="1.41765">
        <ele>1431.54</ele>
        <time>2016-10-30T15:48:58Z</time>
      </trkpt>
      <trkpt lat="42.80591" lon="1.41749">
        <ele>1433.46</ele>
        <time>2016-10-30T15:49:08Z</time>
      </trkpt>
      <trkpt lat="42.80592" lon="1.41747">
        <ele>1433.46</ele>
        <time>2016-10-30T15:49:09Z</time>
      </trkpt>
      <trkpt lat="42.80592" lon="1.41745">
        <ele>1433.46</ele>
        <time>2016-10-30T15:49:10Z</time>
      </trkpt>
      <trkpt lat="42.80592" lon="1.41743">
        <ele>1433.46</ele>
        <time>2016-10-30T15:49:11Z</time>
      </trkpt>
      <trkpt lat="42.80593" lon="1.41742">
        <ele>1433.94</ele>
        <time>2016-10-30T15:49:12Z</time>
      </trkpt>
      <trkpt lat="42.80593" lon="1.4174">
        <ele>1433.94</ele>
        <time>2016-10-30T15:49:13Z</time>
      </trkpt>
      <trkpt lat="42.80593" lon="1.41738">
        <ele>1433.94</ele>
        <time>2016-10-30T15:49:14Z</time>
      </trkpt>
      <trkpt lat="42.80593" lon="1.41737">
        <ele>1433.94</ele>
        <time>2016-10-30T15:49:15Z</time>
      </trkpt>
      <trkpt lat="42.80593" lon="1.41735">
        <ele>1433.94</ele>
        <time>2016-10-30T15:49:16Z</time>
      </trkpt>
      <trkpt lat="42.80593" lon="1.41733">
        <ele>1434.42</ele>
        <time>2016-10-30T15:49:17Z</time>
      </trkpt>
      <trkpt lat="42.80597" lon="1.41724">
        <ele>1434.42</ele>
        <time>2016-10-30T15:49:24Z</time>
      </trkpt>
      <trkpt lat="42.80597" lon="1.41723">
        <ele>1434.42</ele>
        <time>2016-10-30T15:49:25Z</time>
      </trkpt>
      <trkpt lat="42.80597" lon="1.41722">
        <ele>1434.91</ele>
        <time>2016-10-30T15:49:26Z</time>
      </trkpt>
      <trkpt lat="42.80596" lon="1.4172">
        <ele>1434.91</ele>
        <time>2016-10-30T15:49:27Z</time>
      </trkpt>
      <trkpt lat="42.80597" lon="1.41718">
        <ele>1434.91</ele>
        <time>2016-10-30T15:49:28Z</time>
      </trkpt>
      <trkpt lat="42.80597" lon="1.41717">
        <ele>1434.91</ele>
        <time>2016-10-30T15:49:29Z</time>
      </trkpt>
      <trkpt lat="42.80598" lon="1.41716">
        <ele>1434.91</ele>
        <time>2016-10-30T15:49:30Z</time>
      </trkpt>
      <trkpt lat="42.80599" lon="1.41715">
        <ele>1435.39</ele>
        <time>2016-10-30T15:49:31Z</time>
      </trkpt>
      <trkpt lat="42.80602" lon="1.41712">
        <ele>1435.39</ele>
        <time>2016-10-30T15:49:34Z</time>
      </trkpt>
      <trkpt lat="42.80604" lon="1.4171">
        <ele>1435.87</ele>
        <time>2016-10-30T15:49:37Z</time>
      </trkpt>
      <trkpt lat="42.80608" lon="1.41709">
        <ele>1437.31</ele>
        <time>2016-10-30T15:49:41Z</time>
      </trkpt>
      <trkpt lat="42.80614" lon="1.41708">
        <ele>1440.67</ele>
        <time>2016-10-30T15:49:48Z</time>
      </trkpt>
      <trkpt lat="42.80616" lon="1.41708">
        <ele>1442.11</ele>
        <time>2016-10-30T15:49:50Z</time>
      </trkpt>
      <trkpt lat="42.80619" lon="1.41711">
        <ele>1443.56</ele>
        <time>2016-10-30T15:49:54Z</time>
      </trkpt>
      <trkpt lat="42.80629" lon="1.41714">
        <ele>1443.56</ele>
        <time>2016-10-30T15:50:05Z</time>
      </trkpt>
      <trkpt lat="42.80634" lon="1.41714">
        <ele>1445</ele>
        <time>2016-10-30T15:50:17Z</time>
      </trkpt>
      <trkpt lat="42.80636" lon="1.41717">
        <ele>1447.88</ele>
        <time>2016-10-30T15:50:23Z</time>
      </trkpt>
      <trkpt lat="42.80639" lon="1.41718">
        <ele>1451.73</ele>
        <time>2016-10-30T15:50:28Z</time>
      </trkpt>
      <trkpt lat="42.80641" lon="1.41717">
        <ele>1452.21</ele>
        <time>2016-10-30T15:50:42Z</time>
      </trkpt>
      <trkpt lat="42.80646" lon="1.41717">
        <ele>1454.61</ele>
        <time>2016-10-30T15:50:54Z</time>
      </trkpt>
      <trkpt lat="42.80649" lon="1.4172">
        <ele>1457.5</ele>
        <time>2016-10-30T15:50:58Z</time>
      </trkpt>
      <trkpt lat="42.80654" lon="1.41719">
        <ele>1458.46</ele>
        <time>2016-10-30T15:51:00Z</time>
      </trkpt>
      <trkpt lat="42.80656" lon="1.4172">
        <ele>1458.94</ele>
        <time>2016-10-30T15:51:02Z</time>
      </trkpt>
      <trkpt lat="42.8066" lon="1.41725">
        <ele>1458.94</ele>
        <time>2016-10-30T15:51:06Z</time>
      </trkpt>
      <trkpt lat="42.80664" lon="1.4173">
        <ele>1458.94</ele>
        <time>2016-10-30T15:51:10Z</time>
      </trkpt>
      <trkpt lat="42.80668" lon="1.41736">
        <ele>1458.94</ele>
        <time>2016-10-30T15:51:15Z</time>
      </trkpt>
      <trkpt lat="42.8067" lon="1.4174">
        <ele>1458.94</ele>
        <time>2016-10-30T15:51:18Z</time>
      </trkpt>
      <trkpt lat="42.80673" lon="1.41745">
        <ele>1458.94</ele>
        <time>2016-10-30T15:51:23Z</time>
      </trkpt>
      <trkpt lat="42.80676" lon="1.41747">
        <ele>1458.94</ele>
        <time>2016-10-30T15:51:35Z</time>
      </trkpt>
      <trkpt lat="42.80677" lon="1.41747">
        <ele>1458.94</ele>
        <time>2016-10-30T15:51:50Z</time>
      </trkpt>
      <trkpt lat="42.80679" lon="1.41754">
        <ele>1458.94</ele>
        <time>2016-10-30T15:52:13Z</time>
      </trkpt>
      <trkpt lat="42.8068" lon="1.41759">
        <ele>1459.42</ele>
        <time>2016-10-30T15:52:17Z</time>
      </trkpt>
      <trkpt lat="42.80685" lon="1.41774">
        <ele>1459.9</ele>
        <time>2016-10-30T15:52:28Z</time>
      </trkpt>
      <trkpt lat="42.80688" lon="1.41782">
        <ele>1460.38</ele>
        <time>2016-10-30T15:52:34Z</time>
      </trkpt>
      <trkpt lat="42.8069" lon="1.41789">
        <ele>1460.86</ele>
        <time>2016-10-30T15:52:39Z</time>
      </trkpt>
      <trkpt lat="42.8069" lon="1.41792">
        <ele>1461.34</ele>
        <time>2016-10-30T15:52:41Z</time>
      </trkpt>
      <trkpt lat="42.80692" lon="1.41797">
        <ele>1461.82</ele>
        <time>2016-10-30T15:52:47Z</time>
      </trkpt>
      <trkpt lat="42.80692" lon="1.418">
        <ele>1461.82</ele>
        <time>2016-10-30T15:52:49Z</time>
      </trkpt>
      <trkpt lat="42.80695" lon="1.41806">
        <ele>1462.78</ele>
        <time>2016-10-30T15:52:54Z</time>
      </trkpt>
      <trkpt lat="42.80697" lon="1.41811">
        <ele>1463.26</ele>
        <time>2016-10-30T15:52:58Z</time>
      </trkpt>
      <trkpt lat="42.80697" lon="1.41816">
        <ele>1463.26</ele>
        <time>2016-10-30T15:53:01Z</time>
      </trkpt>
      <trkpt lat="42.80699" lon="1.41825">
        <ele>1463.74</ele>
        <time>2016-10-30T15:53:07Z</time>
      </trkpt>
      <trkpt lat="42.80699" lon="1.41828">
        <ele>1464.23</ele>
        <time>2016-10-30T15:53:09Z</time>
      </trkpt>
      <trkpt lat="42.80702" lon="1.41842">
        <ele>1464.71</ele>
        <time>2016-10-30T15:53:18Z</time>
      </trkpt>
      <trkpt lat="42.80703" lon="1.41851">
        <ele>1465.67</ele>
        <time>2016-10-30T15:53:26Z</time>
      </trkpt>
      <trkpt lat="42.80704" lon="1.41856">
        <ele>1466.15</ele>
        <time>2016-10-30T15:53:37Z</time>
      </trkpt>
      <trkpt lat="42.80704" lon="1.4186">
        <ele>1466.63</ele>
        <time>2016-10-30T15:53:39Z</time>
      </trkpt>
      <trkpt lat="42.80706" lon="1.41864">
        <ele>1466.63</ele>
        <time>2016-10-30T15:53:43Z</time>
      </trkpt>
      <trkpt lat="42.80707" lon="1.41876">
        <ele>1467.11</ele>
        <time>2016-10-30T15:53:50Z</time>
      </trkpt>
      <trkpt lat="42.80711" lon="1.41887">
        <ele>1467.59</ele>
        <time>2016-10-30T15:53:57Z</time>
      </trkpt>
      <trkpt lat="42.80713" lon="1.41898">
        <ele>1468.55</ele>
        <time>2016-10-30T15:54:03Z</time>
      </trkpt>
      <trkpt lat="42.80713" lon="1.41908">
        <ele>1469.03</ele>
        <time>2016-10-30T15:54:09Z</time>
      </trkpt>
      <trkpt lat="42.80716" lon="1.41922">
        <ele>1469.51</ele>
        <time>2016-10-30T15:54:17Z</time>
      </trkpt>
      <trkpt lat="42.80717" lon="1.41932">
        <ele>1469.99</ele>
        <time>2016-10-30T15:54:23Z</time>
      </trkpt>
      <trkpt lat="42.80717" lon="1.4194">
        <ele>1470.47</ele>
        <time>2016-10-30T15:54:27Z</time>
      </trkpt>
      <trkpt lat="42.80717" lon="1.41944">
        <ele>1470.47</ele>
        <time>2016-10-30T15:54:30Z</time>
      </trkpt>
      <trkpt lat="42.80718" lon="1.41955">
        <ele>1470.95</ele>
        <time>2016-10-30T15:54:37Z</time>
      </trkpt>
      <trkpt lat="42.80717" lon="1.41963">
        <ele>1471.92</ele>
        <time>2016-10-30T15:54:41Z</time>
      </trkpt>
      <trkpt lat="42.80715" lon="1.41972">
        <ele>1472.4</ele>
        <time>2016-10-30T15:54:47Z</time>
      </trkpt>
      <trkpt lat="42.80714" lon="1.41979">
        <ele>1472.4</ele>
        <time>2016-10-30T15:54:51Z</time>
      </trkpt>
      <trkpt lat="42.80713" lon="1.41985">
        <ele>1472.88</ele>
        <time>2016-10-30T15:54:55Z</time>
      </trkpt>
      <trkpt lat="42.80711" lon="1.42">
        <ele>1473.84</ele>
        <time>2016-10-30T15:55:05Z</time>
      </trkpt>
      <trkpt lat="42.80715" lon="1.42014">
        <ele>1474.32</ele>
        <time>2016-10-30T15:55:15Z</time>
      </trkpt>
      <trkpt lat="42.80719" lon="1.4202">
        <ele>1475.28</ele>
        <time>2016-10-30T15:55:30Z</time>
      </trkpt>
      <trkpt lat="42.80722" lon="1.4202">
        <ele>1475.28</ele>
        <time>2016-10-30T15:55:34Z</time>
      </trkpt>
      <trkpt lat="42.80728" lon="1.42006">
        <ele>1475.76</ele>
        <time>2016-10-30T15:55:44Z</time>
      </trkpt>
      <trkpt lat="42.8073" lon="1.41992">
        <ele>1476.24</ele>
        <time>2016-10-30T15:55:52Z</time>
      </trkpt>
      <trkpt lat="42.80731" lon="1.41985">
        <ele>1476.24</ele>
        <time>2016-10-30T15:55:56Z</time>
      </trkpt>
      <trkpt lat="42.80732" lon="1.41981">
        <ele>1476.72</ele>
        <time>2016-10-30T15:55:58Z</time>
      </trkpt>
      <trkpt lat="42.80732" lon="1.41977">
        <ele>1476.72</ele>
        <time>2016-10-30T15:56:01Z</time>
      </trkpt>
      <trkpt lat="42.80734" lon="1.41964">
        <ele>1477.68</ele>
        <time>2016-10-30T15:56:09Z</time>
      </trkpt>
      <trkpt lat="42.80734" lon="1.41944">
        <ele>1478.65</ele>
        <time>2016-10-30T15:56:21Z</time>
      </trkpt>
      <trkpt lat="42.80734" lon="1.41942">
        <ele>1478.65</ele>
        <time>2016-10-30T15:56:22Z</time>
      </trkpt>
      <trkpt lat="42.80733" lon="1.41935">
        <ele>1478.65</ele>
        <time>2016-10-30T15:56:26Z</time>
      </trkpt>
      <trkpt lat="42.80734" lon="1.41927">
        <ele>1479.13</ele>
        <time>2016-10-30T15:56:30Z</time>
      </trkpt>
      <trkpt lat="42.80733" lon="1.41922">
        <ele>1479.13</ele>
        <time>2016-10-30T15:56:33Z</time>
      </trkpt>
      <trkpt lat="42.80734" lon="1.41917">
        <ele>1479.13</ele>
        <time>2016-10-30T15:56:36Z</time>
      </trkpt>
      <trkpt lat="42.80734" lon="1.41902">
        <ele>1479.61</ele>
        <time>2016-10-30T15:56:44Z</time>
      </trkpt>
      <trkpt lat="42.80733" lon="1.41892">
        <ele>1480.09</ele>
        <time>2016-10-30T15:56:49Z</time>
      </trkpt>
      <trkpt lat="42.80734" lon="1.41868">
        <ele>1481.05</ele>
        <time>2016-10-30T15:57:02Z</time>
      </trkpt>
      <trkpt lat="42.80735" lon="1.41859">
        <ele>1481.05</ele>
        <time>2016-10-30T15:57:07Z</time>
      </trkpt>
      <trkpt lat="42.80735" lon="1.41851">
        <ele>1481.53</ele>
        <time>2016-10-30T15:57:11Z</time>
      </trkpt>
      <trkpt lat="42.80736" lon="1.41836">
        <ele>1482.01</ele>
        <time>2016-10-30T15:57:18Z</time>
      </trkpt>
      <trkpt lat="42.80736" lon="1.41816">
        <ele>1482.49</ele>
        <time>2016-10-30T15:57:28Z</time>
      </trkpt>
      <trkpt lat="42.80736" lon="1.4181">
        <ele>1482.97</ele>
        <time>2016-10-30T15:57:31Z</time>
      </trkpt>
      <trkpt lat="42.80737" lon="1.41799">
        <ele>1483.93</ele>
        <time>2016-10-30T15:57:38Z</time>
      </trkpt>
      <trkpt lat="42.80741" lon="1.41779">
        <ele>1484.89</ele>
        <time>2016-10-30T15:57:50Z</time>
      </trkpt>
      <trkpt lat="42.80743" lon="1.41757">
        <ele>1485.37</ele>
        <time>2016-10-30T15:58:03Z</time>
      </trkpt>
      <trkpt lat="42.80742" lon="1.41746">
        <ele>1485.85</ele>
        <time>2016-10-30T15:58:09Z</time>
      </trkpt>
      <trkpt lat="42.80743" lon="1.4173">
        <ele>1486.34</ele>
        <time>2016-10-30T15:58:19Z</time>
      </trkpt>
      <trkpt lat="42.80743" lon="1.41726">
        <ele>1486.82</ele>
        <time>2016-10-30T15:58:22Z</time>
      </trkpt>
      <trkpt lat="42.80737" lon="1.41702">
        <ele>1487.78</ele>
        <time>2016-10-30T15:58:35Z</time>
      </trkpt>
      <trkpt lat="42.80735" lon="1.41697">
        <ele>1487.78</ele>
        <time>2016-10-30T15:58:38Z</time>
      </trkpt>
      <trkpt lat="42.80731" lon="1.41687">
        <ele>1488.26</ele>
        <time>2016-10-30T15:58:45Z</time>
      </trkpt>
      <trkpt lat="42.80728" lon="1.41682">
        <ele>1488.26</ele>
        <time>2016-10-30T15:58:49Z</time>
      </trkpt>
      <trkpt lat="42.80718" lon="1.41665">
        <ele>1489.22</ele>
        <time>2016-10-30T15:59:02Z</time>
      </trkpt>
      <trkpt lat="42.80718" lon="1.41664">
        <ele>1490.18</ele>
        <time>2016-10-30T15:59:03Z</time>
      </trkpt>
      <trkpt lat="42.80715" lon="1.41654">
        <ele>1489.7</ele>
        <time>2016-10-30T15:59:09Z</time>
      </trkpt>
      <trkpt lat="42.80713" lon="1.41646">
        <ele>1490.66</ele>
        <time>2016-10-30T15:59:14Z</time>
      </trkpt>
      <trkpt lat="42.8071" lon="1.41632">
        <ele>1491.62</ele>
        <time>2016-10-30T15:59:22Z</time>
      </trkpt>
      <trkpt lat="42.80707" lon="1.41613">
        <ele>1492.1</ele>
        <time>2016-10-30T15:59:32Z</time>
      </trkpt>
      <trkpt lat="42.80709" lon="1.41605">
        <ele>1492.58</ele>
        <time>2016-10-30T15:59:36Z</time>
      </trkpt>
      <trkpt lat="42.80706" lon="1.41588">
        <ele>1493.06</ele>
        <time>2016-10-30T15:59:47Z</time>
      </trkpt>
      <trkpt lat="42.80706" lon="1.41582">
        <ele>1493.55</ele>
        <time>2016-10-30T15:59:52Z</time>
      </trkpt>
      <trkpt lat="42.80702" lon="1.41572">
        <ele>1494.03</ele>
        <time>2016-10-30T15:59:58Z</time>
      </trkpt>
      <trkpt lat="42.80699" lon="1.41553">
        <ele>1494.99</ele>
        <time>2016-10-30T16:00:09Z</time>
      </trkpt>
      <trkpt lat="42.80698" lon="1.41552">
        <ele>1494.99</ele>
        <time>2016-10-30T16:00:10Z</time>
      </trkpt>
      <trkpt lat="42.80689" lon="1.41535">
        <ele>1496.43</ele>
        <time>2016-10-30T16:00:22Z</time>
      </trkpt>
      <trkpt lat="42.80689" lon="1.41533">
        <ele>1496.43</ele>
        <time>2016-10-30T16:00:23Z</time>
      </trkpt>
      <trkpt lat="42.80685" lon="1.41524">
        <ele>1496.91</ele>
        <time>2016-10-30T16:00:29Z</time>
      </trkpt>
      <trkpt lat="42.80683" lon="1.41511">
        <ele>1497.39</ele>
        <time>2016-10-30T16:00:36Z</time>
      </trkpt>
      <trkpt lat="42.8068" lon="1.415">
        <ele>1497.87</ele>
        <time>2016-10-30T16:00:42Z</time>
      </trkpt>
      <trkpt lat="42.80678" lon="1.41495">
        <ele>1497.87</ele>
        <time>2016-10-30T16:00:45Z</time>
      </trkpt>
      <trkpt lat="42.80674" lon="1.41476">
        <ele>1498.35</ele>
        <time>2016-10-30T16:00:56Z</time>
      </trkpt>
      <trkpt lat="42.80671" lon="1.41463">
        <ele>1498.83</ele>
        <time>2016-10-30T16:01:04Z</time>
      </trkpt>
      <trkpt lat="42.80667" lon="1.41442">
        <ele>1499.79</ele>
        <time>2016-10-30T16:01:16Z</time>
      </trkpt>
      <trkpt lat="42.80666" lon="1.41439">
        <ele>1499.79</ele>
        <time>2016-10-30T16:01:18Z</time>
      </trkpt>
      <trkpt lat="42.80665" lon="1.41429">
        <ele>1499.79</ele>
        <time>2016-10-30T16:01:23Z</time>
      </trkpt>
      <trkpt lat="42.80665" lon="1.41425">
        <ele>1499.79</ele>
        <time>2016-10-30T16:01:25Z</time>
      </trkpt>
      <trkpt lat="42.80661" lon="1.41404">
        <ele>1501.24</ele>
        <time>2016-10-30T16:01:37Z</time>
      </trkpt>
      <trkpt lat="42.80662" lon="1.414">
        <ele>1501.24</ele>
        <time>2016-10-30T16:01:41Z</time>
      </trkpt>
      <trkpt lat="42.8066" lon="1.4139">
        <ele>1501.72</ele>
        <time>2016-10-30T16:01:47Z</time>
      </trkpt>
      <trkpt lat="42.80659" lon="1.41387">
        <ele>1502.2</ele>
        <time>2016-10-30T16:01:49Z</time>
      </trkpt>
      <trkpt lat="42.80657" lon="1.41381">
        <ele>1502.2</ele>
        <time>2016-10-30T16:01:52Z</time>
      </trkpt>
      <trkpt lat="42.80657" lon="1.41377">
        <ele>1502.2</ele>
        <time>2016-10-30T16:01:54Z</time>
      </trkpt>
      <trkpt lat="42.80657" lon="1.41375">
        <ele>1502.68</ele>
        <time>2016-10-30T16:01:55Z</time>
      </trkpt>
      <trkpt lat="42.80656" lon="1.41373">
        <ele>1502.68</ele>
        <time>2016-10-30T16:01:56Z</time>
      </trkpt>
      <trkpt lat="42.80656" lon="1.41372">
        <ele>1502.68</ele>
        <time>2016-10-30T16:01:57Z</time>
      </trkpt>
      <trkpt lat="42.80655" lon="1.41363">
        <ele>1503.16</ele>
        <time>2016-10-30T16:02:02Z</time>
      </trkpt>
      <trkpt lat="42.80655" lon="1.41358">
        <ele>1503.16</ele>
        <time>2016-10-30T16:02:06Z</time>
      </trkpt>
      <trkpt lat="42.80654" lon="1.41356">
        <ele>1503.64</ele>
        <time>2016-10-30T16:02:07Z</time>
      </trkpt>
      <trkpt lat="42.80654" lon="1.41354">
        <ele>1503.64</ele>
        <time>2016-10-30T16:02:08Z</time>
      </trkpt>
      <trkpt lat="42.80654" lon="1.41353">
        <ele>1503.64</ele>
        <time>2016-10-30T16:02:09Z</time>
      </trkpt>
      <trkpt lat="42.80654" lon="1.41351">
        <ele>1503.64</ele>
        <time>2016-10-30T16:02:10Z</time>
      </trkpt>
      <trkpt lat="42.80654" lon="1.41348">
        <ele>1503.64</ele>
        <time>2016-10-30T16:02:11Z</time>
      </trkpt>
      <trkpt lat="42.80653" lon="1.41346">
        <ele>1503.64</ele>
        <time>2016-10-30T16:02:12Z</time>
      </trkpt>
      <trkpt lat="42.80652" lon="1.41337">
        <ele>1505.08</ele>
        <time>2016-10-30T16:02:18Z</time>
      </trkpt>
      <trkpt lat="42.80651" lon="1.41335">
        <ele>1505.08</ele>
        <time>2016-10-30T16:02:19Z</time>
      </trkpt>
      <trkpt lat="42.80651" lon="1.41333">
        <ele>1505.08</ele>
        <time>2016-10-30T16:02:20Z</time>
      </trkpt>
      <trkpt lat="42.80651" lon="1.41332">
        <ele>1505.08</ele>
        <time>2016-10-30T16:02:21Z</time>
      </trkpt>
      <trkpt lat="42.8065" lon="1.4133">
        <ele>1505.08</ele>
        <time>2016-10-30T16:02:22Z</time>
      </trkpt>
      <trkpt lat="42.8065" lon="1.41328">
        <ele>1505.56</ele>
        <time>2016-10-30T16:02:23Z</time>
      </trkpt>
      <trkpt lat="42.80649" lon="1.41327">
        <ele>1505.56</ele>
        <time>2016-10-30T16:02:24Z</time>
      </trkpt>
      <trkpt lat="42.80649" lon="1.41325">
        <ele>1505.56</ele>
        <time>2016-10-30T16:02:25Z</time>
      </trkpt>
      <trkpt lat="42.80649" lon="1.41323">
        <ele>1505.56</ele>
        <time>2016-10-30T16:02:26Z</time>
      </trkpt>
      <trkpt lat="42.80649" lon="1.4132">
        <ele>1505.56</ele>
        <time>2016-10-30T16:02:27Z</time>
      </trkpt>
      <trkpt lat="42.80647" lon="1.4131">
        <ele>1506.04</ele>
        <time>2016-10-30T16:02:33Z</time>
      </trkpt>
      <trkpt lat="42.80647" lon="1.41308">
        <ele>1506.04</ele>
        <time>2016-10-30T16:02:34Z</time>
      </trkpt>
      <trkpt lat="42.80647" lon="1.41306">
        <ele>1506.04</ele>
        <time>2016-10-30T16:02:35Z</time>
      </trkpt>
      <trkpt lat="42.80647" lon="1.41304">
        <ele>1506.04</ele>
        <time>2016-10-30T16:02:36Z</time>
      </trkpt>
      <trkpt lat="42.80646" lon="1.41303">
        <ele>1506.52</ele>
        <time>2016-10-30T16:02:37Z</time>
      </trkpt>
      <trkpt lat="42.80646" lon="1.41301">
        <ele>1506.52</ele>
        <time>2016-10-30T16:02:38Z</time>
      </trkpt>
      <trkpt lat="42.80645" lon="1.413">
        <ele>1506.52</ele>
        <time>2016-10-30T16:02:39Z</time>
      </trkpt>
      <trkpt lat="42.80645" lon="1.41298">
        <ele>1506.52</ele>
        <time>2016-10-30T16:02:40Z</time>
      </trkpt>
      <trkpt lat="42.80643" lon="1.41287">
        <ele>1507</ele>
        <time>2016-10-30T16:02:47Z</time>
      </trkpt>
      <trkpt lat="42.80643" lon="1.41285">
        <ele>1507</ele>
        <time>2016-10-30T16:02:48Z</time>
      </trkpt>
      <trkpt lat="42.80642" lon="1.41283">
        <ele>1507</ele>
        <time>2016-10-30T16:02:49Z</time>
      </trkpt>
      <trkpt lat="42.8064" lon="1.41273">
        <ele>1507.48</ele>
        <time>2016-10-30T16:02:55Z</time>
      </trkpt>
      <trkpt lat="42.80639" lon="1.41266">
        <ele>1507.48</ele>
        <time>2016-10-30T16:02:59Z</time>
      </trkpt>
      <trkpt lat="42.80639" lon="1.41264">
        <ele>1507.48</ele>
        <time>2016-10-30T16:03:00Z</time>
      </trkpt>
      <trkpt lat="42.80638" lon="1.41252">
        <ele>1508.45</ele>
        <time>2016-10-30T16:03:07Z</time>
      </trkpt>
      <trkpt lat="42.80638" lon="1.41249">
        <ele>1508.45</ele>
        <time>2016-10-30T16:03:09Z</time>
      </trkpt>
      <trkpt lat="42.80638" lon="1.4124">
        <ele>1508.93</ele>
        <time>2016-10-30T16:03:14Z</time>
      </trkpt>
      <trkpt lat="42.80638" lon="1.41238">
        <ele>1508.93</ele>
        <time>2016-10-30T16:03:15Z</time>
      </trkpt>
      <trkpt lat="42.80637" lon="1.41224">
        <ele>1509.89</ele>
        <time>2016-10-30T16:03:22Z</time>
      </trkpt>
      <trkpt lat="42.80637" lon="1.41222">
        <ele>1509.89</ele>
        <time>2016-10-30T16:03:23Z</time>
      </trkpt>
      <trkpt lat="42.80637" lon="1.4122">
        <ele>1509.89</ele>
        <time>2016-10-30T16:03:24Z</time>
      </trkpt>
      <trkpt lat="42.80638" lon="1.41218">
        <ele>1509.89</ele>
        <time>2016-10-30T16:03:25Z</time>
      </trkpt>
      <trkpt lat="42.80638" lon="1.41217">
        <ele>1510.37</ele>
        <time>2016-10-30T16:03:26Z</time>
      </trkpt>
      <trkpt lat="42.80639" lon="1.412">
        <ele>1510.85</ele>
        <time>2016-10-30T16:03:36Z</time>
      </trkpt>
      <trkpt lat="42.8064" lon="1.41179">
        <ele>1511.33</ele>
        <time>2016-10-30T16:03:48Z</time>
      </trkpt>
      <trkpt lat="42.80639" lon="1.41174">
        <ele>1511.33</ele>
        <time>2016-10-30T16:03:51Z</time>
      </trkpt>
      <trkpt lat="42.80639" lon="1.41172">
        <ele>1511.33</ele>
        <time>2016-10-30T16:03:52Z</time>
      </trkpt>
      <trkpt lat="42.80638" lon="1.41171">
        <ele>1511.33</ele>
        <time>2016-10-30T16:03:53Z</time>
      </trkpt>
      <trkpt lat="42.80638" lon="1.41169">
        <ele>1511.33</ele>
        <time>2016-10-30T16:03:54Z</time>
      </trkpt>
      <trkpt lat="42.80639" lon="1.41159">
        <ele>1511.33</ele>
        <time>2016-10-30T16:04:02Z</time>
      </trkpt>
      <trkpt lat="42.8064" lon="1.41156">
        <ele>1511.81</ele>
        <time>2016-10-30T16:04:14Z</time>
      </trkpt>
      <trkpt lat="42.80638" lon="1.41152">
        <ele>1511.81</ele>
        <time>2016-10-30T16:04:26Z</time>
      </trkpt>
      <trkpt lat="42.80639" lon="1.41152">
        <ele>1511.81</ele>
        <time>2016-10-30T16:04:39Z</time>
      </trkpt>
      <trkpt lat="42.80639" lon="1.41151">
        <ele>1511.81</ele>
        <time>2016-10-30T16:04:44Z</time>
      </trkpt>
    </trkseg>
  </trk>
</gpx>